<?xml version="1.0" encoding="UTF-8"?>
<gpx version="1.1" creator="2bulu-scraper" xmlns="http://www.topografix.com/GPX/1/1">
  <metadata><name>峨眉山（26.7.19）</name><desc>source: 2bulu.com trackId=87318185; exported 2026-09-01T15:53:42.716Z</desc>
    <bounds minlat="29.5226165" minlon="103.326803" maxlat="29.5831161" maxlon="103.4352794"/>
    <link href="https://www.2bulu.com/track/t-O2Ink6KfOg7p%252FR2KBg5Tzw%253D%253D.htm"><text>2bulu 源页面</text></link>
  </metadata>
  <wpt lat="29.5660319" lon="103.4352794"><ele>531</ele><name>
        </name></wpt>
  <wpt lat="29.5656567" lon="103.4343025"><ele>539</ele><name>
        </name></wpt>
  <wpt lat="29.5649152" lon="103.4268251"><ele>606</ele><name>
        </name></wpt>
  <wpt lat="29.5649371" lon="103.4268131"><ele>612</ele><name>
        </name></wpt>
  <wpt lat="29.5650919" lon="103.426446"><ele>624</ele><name>
        </name></wpt>
  <wpt lat="29.5653046" lon="103.4212325"><ele>780</ele><name>未命名
        </name></wpt>
  <wpt lat="29.5663359" lon="103.4206586"><ele>803</ele><name>
        </name></wpt>
  <wpt lat="29.5667042" lon="103.4078795"><ele>769</ele><name>
        </name></wpt>
  <wpt lat="29.5709386" lon="103.4026555"><ele>724</ele><name>
        </name></wpt>
  <wpt lat="29.5720317" lon="103.4013165"><ele>730</ele><name>
        </name></wpt>
  <wpt lat="29.5742209" lon="103.3923538"><ele>652</ele><name>
        </name></wpt>
  <wpt lat="29.5776674" lon="103.3911244"><ele>754</ele><name>
        </name></wpt>
  <wpt lat="29.5812481" lon="103.3843167"><ele>925</ele><name>
        </name></wpt>
  <wpt lat="29.5819181" lon="103.3829574"><ele>945</ele><name>
        </name></wpt>
  <wpt lat="29.5818958" lon="103.3828497"><ele>950</ele><name>
        </name></wpt>
  <wpt lat="29.5776752" lon="103.3710855"><ele>1424</ele><name>
        </name></wpt>
  <wpt lat="29.5756597" lon="103.3656445"><ele>1425</ele><name>
        </name></wpt>
  <wpt lat="29.5753648" lon="103.3654571"><ele>1443</ele><name>
        </name></wpt>
  <wpt lat="29.5748248" lon="103.3646396"><ele>1475</ele><name>
        </name></wpt>
  <wpt lat="29.5745294" lon="103.364148"><ele>1506</ele><name>
        </name></wpt>
  <wpt lat="29.5745758" lon="103.3637145"><ele>1525</ele><name>
        </name></wpt>
  <wpt lat="29.5746254" lon="103.3635472"><ele>1530</ele><name>
        </name></wpt>
  <wpt lat="29.5685987" lon="103.359645"><ele>1700</ele><name>
        </name></wpt>
  <wpt lat="29.5642024" lon="103.3564666"><ele>1868</ele><name>
        </name></wpt>
  <wpt lat="29.5639824" lon="103.3565442"><ele>1886</ele><name>
        </name></wpt>
  <wpt lat="29.5639824" lon="103.3565442"><ele>1886</ele><name>
        </name></wpt>
  <wpt lat="29.5576275" lon="103.3439669"><ele>2038</ele><name>
        </name></wpt>
  <wpt lat="29.5573764" lon="103.3436595"><ele>2039</ele><name>
        </name></wpt>
  <wpt lat="29.5560538" lon="103.3445721"><ele>2107</ele><name>
        </name></wpt>
  <wpt lat="29.5552052" lon="103.3450518"><ele>2166</ele><name>
        </name></wpt>
  <wpt lat="29.5552052" lon="103.3450518"><ele>2166</ele><name>
        </name></wpt>
  <wpt lat="29.5540802" lon="103.3455061"><ele>2214</ele><name>
        </name></wpt>
  <wpt lat="29.5493526" lon="103.3419329"><ele>2244</ele><name>
        </name></wpt>
  <wpt lat="29.5493584" lon="103.3419118"><ele>2244</ele><name>
        </name></wpt>
  <wpt lat="29.5435259" lon="103.3337377"><ele>2397</ele><name>
        </name></wpt>
  <wpt lat="29.5423747" lon="103.332015"><ele>2391</ele><name>
        </name></wpt>
  <wpt lat="29.540899" lon="103.3317971"><ele>2400</ele><name>
        </name></wpt>
  <wpt lat="29.5396236" lon="103.3324385"><ele>2398</ele><name>
        </name></wpt>
  <wpt lat="29.5378721" lon="103.3335307"><ele>2425</ele><name>
        </name></wpt>
  <wpt lat="29.5323348" lon="103.3312127"><ele>2622</ele><name>
        </name></wpt>
  <wpt lat="29.5272557" lon="103.332439"><ele>2909</ele><name>
        </name></wpt>
  <wpt lat="29.5231021" lon="103.3347397"><ele>3000</ele><name>
        </name></wpt>
  <wpt lat="29.5226911" lon="103.3349133"><ele>3007</ele><name>
        </name></wpt>
  <wpt lat="29.5231095" lon="103.3347574"><ele>3000</ele><name>
        </name></wpt>
  <trk><name>峨眉山（26.7.19）</name>
      <trkseg>
        <trkpt lat="29.5660319" lon="103.4352794"><ele>530.82</ele><time>2026-07-18T18:48:19.000Z</time></trkpt>
        <trkpt lat="29.565964" lon="103.4352118"><ele>530.82</ele><time>2026-07-18T18:49:45.000Z</time></trkpt>
        <trkpt lat="29.5659321" lon="103.4351107"><ele>532.64</ele><time>2026-07-18T18:49:55.000Z</time></trkpt>
        <trkpt lat="29.5658763" lon="103.4350166"><ele>534.09</ele><time>2026-07-18T18:50:09.000Z</time></trkpt>
        <trkpt lat="29.5658172" lon="103.4349321"><ele>533.63</ele><time>2026-07-18T18:50:19.000Z</time></trkpt>
        <trkpt lat="29.5657412" lon="103.4348714"><ele>533.81</ele><time>2026-07-18T18:50:31.000Z</time></trkpt>
        <trkpt lat="29.5656715" lon="103.4347937"><ele>533.81</ele><time>2026-07-18T18:50:43.000Z</time></trkpt>
        <trkpt lat="29.5655958" lon="103.4347267"><ele>534.14</ele><time>2026-07-18T18:50:55.000Z</time></trkpt>
        <trkpt lat="29.5655501" lon="103.4346287"><ele>532.66</ele><time>2026-07-18T18:51:11.000Z</time></trkpt>
        <trkpt lat="29.5655312" lon="103.4345226"><ele>532.76</ele><time>2026-07-18T18:51:23.000Z</time></trkpt>
        <trkpt lat="29.5655658" lon="103.4344077"><ele>532.68</ele><time>2026-07-18T18:51:33.000Z</time></trkpt>
        <trkpt lat="29.5656022" lon="103.4343675"><ele>534.74</ele><time>2026-07-18T18:51:35.000Z</time></trkpt>
        <trkpt lat="29.5656567" lon="103.4343025"><ele>535.56</ele><time>2026-07-18T18:51:45.000Z</time></trkpt>
        <trkpt lat="29.5657251" lon="103.4342179"><ele>537.09</ele><time>2026-07-18T18:52:43.000Z</time></trkpt>
        <trkpt lat="29.5657845" lon="103.4341214"><ele>539.59</ele><time>2026-07-18T18:52:59.000Z</time></trkpt>
        <trkpt lat="29.5657481" lon="103.4340319"><ele>541.9</ele><time>2026-07-18T18:53:17.000Z</time></trkpt>
        <trkpt lat="29.5657143" lon="103.4339242"><ele>542.55</ele><time>2026-07-18T18:53:29.000Z</time></trkpt>
        <trkpt lat="29.5656864" lon="103.4338096"><ele>543.32</ele><time>2026-07-18T18:53:43.000Z</time></trkpt>
        <trkpt lat="29.5657003" lon="103.4337052"><ele>545.29</ele><time>2026-07-18T18:53:55.000Z</time></trkpt>
        <trkpt lat="29.565706" lon="103.4336004"><ele>545.59</ele><time>2026-07-18T18:54:05.000Z</time></trkpt>
        <trkpt lat="29.5657732" lon="103.4336043"><ele>547</ele><time>2026-07-18T18:54:23.000Z</time></trkpt>
        <trkpt lat="29.5657257" lon="103.4335772"><ele>549.71</ele><time>2026-07-18T18:55:18.000Z</time></trkpt>
        <trkpt lat="29.565698" lon="103.4334932"><ele>552.67</ele><time>2026-07-18T18:56:05.000Z</time></trkpt>
        <trkpt lat="29.5656976" lon="103.4333814"><ele>553.06</ele><time>2026-07-18T18:56:22.000Z</time></trkpt>
        <trkpt lat="29.5656887" lon="103.433269"><ele>552.5</ele><time>2026-07-18T18:56:54.000Z</time></trkpt>
        <trkpt lat="29.5656847" lon="103.4331477"><ele>552.83</ele><time>2026-07-18T18:57:06.000Z</time></trkpt>
        <trkpt lat="29.5656989" lon="103.4330374"><ele>552.11</ele><time>2026-07-18T18:57:16.000Z</time></trkpt>
        <trkpt lat="29.5656763" lon="103.4329293"><ele>550.02</ele><time>2026-07-18T18:57:24.000Z</time></trkpt>
        <trkpt lat="29.5656412" lon="103.4328309"><ele>549.16</ele><time>2026-07-18T18:57:32.000Z</time></trkpt>
        <trkpt lat="29.5655788" lon="103.4327473"><ele>548.27</ele><time>2026-07-18T18:57:42.000Z</time></trkpt>
        <trkpt lat="29.5655746" lon="103.4327264"><ele>548.7</ele><time>2026-07-18T18:57:44.000Z</time></trkpt>
        <trkpt lat="29.5655824" lon="103.4326496"><ele>549.02</ele><time>2026-07-18T18:57:56.000Z</time></trkpt>
        <trkpt lat="29.5655724" lon="103.4325493"><ele>550.19</ele><time>2026-07-18T18:58:06.000Z</time></trkpt>
        <trkpt lat="29.5655175" lon="103.4324711"><ele>550.36</ele><time>2026-07-18T18:58:14.000Z</time></trkpt>
        <trkpt lat="29.5654603" lon="103.4323846"><ele>551.17</ele><time>2026-07-18T18:58:24.000Z</time></trkpt>
        <trkpt lat="29.5654089" lon="103.4322802"><ele>552.23</ele><time>2026-07-18T18:58:34.000Z</time></trkpt>
        <trkpt lat="29.5653842" lon="103.4321688"><ele>553.79</ele><time>2026-07-18T18:58:46.000Z</time></trkpt>
        <trkpt lat="29.5653553" lon="103.4320517"><ele>556.16</ele><time>2026-07-18T18:59:00.000Z</time></trkpt>
        <trkpt lat="29.565334" lon="103.4319367"><ele>558.79</ele><time>2026-07-18T18:59:12.000Z</time></trkpt>
        <trkpt lat="29.5653431" lon="103.4318268"><ele>560.61</ele><time>2026-07-18T18:59:26.000Z</time></trkpt>
        <trkpt lat="29.5653772" lon="103.4317284"><ele>562.6</ele><time>2026-07-18T18:59:36.000Z</time></trkpt>
        <trkpt lat="29.5654072" lon="103.4316279"><ele>563.89</ele><time>2026-07-18T18:59:50.000Z</time></trkpt>
        <trkpt lat="29.5654332" lon="103.4315249"><ele>566.26</ele><time>2026-07-18T19:00:02.000Z</time></trkpt>
        <trkpt lat="29.5654592" lon="103.4314198"><ele>567.56</ele><time>2026-07-18T19:00:16.000Z</time></trkpt>
        <trkpt lat="29.5654765" lon="103.4313146"><ele>568.21</ele><time>2026-07-18T19:00:32.000Z</time></trkpt>
        <trkpt lat="29.565501" lon="103.4312039"><ele>569.1</ele><time>2026-07-18T19:00:44.000Z</time></trkpt>
        <trkpt lat="29.5655201" lon="103.4310967"><ele>569.34</ele><time>2026-07-18T19:00:56.000Z</time></trkpt>
        <trkpt lat="29.5655165" lon="103.4309923"><ele>570.17</ele><time>2026-07-18T19:01:10.000Z</time></trkpt>
        <trkpt lat="29.5654588" lon="103.4309016"><ele>572.11</ele><time>2026-07-18T19:01:24.000Z</time></trkpt>
        <trkpt lat="29.5653833" lon="103.4308213"><ele>574.26</ele><time>2026-07-18T19:01:38.000Z</time></trkpt>
        <trkpt lat="29.5653561" lon="103.430709"><ele>575.69</ele><time>2026-07-18T19:01:50.000Z</time></trkpt>
        <trkpt lat="29.5653476" lon="103.4305994"><ele>576.25</ele><time>2026-07-18T19:02:00.000Z</time></trkpt>
        <trkpt lat="29.5653198" lon="103.4304833"><ele>577.01</ele><time>2026-07-18T19:02:12.000Z</time></trkpt>
        <trkpt lat="29.565298" lon="103.4303628"><ele>576.91</ele><time>2026-07-18T19:02:24.000Z</time></trkpt>
        <trkpt lat="29.5652938" lon="103.4302481"><ele>577.08</ele><time>2026-07-18T19:02:34.000Z</time></trkpt>
        <trkpt lat="29.5652834" lon="103.4301357"><ele>577.65</ele><time>2026-07-18T19:02:44.000Z</time></trkpt>
        <trkpt lat="29.5652683" lon="103.4300287"><ele>578.39</ele><time>2026-07-18T19:02:54.000Z</time></trkpt>
        <trkpt lat="29.5652529" lon="103.4299186"><ele>578.93</ele><time>2026-07-18T19:03:04.000Z</time></trkpt>
        <trkpt lat="29.5652125" lon="103.4298098"><ele>579.21</ele><time>2026-07-18T19:03:14.000Z</time></trkpt>
        <trkpt lat="29.5651767" lon="103.4297074"><ele>578.73</ele><time>2026-07-18T19:03:24.000Z</time></trkpt>
        <trkpt lat="29.565135" lon="103.4296093"><ele>579.22</ele><time>2026-07-18T19:03:34.000Z</time></trkpt>
        <trkpt lat="29.5650955" lon="103.4295124"><ele>579.87</ele><time>2026-07-18T19:03:44.000Z</time></trkpt>
        <trkpt lat="29.5650355" lon="103.429417"><ele>580.87</ele><time>2026-07-18T19:03:56.000Z</time></trkpt>
        <trkpt lat="29.5649743" lon="103.4293143"><ele>582.39</ele><time>2026-07-18T19:04:08.000Z</time></trkpt>
        <trkpt lat="29.5649453" lon="103.4291967"><ele>583.94</ele><time>2026-07-18T19:04:18.000Z</time></trkpt>
        <trkpt lat="29.5649228" lon="103.4290801"><ele>583.62</ele><time>2026-07-18T19:04:26.000Z</time></trkpt>
        <trkpt lat="29.5648982" lon="103.4289643"><ele>582.09</ele><time>2026-07-18T19:04:36.000Z</time></trkpt>
        <trkpt lat="29.5648622" lon="103.4288464"><ele>581.89</ele><time>2026-07-18T19:04:46.000Z</time></trkpt>
        <trkpt lat="29.5648212" lon="103.4287349"><ele>581.94</ele><time>2026-07-18T19:04:56.000Z</time></trkpt>
        <trkpt lat="29.564801" lon="103.4286133"><ele>582.27</ele><time>2026-07-18T19:05:06.000Z</time></trkpt>
        <trkpt lat="29.5647875" lon="103.4284878"><ele>581.29</ele><time>2026-07-18T19:05:16.000Z</time></trkpt>
        <trkpt lat="29.5648326" lon="103.4283932"><ele>580.62</ele><time>2026-07-18T19:05:24.000Z</time></trkpt>
        <trkpt lat="29.5649259" lon="103.4283253"><ele>580.64</ele><time>2026-07-18T19:05:34.000Z</time></trkpt>
        <trkpt lat="29.5650379" lon="103.4282815"><ele>581.94</ele><time>2026-07-18T19:05:44.000Z</time></trkpt>
        <trkpt lat="29.5651404" lon="103.4282311"><ele>582.29</ele><time>2026-07-18T19:05:54.000Z</time></trkpt>
        <trkpt lat="29.5652302" lon="103.4281758"><ele>582.23</ele><time>2026-07-18T19:06:04.000Z</time></trkpt>
        <trkpt lat="29.5653147" lon="103.4281163"><ele>582.18</ele><time>2026-07-18T19:06:14.000Z</time></trkpt>
        <trkpt lat="29.5653969" lon="103.4280488"><ele>582.38</ele><time>2026-07-18T19:06:24.000Z</time></trkpt>
        <trkpt lat="29.5654662" lon="103.4279657"><ele>583.6</ele><time>2026-07-18T19:06:34.000Z</time></trkpt>
        <trkpt lat="29.5654794" lon="103.4278543"><ele>582.79</ele><time>2026-07-18T19:06:44.000Z</time></trkpt>
        <trkpt lat="29.5654617" lon="103.4277387"><ele>581.23</ele><time>2026-07-18T19:06:54.000Z</time></trkpt>
        <trkpt lat="29.5654277" lon="103.4276277"><ele>582.06</ele><time>2026-07-18T19:07:04.000Z</time></trkpt>
        <trkpt lat="29.5654048" lon="103.4275119"><ele>583.26</ele><time>2026-07-18T19:07:16.000Z</time></trkpt>
        <trkpt lat="29.5653765" lon="103.4273981"><ele>584.22</ele><time>2026-07-18T19:07:26.000Z</time></trkpt>
        <trkpt lat="29.565345" lon="103.427285"><ele>584.43</ele><time>2026-07-18T19:07:38.000Z</time></trkpt>
        <trkpt lat="29.5652933" lon="103.4271801"><ele>586.88</ele><time>2026-07-18T19:07:50.000Z</time></trkpt>
        <trkpt lat="29.5652315" lon="103.4270894"><ele>590.94</ele><time>2026-07-18T19:08:02.000Z</time></trkpt>
        <trkpt lat="29.5651556" lon="103.4270202"><ele>594.22</ele><time>2026-07-18T19:08:14.000Z</time></trkpt>
        <trkpt lat="29.5650723" lon="103.4269641"><ele>596.56</ele><time>2026-07-18T19:08:24.000Z</time></trkpt>
        <trkpt lat="29.5649817" lon="103.4269059"><ele>598.3</ele><time>2026-07-18T19:08:36.000Z</time></trkpt>
        <trkpt lat="29.5649152" lon="103.4268251"><ele>601.56</ele><time>2026-07-18T19:08:48.000Z</time></trkpt>
        <trkpt lat="29.5649235" lon="103.4267248"><ele>603.64</ele><time>2026-07-18T19:09:04.000Z</time></trkpt>
        <trkpt lat="29.5649318" lon="103.4267824"><ele>605.7</ele><time>2026-07-18T19:09:24.000Z</time></trkpt>
        <trkpt lat="29.5649371" lon="103.4268131"><ele>607.95</ele><time>2026-07-18T19:09:26.000Z</time></trkpt>
        <trkpt lat="29.564952" lon="103.4267464"><ele>609.51</ele><time>2026-07-18T19:09:48.000Z</time></trkpt>
        <trkpt lat="29.5649766" lon="103.4267225"><ele>610.07</ele><time>2026-07-18T19:10:02.000Z</time></trkpt>
        <trkpt lat="29.5650117" lon="103.4266449"><ele>611.08</ele><time>2026-07-18T19:10:24.000Z</time></trkpt>
        <trkpt lat="29.5650566" lon="103.4265511"><ele>611.71</ele><time>2026-07-18T19:10:58.000Z</time></trkpt>
        <trkpt lat="29.5650919" lon="103.426446"><ele>614.97</ele><time>2026-07-18T19:11:26.000Z</time></trkpt>
        <trkpt lat="29.5651247" lon="103.4263381"><ele>618.97</ele><time>2026-07-18T19:12:16.000Z</time></trkpt>
        <trkpt lat="29.5651614" lon="103.4262357"><ele>624.18</ele><time>2026-07-18T19:12:42.000Z</time></trkpt>
        <trkpt lat="29.5651893" lon="103.4261282"><ele>630.17</ele><time>2026-07-18T19:13:04.000Z</time></trkpt>
        <trkpt lat="29.5652055" lon="103.4260233"><ele>633.97</ele><time>2026-07-18T19:13:34.000Z</time></trkpt>
        <trkpt lat="29.5652178" lon="103.4259096"><ele>635.01</ele><time>2026-07-18T19:13:52.000Z</time></trkpt>
        <trkpt lat="29.5652198" lon="103.4258018"><ele>637.09</ele><time>2026-07-18T19:14:16.000Z</time></trkpt>
        <trkpt lat="29.5652283" lon="103.425691"><ele>641.32</ele><time>2026-07-18T19:14:44.000Z</time></trkpt>
        <trkpt lat="29.5651734" lon="103.4256015"><ele>644.77</ele><time>2026-07-18T19:14:54.000Z</time></trkpt>
        <trkpt lat="29.5650797" lon="103.4255322"><ele>647.59</ele><time>2026-07-18T19:15:02.000Z</time></trkpt>
        <trkpt lat="29.5649914" lon="103.4254711"><ele>648.03</ele><time>2026-07-18T19:15:10.000Z</time></trkpt>
        <trkpt lat="29.5649262" lon="103.4253853"><ele>648.89</ele><time>2026-07-18T19:15:20.000Z</time></trkpt>
        <trkpt lat="29.5648657" lon="103.4252903"><ele>648.4</ele><time>2026-07-18T19:15:28.000Z</time></trkpt>
        <trkpt lat="29.5648038" lon="103.425209"><ele>647.21</ele><time>2026-07-18T19:15:36.000Z</time></trkpt>
        <trkpt lat="29.5647537" lon="103.4251159"><ele>646.5</ele><time>2026-07-18T19:15:46.000Z</time></trkpt>
        <trkpt lat="29.5647417" lon="103.4250058"><ele>646.19</ele><time>2026-07-18T19:16:04.000Z</time></trkpt>
        <trkpt lat="29.5647406" lon="103.4248974"><ele>646.35</ele><time>2026-07-18T19:16:32.000Z</time></trkpt>
        <trkpt lat="29.5647245" lon="103.4247896"><ele>652.32</ele><time>2026-07-18T19:16:48.000Z</time></trkpt>
        <trkpt lat="29.5647129" lon="103.4246767"><ele>655.71</ele><time>2026-07-18T19:17:04.000Z</time></trkpt>
        <trkpt lat="29.5646466" lon="103.4246114"><ele>659.23</ele><time>2026-07-18T19:17:14.000Z</time></trkpt>
        <trkpt lat="29.5645854" lon="103.4245288"><ele>660.74</ele><time>2026-07-18T19:17:28.000Z</time></trkpt>
        <trkpt lat="29.5645667" lon="103.4244282"><ele>661.62</ele><time>2026-07-18T19:17:50.000Z</time></trkpt>
        <trkpt lat="29.5645591" lon="103.4243239"><ele>662.76</ele><time>2026-07-18T19:18:06.000Z</time></trkpt>
        <trkpt lat="29.5645976" lon="103.4242279"><ele>662.81</ele><time>2026-07-18T19:18:22.000Z</time></trkpt>
        <trkpt lat="29.5645539" lon="103.4241599"><ele>664.26</ele><time>2026-07-18T19:19:12.000Z</time></trkpt>
        <trkpt lat="29.5644753" lon="103.4241081"><ele>674.06</ele><time>2026-07-18T19:19:30.000Z</time></trkpt>
        <trkpt lat="29.5644109" lon="103.4240207"><ele>679.33</ele><time>2026-07-18T19:19:46.000Z</time></trkpt>
        <trkpt lat="29.5643723" lon="103.4239102"><ele>681.1</ele><time>2026-07-18T19:20:08.000Z</time></trkpt>
        <trkpt lat="29.5643285" lon="103.4238118"><ele>683</ele><time>2026-07-18T19:20:20.000Z</time></trkpt>
        <trkpt lat="29.5643224" lon="103.4237057"><ele>684.21</ele><time>2026-07-18T19:20:34.000Z</time></trkpt>
        <trkpt lat="29.5643567" lon="103.4236092"><ele>684.85</ele><time>2026-07-18T19:20:50.000Z</time></trkpt>
        <trkpt lat="29.5644241" lon="103.4235295"><ele>687.6</ele><time>2026-07-18T19:21:04.000Z</time></trkpt>
        <trkpt lat="29.5644777" lon="103.4234326"><ele>691.23</ele><time>2026-07-18T19:21:18.000Z</time></trkpt>
        <trkpt lat="29.5645277" lon="103.4233348"><ele>692.17</ele><time>2026-07-18T19:21:36.000Z</time></trkpt>
        <trkpt lat="29.5645386" lon="103.4232255"><ele>689.46</ele><time>2026-07-18T19:22:02.000Z</time></trkpt>
        <trkpt lat="29.5644952" lon="103.4231278"><ele>691.58</ele><time>2026-07-18T19:22:28.000Z</time></trkpt>
        <trkpt lat="29.5645114" lon="103.4230348"><ele>695.6</ele><time>2026-07-18T19:22:44.000Z</time></trkpt>
        <trkpt lat="29.564525" lon="103.4229255"><ele>699.25</ele><time>2026-07-18T19:23:08.000Z</time></trkpt>
        <trkpt lat="29.5645254" lon="103.4228181"><ele>703.63</ele><time>2026-07-18T19:23:26.000Z</time></trkpt>
        <trkpt lat="29.5644619" lon="103.4227579"><ele>705.92</ele><time>2026-07-18T19:23:55.000Z</time></trkpt>
        <trkpt lat="29.5644235" lon="103.4226564"><ele>714.29</ele><time>2026-07-18T19:24:05.000Z</time></trkpt>
        <trkpt lat="29.5644281" lon="103.4225504"><ele>716.77</ele><time>2026-07-18T19:24:21.000Z</time></trkpt>
        <trkpt lat="29.5644116" lon="103.4224403"><ele>716.82</ele><time>2026-07-18T19:24:49.000Z</time></trkpt>
        <trkpt lat="29.5644183" lon="103.4223323"><ele>717.94</ele><time>2026-07-18T19:25:17.000Z</time></trkpt>
        <trkpt lat="29.5644816" lon="103.4222543"><ele>719.55</ele><time>2026-07-18T19:25:47.000Z</time></trkpt>
        <trkpt lat="29.5644916" lon="103.4221529"><ele>720.86</ele><time>2026-07-18T19:26:05.000Z</time></trkpt>
        <trkpt lat="29.5644565" lon="103.4220594"><ele>725.22</ele><time>2026-07-18T19:26:31.000Z</time></trkpt>
        <trkpt lat="29.5644256" lon="103.4219505"><ele>729.8</ele><time>2026-07-18T19:26:53.000Z</time></trkpt>
        <trkpt lat="29.5644118" lon="103.4218436"><ele>731.3</ele><time>2026-07-18T19:27:25.000Z</time></trkpt>
        <trkpt lat="29.5644112" lon="103.4217369"><ele>735.15</ele><time>2026-07-18T19:27:51.000Z</time></trkpt>
        <trkpt lat="29.5643837" lon="103.4216355"><ele>738.17</ele><time>2026-07-18T19:28:23.000Z</time></trkpt>
        <trkpt lat="29.5643663" lon="103.4215319"><ele>742.63</ele><time>2026-07-18T19:28:47.000Z</time></trkpt>
        <trkpt lat="29.5643201" lon="103.4214356"><ele>745.68</ele><time>2026-07-18T19:29:11.000Z</time></trkpt>
        <trkpt lat="29.5643061" lon="103.4213318"><ele>749.2</ele><time>2026-07-18T19:29:31.000Z</time></trkpt>
        <trkpt lat="29.5643705" lon="103.421324"><ele>752.89</ele><time>2026-07-18T19:29:45.000Z</time></trkpt>
        <trkpt lat="29.5644636" lon="103.4213027"><ele>756.54</ele><time>2026-07-18T19:29:57.000Z</time></trkpt>
        <trkpt lat="29.5645693" lon="103.4212685"><ele>760.13</ele><time>2026-07-18T19:30:15.000Z</time></trkpt>
        <trkpt lat="29.564643" lon="103.4211941"><ele>762.49</ele><time>2026-07-18T19:30:31.000Z</time></trkpt>
        <trkpt lat="29.5646965" lon="103.4210933"><ele>762.88</ele><time>2026-07-18T19:30:53.000Z</time></trkpt>
        <trkpt lat="29.5647632" lon="103.4211186"><ele>763.62</ele><time>2026-07-18T19:31:05.000Z</time></trkpt>
        <trkpt lat="29.5648381" lon="103.4211791"><ele>764.57</ele><time>2026-07-18T19:31:19.000Z</time></trkpt>
        <trkpt lat="29.5649108" lon="103.4212572"><ele>766.29</ele><time>2026-07-18T19:31:41.000Z</time></trkpt>
        <trkpt lat="29.5649709" lon="103.4213501"><ele>766.67</ele><time>2026-07-18T19:32:11.000Z</time></trkpt>
        <trkpt lat="29.5650303" lon="103.421321"><ele>768.29</ele><time>2026-07-18T19:32:35.000Z</time></trkpt>
        <trkpt lat="29.5651168" lon="103.4213079"><ele>769.01</ele><time>2026-07-18T19:33:01.000Z</time></trkpt>
        <trkpt lat="29.5652095" lon="103.4212791"><ele>771.53</ele><time>2026-07-18T19:33:25.000Z</time></trkpt>
        <trkpt lat="29.5653046" lon="103.4212325"><ele>773.25</ele><time>2026-07-18T19:33:59.000Z</time></trkpt>
        <trkpt lat="29.5654012" lon="103.4211923"><ele>776.27</ele><time>2026-07-18T19:40:32.000Z</time></trkpt>
        <trkpt lat="29.5654925" lon="103.421149"><ele>783.36</ele><time>2026-07-18T19:40:50.000Z</time></trkpt>
        <trkpt lat="29.5655884" lon="103.4211052"><ele>787.08</ele><time>2026-07-18T19:41:00.000Z</time></trkpt>
        <trkpt lat="29.5656737" lon="103.4210726"><ele>789.85</ele><time>2026-07-18T19:41:12.000Z</time></trkpt>
        <trkpt lat="29.5657671" lon="103.4210787"><ele>790.17</ele><time>2026-07-18T19:41:50.000Z</time></trkpt>
        <trkpt lat="29.5658575" lon="103.4210969"><ele>790.75</ele><time>2026-07-18T19:42:06.000Z</time></trkpt>
        <trkpt lat="29.5659529" lon="103.4211022"><ele>792.11</ele><time>2026-07-18T19:42:22.000Z</time></trkpt>
        <trkpt lat="29.566043" lon="103.4211237"><ele>793.06</ele><time>2026-07-18T19:42:38.000Z</time></trkpt>
        <trkpt lat="29.566136" lon="103.4211332"><ele>793.44</ele><time>2026-07-18T19:43:04.000Z</time></trkpt>
        <trkpt lat="29.5662199" lon="103.4210968"><ele>796.29</ele><time>2026-07-18T19:43:24.000Z</time></trkpt>
        <trkpt lat="29.5662783" lon="103.4210121"><ele>798.8</ele><time>2026-07-18T19:43:36.000Z</time></trkpt>
        <trkpt lat="29.5663022" lon="103.4208953"><ele>801.2</ele><time>2026-07-18T19:43:48.000Z</time></trkpt>
        <trkpt lat="29.566314" lon="103.4207762"><ele>801.04</ele><time>2026-07-18T19:43:58.000Z</time></trkpt>
        <trkpt lat="29.5663359" lon="103.4206586"><ele>801.17</ele><time>2026-07-18T19:44:08.000Z</time></trkpt>
        <trkpt lat="29.56637" lon="103.4205493"><ele>801.76</ele><time>2026-07-18T19:44:32.000Z</time></trkpt>
        <trkpt lat="29.5664002" lon="103.4204459"><ele>802.12</ele><time>2026-07-18T19:44:48.000Z</time></trkpt>
        <trkpt lat="29.5664546" lon="103.420362"><ele>800.53</ele><time>2026-07-18T19:45:00.000Z</time></trkpt>
        <trkpt lat="29.5665312" lon="103.4202861"><ele>799.06</ele><time>2026-07-18T19:45:10.000Z</time></trkpt>
        <trkpt lat="29.5666033" lon="103.4201946"><ele>799.23</ele><time>2026-07-18T19:45:20.000Z</time></trkpt>
        <trkpt lat="29.5666489" lon="103.4200906"><ele>800.64</ele><time>2026-07-18T19:45:28.000Z</time></trkpt>
        <trkpt lat="29.5666641" lon="103.4199796"><ele>800.36</ele><time>2026-07-18T19:45:38.000Z</time></trkpt>
        <trkpt lat="29.5667066" lon="103.419876"><ele>799.56</ele><time>2026-07-18T19:45:50.000Z</time></trkpt>
        <trkpt lat="29.566758" lon="103.4199186"><ele>800.97</ele><time>2026-07-18T19:46:14.000Z</time></trkpt>
        <trkpt lat="29.5668413" lon="103.4199438"><ele>806.91</ele><time>2026-07-18T19:46:26.000Z</time></trkpt>
        <trkpt lat="29.566929" lon="103.4199951"><ele>809.84</ele><time>2026-07-18T19:46:56.000Z</time></trkpt>
        <trkpt lat="29.5669985" lon="103.4200756"><ele>811.35</ele><time>2026-07-18T19:47:22.000Z</time></trkpt>
        <trkpt lat="29.5670222" lon="103.420191"><ele>813.63</ele><time>2026-07-18T19:47:40.000Z</time></trkpt>
        <trkpt lat="29.5670302" lon="103.4203056"><ele>816.2</ele><time>2026-07-18T19:47:52.000Z</time></trkpt>
        <trkpt lat="29.5670929" lon="103.4203768"><ele>818.66</ele><time>2026-07-18T19:48:14.000Z</time></trkpt>
        <trkpt lat="29.5671676" lon="103.4204366"><ele>819.11</ele><time>2026-07-18T19:48:36.000Z</time></trkpt>
        <trkpt lat="29.5672577" lon="103.4204633"><ele>820.96</ele><time>2026-07-18T19:49:00.000Z</time></trkpt>
        <trkpt lat="29.5673539" lon="103.4204462"><ele>822.38</ele><time>2026-07-18T19:49:24.000Z</time></trkpt>
        <trkpt lat="29.567457" lon="103.42043"><ele>822.99</ele><time>2026-07-18T19:49:54.000Z</time></trkpt>
        <trkpt lat="29.5675461" lon="103.4203891"><ele>825.9</ele><time>2026-07-18T19:50:20.000Z</time></trkpt>
        <trkpt lat="29.5676319" lon="103.4203352"><ele>829.71</ele><time>2026-07-18T19:50:54.000Z</time></trkpt>
        <trkpt lat="29.5677162" lon="103.4202804"><ele>834.54</ele><time>2026-07-18T19:51:24.000Z</time></trkpt>
        <trkpt lat="29.5677995" lon="103.4202284"><ele>838.13</ele><time>2026-07-18T19:51:44.000Z</time></trkpt>
        <trkpt lat="29.5678855" lon="103.4201891"><ele>840.42</ele><time>2026-07-18T19:52:04.000Z</time></trkpt>
        <trkpt lat="29.5679744" lon="103.420153"><ele>843.68</ele><time>2026-07-18T19:52:30.000Z</time></trkpt>
        <trkpt lat="29.5680581" lon="103.4200996"><ele>847.22</ele><time>2026-07-18T19:53:10.000Z</time></trkpt>
        <trkpt lat="29.5681437" lon="103.4201079"><ele>854.47</ele><time>2026-07-18T19:53:36.000Z</time></trkpt>
        <trkpt lat="29.5682371" lon="103.4201034"><ele>860.87</ele><time>2026-07-18T19:54:08.000Z</time></trkpt>
        <trkpt lat="29.5683293" lon="103.4201038"><ele>865.49</ele><time>2026-07-18T19:54:36.000Z</time></trkpt>
        <trkpt lat="29.568424" lon="103.4200913"><ele>870.24</ele><time>2026-07-18T19:55:06.000Z</time></trkpt>
        <trkpt lat="29.5685185" lon="103.4200834"><ele>875.07</ele><time>2026-07-18T19:55:38.000Z</time></trkpt>
        <trkpt lat="29.568614" lon="103.4200782"><ele>878.66</ele><time>2026-07-18T19:56:14.000Z</time></trkpt>
        <trkpt lat="29.568713" lon="103.4200762"><ele>881.8</ele><time>2026-07-18T19:59:22.000Z</time></trkpt>
        <trkpt lat="29.5688064" lon="103.4200245"><ele>884.02</ele><time>2026-07-18T19:59:40.000Z</time></trkpt>
        <trkpt lat="29.568865" lon="103.4199431"><ele>886.75</ele><time>2026-07-18T19:59:54.000Z</time></trkpt>
        <trkpt lat="29.568947" lon="103.4199213"><ele>888.94</ele><time>2026-07-18T20:00:06.000Z</time></trkpt>
        <trkpt lat="29.5690344" lon="103.4198955"><ele>889.37</ele><time>2026-07-18T20:00:18.000Z</time></trkpt>
        <trkpt lat="29.5691219" lon="103.4198647"><ele>890.18</ele><time>2026-07-18T20:00:28.000Z</time></trkpt>
        <trkpt lat="29.569214" lon="103.4198425"><ele>890.69</ele><time>2026-07-18T20:00:38.000Z</time></trkpt>
        <trkpt lat="29.5693047" lon="103.4198072"><ele>891.36</ele><time>2026-07-18T20:00:50.000Z</time></trkpt>
        <trkpt lat="29.5693968" lon="103.4197595"><ele>891.72</ele><time>2026-07-18T20:01:06.000Z</time></trkpt>
        <trkpt lat="29.5694683" lon="103.4196888"><ele>889.03</ele><time>2026-07-18T20:01:30.000Z</time></trkpt>
        <trkpt lat="29.5695406" lon="103.4196223"><ele>887.74</ele><time>2026-07-18T20:01:42.000Z</time></trkpt>
        <trkpt lat="29.5695998" lon="103.4195402"><ele>885.81</ele><time>2026-07-18T20:01:54.000Z</time></trkpt>
        <trkpt lat="29.5696696" lon="103.4194455"><ele>883.68</ele><time>2026-07-18T20:02:14.000Z</time></trkpt>
        <trkpt lat="29.5697205" lon="103.4193272"><ele>884.19</ele><time>2026-07-18T20:03:58.000Z</time></trkpt>
        <trkpt lat="29.5697809" lon="103.4192192"><ele>884.67</ele><time>2026-07-18T20:04:10.000Z</time></trkpt>
        <trkpt lat="29.5697972" lon="103.4191126"><ele>883.07</ele><time>2026-07-18T20:04:20.000Z</time></trkpt>
        <trkpt lat="29.5697978" lon="103.4189987"><ele>882.59</ele><time>2026-07-18T20:04:30.000Z</time></trkpt>
        <trkpt lat="29.5697948" lon="103.418884"><ele>883.11</ele><time>2026-07-18T20:04:42.000Z</time></trkpt>
        <trkpt lat="29.5697938" lon="103.4187678"><ele>883.42</ele><time>2026-07-18T20:04:56.000Z</time></trkpt>
        <trkpt lat="29.5698227" lon="103.4186582"><ele>884</ele><time>2026-07-18T20:05:10.000Z</time></trkpt>
        <trkpt lat="29.5698595" lon="103.4185474"><ele>884.6</ele><time>2026-07-18T20:05:20.000Z</time></trkpt>
        <trkpt lat="29.5698928" lon="103.4184377"><ele>883.71</ele><time>2026-07-18T20:05:30.000Z</time></trkpt>
        <trkpt lat="29.5699131" lon="103.4183329"><ele>882.75</ele><time>2026-07-18T20:05:40.000Z</time></trkpt>
        <trkpt lat="29.5699285" lon="103.4182199"><ele>883.26</ele><time>2026-07-18T20:05:50.000Z</time></trkpt>
        <trkpt lat="29.5699578" lon="103.4181123"><ele>882.34</ele><time>2026-07-18T20:06:00.000Z</time></trkpt>
        <trkpt lat="29.5700178" lon="103.4180189"><ele>882.39</ele><time>2026-07-18T20:06:12.000Z</time></trkpt>
        <trkpt lat="29.570061" lon="103.4179107"><ele>883.03</ele><time>2026-07-18T20:06:22.000Z</time></trkpt>
        <trkpt lat="29.5700969" lon="103.4177918"><ele>882.13</ele><time>2026-07-18T20:06:32.000Z</time></trkpt>
        <trkpt lat="29.570114" lon="103.4176663"><ele>881.3</ele><time>2026-07-18T20:06:42.000Z</time></trkpt>
        <trkpt lat="29.5701069" lon="103.4175462"><ele>879.24</ele><time>2026-07-18T20:06:52.000Z</time></trkpt>
        <trkpt lat="29.5701045" lon="103.4174214"><ele>876.58</ele><time>2026-07-18T20:07:02.000Z</time></trkpt>
        <trkpt lat="29.5701078" lon="103.4173024"><ele>875.82</ele><time>2026-07-18T20:07:12.000Z</time></trkpt>
        <trkpt lat="29.5701287" lon="103.417186"><ele>875.8</ele><time>2026-07-18T20:07:22.000Z</time></trkpt>
        <trkpt lat="29.5701877" lon="103.4171056"><ele>876.45</ele><time>2026-07-18T20:07:34.000Z</time></trkpt>
        <trkpt lat="29.5702884" lon="103.4170957"><ele>876.28</ele><time>2026-07-18T20:07:46.000Z</time></trkpt>
        <trkpt lat="29.5703863" lon="103.4170584"><ele>876.14</ele><time>2026-07-18T20:07:56.000Z</time></trkpt>
        <trkpt lat="29.5704213" lon="103.4169726"><ele>875.87</ele><time>2026-07-18T20:08:04.000Z</time></trkpt>
        <trkpt lat="29.5704155" lon="103.4168565"><ele>875.13</ele><time>2026-07-18T20:08:14.000Z</time></trkpt>
        <trkpt lat="29.5704052" lon="103.4167267"><ele>875.09</ele><time>2026-07-18T20:08:24.000Z</time></trkpt>
        <trkpt lat="29.5703941" lon="103.4165924"><ele>874.13</ele><time>2026-07-18T20:08:34.000Z</time></trkpt>
        <trkpt lat="29.5703924" lon="103.4164653"><ele>873.65</ele><time>2026-07-18T20:08:44.000Z</time></trkpt>
        <trkpt lat="29.5704062" lon="103.4163446"><ele>873.19</ele><time>2026-07-18T20:08:54.000Z</time></trkpt>
        <trkpt lat="29.5704193" lon="103.4162294"><ele>873.16</ele><time>2026-07-18T20:09:04.000Z</time></trkpt>
        <trkpt lat="29.570482" lon="103.4161597"><ele>873.31</ele><time>2026-07-18T20:09:16.000Z</time></trkpt>
        <trkpt lat="29.5705746" lon="103.4161313"><ele>871.84</ele><time>2026-07-18T20:09:28.000Z</time></trkpt>
        <trkpt lat="29.5706678" lon="103.4161029"><ele>871.3</ele><time>2026-07-18T20:09:44.000Z</time></trkpt>
        <trkpt lat="29.570765" lon="103.4160775"><ele>871.99</ele><time>2026-07-18T20:10:04.000Z</time></trkpt>
        <trkpt lat="29.5708099" lon="103.4159948"><ele>873.19</ele><time>2026-07-18T20:10:28.000Z</time></trkpt>
        <trkpt lat="29.5708152" lon="103.4158897"><ele>873.85</ele><time>2026-07-18T20:10:44.000Z</time></trkpt>
        <trkpt lat="29.5707421" lon="103.4158294"><ele>878.62</ele><time>2026-07-18T20:10:58.000Z</time></trkpt>
        <trkpt lat="29.5706383" lon="103.415786"><ele>881.36</ele><time>2026-07-18T20:11:12.000Z</time></trkpt>
        <trkpt lat="29.5705347" lon="103.415754"><ele>882.63</ele><time>2026-07-18T20:11:24.000Z</time></trkpt>
        <trkpt lat="29.5704466" lon="103.4157007"><ele>882.47</ele><time>2026-07-18T20:11:40.000Z</time></trkpt>
        <trkpt lat="29.5703801" lon="103.415621"><ele>883.38</ele><time>2026-07-18T20:11:54.000Z</time></trkpt>
        <trkpt lat="29.5702962" lon="103.415556"><ele>882.9</ele><time>2026-07-18T20:12:06.000Z</time></trkpt>
        <trkpt lat="29.5701992" lon="103.4155207"><ele>882.66</ele><time>2026-07-18T20:12:18.000Z</time></trkpt>
        <trkpt lat="29.5701021" lon="103.4155071"><ele>882.42</ele><time>2026-07-18T20:12:32.000Z</time></trkpt>
        <trkpt lat="29.5700215" lon="103.4154606"><ele>882.73</ele><time>2026-07-18T20:12:46.000Z</time></trkpt>
        <trkpt lat="29.5699547" lon="103.415381"><ele>882.73</ele><time>2026-07-18T20:12:58.000Z</time></trkpt>
        <trkpt lat="29.5699089" lon="103.4152812"><ele>884</ele><time>2026-07-18T20:13:08.000Z</time></trkpt>
        <trkpt lat="29.5698948" lon="103.4151652"><ele>885.66</ele><time>2026-07-18T20:13:20.000Z</time></trkpt>
        <trkpt lat="29.5698945" lon="103.4150385"><ele>887.46</ele><time>2026-07-18T20:13:32.000Z</time></trkpt>
        <trkpt lat="29.5698623" lon="103.4149209"><ele>887.86</ele><time>2026-07-18T20:13:42.000Z</time></trkpt>
        <trkpt lat="29.5697983" lon="103.414823"><ele>888.28</ele><time>2026-07-18T20:13:52.000Z</time></trkpt>
        <trkpt lat="29.5697269" lon="103.4147307"><ele>888.8</ele><time>2026-07-18T20:14:02.000Z</time></trkpt>
        <trkpt lat="29.5696419" lon="103.4146829"><ele>888.33</ele><time>2026-07-18T20:14:12.000Z</time></trkpt>
        <trkpt lat="29.5695531" lon="103.4147012"><ele>887.6</ele><time>2026-07-18T20:14:20.000Z</time></trkpt>
        <trkpt lat="29.5694584" lon="103.4147503"><ele>886.94</ele><time>2026-07-18T20:14:30.000Z</time></trkpt>
        <trkpt lat="29.5693695" lon="103.4148073"><ele>884.53</ele><time>2026-07-18T20:14:40.000Z</time></trkpt>
        <trkpt lat="29.5692721" lon="103.4148403"><ele>882.66</ele><time>2026-07-18T20:14:50.000Z</time></trkpt>
        <trkpt lat="29.569213" lon="103.4147691"><ele>882.86</ele><time>2026-07-18T20:15:06.000Z</time></trkpt>
        <trkpt lat="29.5691499" lon="103.4146805"><ele>882.56</ele><time>2026-07-18T20:15:16.000Z</time></trkpt>
        <trkpt lat="29.5691155" lon="103.4145698"><ele>882.44</ele><time>2026-07-18T20:15:24.000Z</time></trkpt>
        <trkpt lat="29.5691033" lon="103.41445"><ele>882.88</ele><time>2026-07-18T20:15:32.000Z</time></trkpt>
        <trkpt lat="29.5690848" lon="103.4143407"><ele>881.95</ele><time>2026-07-18T20:15:42.000Z</time></trkpt>
        <trkpt lat="29.5691075" lon="103.4142334"><ele>882</ele><time>2026-07-18T20:15:52.000Z</time></trkpt>
        <trkpt lat="29.5691201" lon="103.4141223"><ele>880.8</ele><time>2026-07-18T20:16:04.000Z</time></trkpt>
        <trkpt lat="29.5691557" lon="103.4140146"><ele>881.37</ele><time>2026-07-18T20:16:16.000Z</time></trkpt>
        <trkpt lat="29.5692039" lon="103.4139212"><ele>880.33</ele><time>2026-07-18T20:16:24.000Z</time></trkpt>
        <trkpt lat="29.5692034" lon="103.4138053"><ele>880.68</ele><time>2026-07-18T20:16:36.000Z</time></trkpt>
        <trkpt lat="29.5691356" lon="103.4137238"><ele>881.14</ele><time>2026-07-18T20:16:42.000Z</time></trkpt>
        <trkpt lat="29.5690783" lon="103.4136259"><ele>880.01</ele><time>2026-07-18T20:16:50.000Z</time></trkpt>
        <trkpt lat="29.5690491" lon="103.4135228"><ele>880.76</ele><time>2026-07-18T20:16:58.000Z</time></trkpt>
        <trkpt lat="29.5690406" lon="103.4134097"><ele>881.58</ele><time>2026-07-18T20:17:10.000Z</time></trkpt>
        <trkpt lat="29.5689992" lon="103.4133166"><ele>881.96</ele><time>2026-07-18T20:17:16.000Z</time></trkpt>
        <trkpt lat="29.5689882" lon="103.4132157"><ele>882.22</ele><time>2026-07-18T20:17:28.000Z</time></trkpt>
        <trkpt lat="29.5689937" lon="103.4131017"><ele>881.97</ele><time>2026-07-18T20:17:44.000Z</time></trkpt>
        <trkpt lat="29.5690613" lon="103.4130329"><ele>880.29</ele><time>2026-07-18T20:17:54.000Z</time></trkpt>
        <trkpt lat="29.5691215" lon="103.4129366"><ele>876.78</ele><time>2026-07-18T20:18:04.000Z</time></trkpt>
        <trkpt lat="29.5692127" lon="103.4128838"><ele>875.32</ele><time>2026-07-18T20:18:10.000Z</time></trkpt>
        <trkpt lat="29.5692966" lon="103.4128117"><ele>875.03</ele><time>2026-07-18T20:18:24.000Z</time></trkpt>
        <trkpt lat="29.5693782" lon="103.4127496"><ele>873.23</ele><time>2026-07-18T20:18:38.000Z</time></trkpt>
        <trkpt lat="29.569405" lon="103.4126507"><ele>872.33</ele><time>2026-07-18T20:18:46.000Z</time></trkpt>
        <trkpt lat="29.5693814" lon="103.4125495"><ele>870.56</ele><time>2026-07-18T20:19:33.000Z</time></trkpt>
        <trkpt lat="29.5693647" lon="103.4124127"><ele>869.52</ele><time>2026-07-18T20:19:41.000Z</time></trkpt>
        <trkpt lat="29.5693329" lon="103.4122971"><ele>867.98</ele><time>2026-07-18T20:20:00.000Z</time></trkpt>
        <trkpt lat="29.5692616" lon="103.4121977"><ele>869.07</ele><time>2026-07-18T20:20:55.000Z</time></trkpt>
        <trkpt lat="29.5691546" lon="103.4121686"><ele>865.67</ele><time>2026-07-18T20:21:17.000Z</time></trkpt>
        <trkpt lat="29.5690588" lon="103.412135"><ele>862.71</ele><time>2026-07-18T20:21:25.000Z</time></trkpt>
        <trkpt lat="29.5689867" lon="103.412067"><ele>859.31</ele><time>2026-07-18T20:21:35.000Z</time></trkpt>
        <trkpt lat="29.5689468" lon="103.4119678"><ele>859.05</ele><time>2026-07-18T20:21:49.000Z</time></trkpt>
        <trkpt lat="29.5688918" lon="103.4118843"><ele>858.5</ele><time>2026-07-18T20:21:59.000Z</time></trkpt>
        <trkpt lat="29.5688069" lon="103.4118346"><ele>856.24</ele><time>2026-07-18T20:22:09.000Z</time></trkpt>
        <trkpt lat="29.5687093" lon="103.4118139"><ele>854.64</ele><time>2026-07-18T20:22:19.000Z</time></trkpt>
        <trkpt lat="29.568614" lon="103.4118042"><ele>853.75</ele><time>2026-07-18T20:22:31.000Z</time></trkpt>
        <trkpt lat="29.568541" lon="103.4117413"><ele>850.41</ele><time>2026-07-18T20:22:49.000Z</time></trkpt>
        <trkpt lat="29.5684635" lon="103.4116636"><ele>848.75</ele><time>2026-07-18T20:23:05.000Z</time></trkpt>
        <trkpt lat="29.5683935" lon="103.4115753"><ele>846.47</ele><time>2026-07-18T20:23:17.000Z</time></trkpt>
        <trkpt lat="29.5683831" lon="103.4114633"><ele>843.48</ele><time>2026-07-18T20:23:33.000Z</time></trkpt>
        <trkpt lat="29.5684177" lon="103.4113574"><ele>839.46</ele><time>2026-07-18T20:23:43.000Z</time></trkpt>
        <trkpt lat="29.5684715" lon="103.4112637"><ele>835.89</ele><time>2026-07-18T20:23:51.000Z</time></trkpt>
        <trkpt lat="29.5685173" lon="103.4111606"><ele>833.83</ele><time>2026-07-18T20:24:01.000Z</time></trkpt>
        <trkpt lat="29.5685326" lon="103.4110535"><ele>832.39</ele><time>2026-07-18T20:24:09.000Z</time></trkpt>
        <trkpt lat="29.5685612" lon="103.4109341"><ele>833.39</ele><time>2026-07-18T20:24:19.000Z</time></trkpt>
        <trkpt lat="29.5685986" lon="103.4108179"><ele>833.91</ele><time>2026-07-18T20:24:31.000Z</time></trkpt>
        <trkpt lat="29.5686354" lon="103.4107156"><ele>833.93</ele><time>2026-07-18T20:24:41.000Z</time></trkpt>
        <trkpt lat="29.5686635" lon="103.4106095"><ele>833.95</ele><time>2026-07-18T20:24:51.000Z</time></trkpt>
        <trkpt lat="29.5686756" lon="103.4105011"><ele>834.44</ele><time>2026-07-18T20:25:01.000Z</time></trkpt>
        <trkpt lat="29.5686768" lon="103.4103893"><ele>834.46</ele><time>2026-07-18T20:25:11.000Z</time></trkpt>
        <trkpt lat="29.5686513" lon="103.4102713"><ele>834.8</ele><time>2026-07-18T20:25:21.000Z</time></trkpt>
        <trkpt lat="29.568637" lon="103.4101518"><ele>833.42</ele><time>2026-07-18T20:25:31.000Z</time></trkpt>
        <trkpt lat="29.568612" lon="103.4100359"><ele>833.17</ele><time>2026-07-18T20:25:41.000Z</time></trkpt>
        <trkpt lat="29.5685427" lon="103.409947"><ele>832.4</ele><time>2026-07-18T20:25:51.000Z</time></trkpt>
        <trkpt lat="29.5684375" lon="103.4099164"><ele>831.6</ele><time>2026-07-18T20:26:01.000Z</time></trkpt>
        <trkpt lat="29.5683546" lon="103.4098592"><ele>831.85</ele><time>2026-07-18T20:26:11.000Z</time></trkpt>
        <trkpt lat="29.5683084" lon="103.4097698"><ele>832.39</ele><time>2026-07-18T20:26:23.000Z</time></trkpt>
        <trkpt lat="29.5682717" lon="103.409674"><ele>832.71</ele><time>2026-07-18T20:26:41.000Z</time></trkpt>
        <trkpt lat="29.5682704" lon="103.409559"><ele>830.83</ele><time>2026-07-18T20:31:28.000Z</time></trkpt>
        <trkpt lat="29.5682237" lon="103.4094598"><ele>828.6</ele><time>2026-07-18T20:32:16.000Z</time></trkpt>
        <trkpt lat="29.5681814" lon="103.4093595"><ele>824.31</ele><time>2026-07-18T20:32:36.000Z</time></trkpt>
        <trkpt lat="29.5681374" lon="103.4092661"><ele>821.82</ele><time>2026-07-18T20:33:14.000Z</time></trkpt>
        <trkpt lat="29.5680903" lon="103.409168"><ele>818.21</ele><time>2026-07-18T20:33:26.000Z</time></trkpt>
        <trkpt lat="29.5680624" lon="103.4090667"><ele>816.78</ele><time>2026-07-18T20:33:36.000Z</time></trkpt>
        <trkpt lat="29.5680126" lon="103.4089654"><ele>815.9</ele><time>2026-07-18T20:33:52.000Z</time></trkpt>
        <trkpt lat="29.5679639" lon="103.4088734"><ele>812.36</ele><time>2026-07-18T20:34:06.000Z</time></trkpt>
        <trkpt lat="29.5679283" lon="103.4087691"><ele>809.35</ele><time>2026-07-18T20:34:24.000Z</time></trkpt>
        <trkpt lat="29.5679156" lon="103.4086649"><ele>805.88</ele><time>2026-07-18T20:34:38.000Z</time></trkpt>
        <trkpt lat="29.5678641" lon="103.4085776"><ele>801.93</ele><time>2026-07-18T20:34:48.000Z</time></trkpt>
        <trkpt lat="29.5678152" lon="103.4084805"><ele>798.95</ele><time>2026-07-18T20:35:04.000Z</time></trkpt>
        <trkpt lat="29.5677369" lon="103.4084041"><ele>794.9</ele><time>2026-07-18T20:35:18.000Z</time></trkpt>
        <trkpt lat="29.5676561" lon="103.4083371"><ele>791.69</ele><time>2026-07-18T20:35:36.000Z</time></trkpt>
        <trkpt lat="29.5676005" lon="103.408398"><ele>790.05</ele><time>2026-07-18T20:35:46.000Z</time></trkpt>
        <trkpt lat="29.56752" lon="103.4084898"><ele>787.71</ele><time>2026-07-18T20:36:00.000Z</time></trkpt>
        <trkpt lat="29.5674678" lon="103.4086048"><ele>785.17</ele><time>2026-07-18T20:36:10.000Z</time></trkpt>
        <trkpt lat="29.5673895" lon="103.4086235"><ele>782.73</ele><time>2026-07-18T20:36:20.000Z</time></trkpt>
        <trkpt lat="29.5672972" lon="103.4085674"><ele>781.25</ele><time>2026-07-18T20:36:30.000Z</time></trkpt>
        <trkpt lat="29.5672153" lon="103.4084924"><ele>779</ele><time>2026-07-18T20:36:38.000Z</time></trkpt>
        <trkpt lat="29.5671282" lon="103.4084385"><ele>777.93</ele><time>2026-07-18T20:36:48.000Z</time></trkpt>
        <trkpt lat="29.5670327" lon="103.4084258"><ele>777.12</ele><time>2026-07-18T20:36:56.000Z</time></trkpt>
        <trkpt lat="29.5669206" lon="103.4084166"><ele>776.35</ele><time>2026-07-18T20:37:06.000Z</time></trkpt>
        <trkpt lat="29.5668203" lon="103.4084232"><ele>774.98</ele><time>2026-07-18T20:37:14.000Z</time></trkpt>
        <trkpt lat="29.5667266" lon="103.4084061"><ele>772.4</ele><time>2026-07-18T20:37:22.000Z</time></trkpt>
        <trkpt lat="29.5666644" lon="103.4083329"><ele>770.55</ele><time>2026-07-18T20:37:30.000Z</time></trkpt>
        <trkpt lat="29.566662" lon="103.40822"><ele>769.51</ele><time>2026-07-18T20:37:40.000Z</time></trkpt>
        <trkpt lat="29.5666937" lon="103.4081053"><ele>770.23</ele><time>2026-07-18T20:37:48.000Z</time></trkpt>
        <trkpt lat="29.5667094" lon="103.4079931"><ele>769.6</ele><time>2026-07-18T20:37:56.000Z</time></trkpt>
        <trkpt lat="29.5667042" lon="103.4078795"><ele>769.08</ele><time>2026-07-18T20:38:06.000Z</time></trkpt>
        <trkpt lat="29.5666559" lon="103.4077889"><ele>768.93</ele><time>2026-07-18T20:38:18.000Z</time></trkpt>
        <trkpt lat="29.5666029" lon="103.4076841"><ele>769.75</ele><time>2026-07-18T20:38:36.000Z</time></trkpt>
        <trkpt lat="29.5665645" lon="103.4075773"><ele>771.5</ele><time>2026-07-18T20:38:46.000Z</time></trkpt>
        <trkpt lat="29.5665392" lon="103.4074616"><ele>771.93</ele><time>2026-07-18T20:38:56.000Z</time></trkpt>
        <trkpt lat="29.566514" lon="103.4073382"><ele>772.04</ele><time>2026-07-18T20:39:06.000Z</time></trkpt>
        <trkpt lat="29.5664796" lon="103.4072338"><ele>772.24</ele><time>2026-07-18T20:39:14.000Z</time></trkpt>
        <trkpt lat="29.5664519" lon="103.4071318"><ele>773.27</ele><time>2026-07-18T20:39:22.000Z</time></trkpt>
        <trkpt lat="29.5664332" lon="103.4070144"><ele>774.48</ele><time>2026-07-18T20:39:32.000Z</time></trkpt>
        <trkpt lat="29.5664455" lon="103.4069038"><ele>774.85</ele><time>2026-07-18T20:39:40.000Z</time></trkpt>
        <trkpt lat="29.5664995" lon="103.4068031"><ele>774.39</ele><time>2026-07-18T20:39:50.000Z</time></trkpt>
        <trkpt lat="29.5665826" lon="103.4067179"><ele>773.83</ele><time>2026-07-18T20:40:00.000Z</time></trkpt>
        <trkpt lat="29.5666621" lon="103.4066335"><ele>772.42</ele><time>2026-07-18T20:40:10.000Z</time></trkpt>
        <trkpt lat="29.5667419" lon="103.4065484"><ele>771.45</ele><time>2026-07-18T20:40:20.000Z</time></trkpt>
        <trkpt lat="29.5668172" lon="103.4064805"><ele>769.12</ele><time>2026-07-18T20:40:28.000Z</time></trkpt>
        <trkpt lat="29.5668753" lon="103.4064015"><ele>767.93</ele><time>2026-07-18T20:40:36.000Z</time></trkpt>
        <trkpt lat="29.5669294" lon="103.4063034"><ele>766.06</ele><time>2026-07-18T20:40:46.000Z</time></trkpt>
        <trkpt lat="29.5669829" lon="103.4061978"><ele>766.34</ele><time>2026-07-18T20:40:56.000Z</time></trkpt>
        <trkpt lat="29.5670355" lon="103.4060876"><ele>766.55</ele><time>2026-07-18T20:41:06.000Z</time></trkpt>
        <trkpt lat="29.567084" lon="103.4059916"><ele>766.37</ele><time>2026-07-18T20:41:14.000Z</time></trkpt>
        <trkpt lat="29.5671314" lon="103.4058994"><ele>766.6</ele><time>2026-07-18T20:41:22.000Z</time></trkpt>
        <trkpt lat="29.567133" lon="103.4057971"><ele>766.17</ele><time>2026-07-18T20:41:30.000Z</time></trkpt>
        <trkpt lat="29.5670744" lon="103.4057081"><ele>765.06</ele><time>2026-07-18T20:41:38.000Z</time></trkpt>
        <trkpt lat="29.5670013" lon="103.4056279"><ele>763.73</ele><time>2026-07-18T20:41:46.000Z</time></trkpt>
        <trkpt lat="29.5669246" lon="103.4055504"><ele>762.58</ele><time>2026-07-18T20:41:54.000Z</time></trkpt>
        <trkpt lat="29.5668454" lon="103.4054717"><ele>761.57</ele><time>2026-07-18T20:42:02.000Z</time></trkpt>
        <trkpt lat="29.5667881" lon="103.4053748"><ele>760.99</ele><time>2026-07-18T20:42:10.000Z</time></trkpt>
        <trkpt lat="29.5667559" lon="103.4052706"><ele>760.82</ele><time>2026-07-18T20:42:18.000Z</time></trkpt>
        <trkpt lat="29.566753" lon="103.4051619"><ele>759.23</ele><time>2026-07-18T20:42:26.000Z</time></trkpt>
        <trkpt lat="29.5668157" lon="103.405087"><ele>759.02</ele><time>2026-07-18T20:42:34.000Z</time></trkpt>
        <trkpt lat="29.5669195" lon="103.405107"><ele>759.06</ele><time>2026-07-18T20:42:44.000Z</time></trkpt>
        <trkpt lat="29.5670297" lon="103.4051147"><ele>757.39</ele><time>2026-07-18T20:42:52.000Z</time></trkpt>
        <trkpt lat="29.5671327" lon="103.405107"><ele>756.65</ele><time>2026-07-18T20:43:00.000Z</time></trkpt>
        <trkpt lat="29.567231" lon="103.4050806"><ele>753.98</ele><time>2026-07-18T20:43:08.000Z</time></trkpt>
        <trkpt lat="29.5673315" lon="103.4050789"><ele>751.41</ele><time>2026-07-18T20:43:16.000Z</time></trkpt>
        <trkpt lat="29.5674309" lon="103.4050731"><ele>750.26</ele><time>2026-07-18T20:43:24.000Z</time></trkpt>
        <trkpt lat="29.5675256" lon="103.405083"><ele>750.23</ele><time>2026-07-18T20:43:32.000Z</time></trkpt>
        <trkpt lat="29.5676176" lon="103.4050968"><ele>752.19</ele><time>2026-07-18T20:43:40.000Z</time></trkpt>
        <trkpt lat="29.5677234" lon="103.4051097"><ele>752.95</ele><time>2026-07-18T20:43:50.000Z</time></trkpt>
        <trkpt lat="29.5678255" lon="103.405102"><ele>751.75</ele><time>2026-07-18T20:43:58.000Z</time></trkpt>
        <trkpt lat="29.5679246" lon="103.4050627"><ele>751.1</ele><time>2026-07-18T20:44:06.000Z</time></trkpt>
        <trkpt lat="29.5680124" lon="103.4050049"><ele>751.92</ele><time>2026-07-18T20:44:14.000Z</time></trkpt>
        <trkpt lat="29.5680886" lon="103.4049412"><ele>753.79</ele><time>2026-07-18T20:44:22.000Z</time></trkpt>
        <trkpt lat="29.5681802" lon="103.4048814"><ele>754.84</ele><time>2026-07-18T20:44:32.000Z</time></trkpt>
        <trkpt lat="29.5682752" lon="103.4048234"><ele>754.56</ele><time>2026-07-18T20:44:42.000Z</time></trkpt>
        <trkpt lat="29.5683411" lon="103.4047438"><ele>754.32</ele><time>2026-07-18T20:44:50.000Z</time></trkpt>
        <trkpt lat="29.5683773" lon="103.4046434"><ele>752.96</ele><time>2026-07-18T20:44:58.000Z</time></trkpt>
        <trkpt lat="29.5684277" lon="103.4045467"><ele>752.45</ele><time>2026-07-18T20:45:06.000Z</time></trkpt>
        <trkpt lat="29.5684866" lon="103.4044598"><ele>751.06</ele><time>2026-07-18T20:45:14.000Z</time></trkpt>
        <trkpt lat="29.5685241" lon="103.4043626"><ele>751.32</ele><time>2026-07-18T20:45:22.000Z</time></trkpt>
        <trkpt lat="29.568565" lon="103.4042506"><ele>751.78</ele><time>2026-07-18T20:45:32.000Z</time></trkpt>
        <trkpt lat="29.5686201" lon="103.4041561"><ele>750.86</ele><time>2026-07-18T20:45:40.000Z</time></trkpt>
        <trkpt lat="29.5686908" lon="103.4040706"><ele>750.43</ele><time>2026-07-18T20:45:48.000Z</time></trkpt>
        <trkpt lat="29.5687647" lon="103.4039972"><ele>749.79</ele><time>2026-07-18T20:45:56.000Z</time></trkpt>
        <trkpt lat="29.5688435" lon="103.4039327"><ele>748.75</ele><time>2026-07-18T20:46:04.000Z</time></trkpt>
        <trkpt lat="29.5689338" lon="103.4039104"><ele>747.17</ele><time>2026-07-18T20:46:12.000Z</time></trkpt>
        <trkpt lat="29.5690216" lon="103.4039421"><ele>745.16</ele><time>2026-07-18T20:46:20.000Z</time></trkpt>
        <trkpt lat="29.5691261" lon="103.4039698"><ele>743.86</ele><time>2026-07-18T20:46:30.000Z</time></trkpt>
        <trkpt lat="29.5692171" lon="103.4039455"><ele>743.35</ele><time>2026-07-18T20:46:38.000Z</time></trkpt>
        <trkpt lat="29.5692977" lon="103.4038955"><ele>742.44</ele><time>2026-07-18T20:46:46.000Z</time></trkpt>
        <trkpt lat="29.5693806" lon="103.4038417"><ele>742.34</ele><time>2026-07-18T20:46:54.000Z</time></trkpt>
        <trkpt lat="29.5694651" lon="103.4037835"><ele>743.06</ele><time>2026-07-18T20:47:02.000Z</time></trkpt>
        <trkpt lat="29.5695414" lon="103.4037168"><ele>742.45</ele><time>2026-07-18T20:47:10.000Z</time></trkpt>
        <trkpt lat="29.5696183" lon="103.4036528"><ele>741.62</ele><time>2026-07-18T20:47:18.000Z</time></trkpt>
        <trkpt lat="29.5696909" lon="103.4035829"><ele>740.52</ele><time>2026-07-18T20:47:26.000Z</time></trkpt>
        <trkpt lat="29.5697543" lon="103.4035056"><ele>740.22</ele><time>2026-07-18T20:47:34.000Z</time></trkpt>
        <trkpt lat="29.5698259" lon="103.4034281"><ele>739.17</ele><time>2026-07-18T20:47:42.000Z</time></trkpt>
        <trkpt lat="29.5698724" lon="103.4033295"><ele>738.05</ele><time>2026-07-18T20:47:50.000Z</time></trkpt>
        <trkpt lat="29.5699276" lon="103.4032425"><ele>737.93</ele><time>2026-07-18T20:47:58.000Z</time></trkpt>
        <trkpt lat="29.5699857" lon="103.4031617"><ele>737.38</ele><time>2026-07-18T20:48:06.000Z</time></trkpt>
        <trkpt lat="29.5700273" lon="103.4030565"><ele>739.33</ele><time>2026-07-18T20:48:16.000Z</time></trkpt>
        <trkpt lat="29.5700648" lon="103.4029396"><ele>740.11</ele><time>2026-07-18T20:48:26.000Z</time></trkpt>
        <trkpt lat="29.5701362" lon="103.4028545"><ele>741.39</ele><time>2026-07-18T20:48:36.000Z</time></trkpt>
        <trkpt lat="29.5702238" lon="103.4028097"><ele>738.47</ele><time>2026-07-18T20:48:44.000Z</time></trkpt>
        <trkpt lat="29.5703259" lon="103.4027863"><ele>736.17</ele><time>2026-07-18T20:48:52.000Z</time></trkpt>
        <trkpt lat="29.570436" lon="103.4027887"><ele>734.33</ele><time>2026-07-18T20:49:02.000Z</time></trkpt>
        <trkpt lat="29.5705407" lon="103.4027995"><ele>734.45</ele><time>2026-07-18T20:49:10.000Z</time></trkpt>
        <trkpt lat="29.5706498" lon="103.4027942"><ele>735.67</ele><time>2026-07-18T20:49:20.000Z</time></trkpt>
        <trkpt lat="29.5707519" lon="103.4027711"><ele>736.75</ele><time>2026-07-18T20:49:28.000Z</time></trkpt>
        <trkpt lat="29.5708449" lon="103.4027242"><ele>735.54</ele><time>2026-07-18T20:49:36.000Z</time></trkpt>
        <trkpt lat="29.5709386" lon="103.4026555"><ele>732.51</ele><time>2026-07-18T20:49:46.000Z</time></trkpt>
        <trkpt lat="29.5710333" lon="103.4025974"><ele>729.04</ele><time>2026-07-18T20:49:56.000Z</time></trkpt>
        <trkpt lat="29.5711171" lon="103.4025326"><ele>727.88</ele><time>2026-07-18T20:50:04.000Z</time></trkpt>
        <trkpt lat="29.5711988" lon="103.4024545"><ele>726.88</ele><time>2026-07-18T20:50:14.000Z</time></trkpt>
        <trkpt lat="29.5712327" lon="103.4023518"><ele>726.05</ele><time>2026-07-18T20:50:28.000Z</time></trkpt>
        <trkpt lat="29.5712863" lon="103.4022412"><ele>725.99</ele><time>2026-07-18T20:50:36.000Z</time></trkpt>
        <trkpt lat="29.5713348" lon="103.4021147"><ele>725.81</ele><time>2026-07-18T20:50:48.000Z</time></trkpt>
        <trkpt lat="29.5714221" lon="103.4020394"><ele>727.07</ele><time>2026-07-18T20:50:54.000Z</time></trkpt>
        <trkpt lat="29.5714988" lon="103.4019679"><ele>727.36</ele><time>2026-07-18T20:51:06.000Z</time></trkpt>
        <trkpt lat="29.5715486" lon="103.4019117"><ele>728.99</ele><time>2026-07-18T20:51:12.000Z</time></trkpt>
        <trkpt lat="29.57163" lon="103.4018773"><ele>730.55</ele><time>2026-07-18T20:51:34.000Z</time></trkpt>
        <trkpt lat="29.5717245" lon="103.4018735"><ele>730.78</ele><time>2026-07-18T20:52:18.000Z</time></trkpt>
        <trkpt lat="29.5718335" lon="103.4019004"><ele>730.13</ele><time>2026-07-18T20:54:42.000Z</time></trkpt>
        <trkpt lat="29.5718662" lon="103.4018027"><ele>730.43</ele><time>2026-07-18T20:54:50.000Z</time></trkpt>
        <trkpt lat="29.5719274" lon="103.4017086"><ele>729.74</ele><time>2026-07-18T20:55:02.000Z</time></trkpt>
        <trkpt lat="29.5719577" lon="103.401605"><ele>730.81</ele><time>2026-07-18T20:55:16.000Z</time></trkpt>
        <trkpt lat="29.5720118" lon="103.4015135"><ele>731.67</ele><time>2026-07-18T20:55:28.000Z</time></trkpt>
        <trkpt lat="29.5720528" lon="103.4014139"><ele>731.15</ele><time>2026-07-18T20:55:40.000Z</time></trkpt>
        <trkpt lat="29.5720317" lon="103.4013165"><ele>731.62</ele><time>2026-07-18T20:55:50.000Z</time></trkpt>
        <trkpt lat="29.5720009" lon="103.4012111"><ele>731.11</ele><time>2026-07-18T20:56:10.000Z</time></trkpt>
        <trkpt lat="29.5720094" lon="103.401107"><ele>732.79</ele><time>2026-07-18T20:56:36.000Z</time></trkpt>
        <trkpt lat="29.5719387" lon="103.4010786"><ele>731.17</ele><time>2026-07-18T20:57:19.000Z</time></trkpt>
        <trkpt lat="29.5718505" lon="103.4012246"><ele>730.37</ele><time>2026-07-18T20:57:26.000Z</time></trkpt>
        <trkpt lat="29.571872" lon="103.4011446"><ele>733.36</ele><time>2026-07-18T20:57:30.000Z</time></trkpt>
        <trkpt lat="29.5718401" lon="103.4010026"><ele>727.74</ele><time>2026-07-18T20:58:00.000Z</time></trkpt>
        <trkpt lat="29.5719074" lon="103.4010491"><ele>725.53</ele><time>2026-07-18T20:58:04.000Z</time></trkpt>
        <trkpt lat="29.5719866" lon="103.401087"><ele>726.24</ele><time>2026-07-18T20:58:10.000Z</time></trkpt>
        <trkpt lat="29.5719511" lon="103.4011369"><ele>725.62</ele><time>2026-07-18T20:58:16.000Z</time></trkpt>
        <trkpt lat="29.5721155" lon="103.4009641"><ele>726.69</ele><time>2026-07-18T20:59:33.000Z</time></trkpt>
        <trkpt lat="29.5719444" lon="103.4011552"><ele>727.69</ele><time>2026-07-18T20:59:38.000Z</time></trkpt>
        <trkpt lat="29.5718485" lon="103.4011749"><ele>727.72</ele><time>2026-07-18T21:01:09.000Z</time></trkpt>
        <trkpt lat="29.5719179" lon="103.4010664"><ele>729.22</ele><time>2026-07-18T21:01:12.000Z</time></trkpt>
        <trkpt lat="29.57198" lon="103.4009759"><ele>738.33</ele><time>2026-07-18T21:01:18.000Z</time></trkpt>
        <trkpt lat="29.571994" lon="103.4008714"><ele>742.43</ele><time>2026-07-18T21:01:40.000Z</time></trkpt>
        <trkpt lat="29.5719661" lon="103.4007479"><ele>742.69</ele><time>2026-07-18T21:02:32.000Z</time></trkpt>
        <trkpt lat="29.5719509" lon="103.4006295"><ele>744.11</ele><time>2026-07-18T21:03:20.000Z</time></trkpt>
        <trkpt lat="29.5719502" lon="103.4005149"><ele>747.09</ele><time>2026-07-18T21:03:32.000Z</time></trkpt>
        <trkpt lat="29.571905" lon="103.4004274"><ele>750.81</ele><time>2026-07-18T21:04:14.000Z</time></trkpt>
        <trkpt lat="29.5718952" lon="103.4003306"><ele>755.14</ele><time>2026-07-18T21:04:38.000Z</time></trkpt>
        <trkpt lat="29.571893" lon="103.4001929"><ele>760.35</ele><time>2026-07-18T21:05:28.000Z</time></trkpt>
        <trkpt lat="29.5718758" lon="103.4000704"><ele>766.04</ele><time>2026-07-18T21:05:40.000Z</time></trkpt>
        <trkpt lat="29.5718665" lon="103.3999611"><ele>771</ele><time>2026-07-18T21:06:02.000Z</time></trkpt>
        <trkpt lat="29.5718705" lon="103.399848"><ele>775.89</ele><time>2026-07-18T21:06:40.000Z</time></trkpt>
        <trkpt lat="29.5718842" lon="103.3997322"><ele>779.91</ele><time>2026-07-18T21:06:58.000Z</time></trkpt>
        <trkpt lat="29.571866" lon="103.3996252"><ele>783.24</ele><time>2026-07-18T21:07:18.000Z</time></trkpt>
        <trkpt lat="29.5718717" lon="103.3995197"><ele>785.98</ele><time>2026-07-18T21:07:38.000Z</time></trkpt>
        <trkpt lat="29.5718645" lon="103.399415"><ele>788.14</ele><time>2026-07-18T21:07:52.000Z</time></trkpt>
        <trkpt lat="29.5718312" lon="103.3993118"><ele>790.31</ele><time>2026-07-18T21:08:04.000Z</time></trkpt>
        <trkpt lat="29.5717769" lon="103.3992262"><ele>791.01</ele><time>2026-07-18T21:08:28.000Z</time></trkpt>
        <trkpt lat="29.5717297" lon="103.3991334"><ele>793.81</ele><time>2026-07-18T21:08:48.000Z</time></trkpt>
        <trkpt lat="29.5717116" lon="103.3990251"><ele>797.82</ele><time>2026-07-18T21:09:06.000Z</time></trkpt>
        <trkpt lat="29.5716748" lon="103.3989205"><ele>800.96</ele><time>2026-07-18T21:09:22.000Z</time></trkpt>
        <trkpt lat="29.5716591" lon="103.3988118"><ele>803.81</ele><time>2026-07-18T21:09:34.000Z</time></trkpt>
        <trkpt lat="29.5716484" lon="103.398705"><ele>805.25</ele><time>2026-07-18T21:09:44.000Z</time></trkpt>
        <trkpt lat="29.5716501" lon="103.3986002"><ele>807.17</ele><time>2026-07-18T21:09:54.000Z</time></trkpt>
        <trkpt lat="29.5716429" lon="103.3984962"><ele>808.89</ele><time>2026-07-18T21:10:06.000Z</time></trkpt>
        <trkpt lat="29.5716059" lon="103.3983922"><ele>810.16</ele><time>2026-07-18T21:10:20.000Z</time></trkpt>
        <trkpt lat="29.5716173" lon="103.3982897"><ele>810.28</ele><time>2026-07-18T21:10:34.000Z</time></trkpt>
        <trkpt lat="29.5716178" lon="103.3981816"><ele>810.02</ele><time>2026-07-18T21:10:50.000Z</time></trkpt>
        <trkpt lat="29.5716134" lon="103.398072"><ele>808.7</ele><time>2026-07-18T21:11:08.000Z</time></trkpt>
        <trkpt lat="29.5716068" lon="103.3979644"><ele>806.89</ele><time>2026-07-18T21:11:26.000Z</time></trkpt>
        <trkpt lat="29.5715716" lon="103.3978562"><ele>803.7</ele><time>2026-07-18T21:14:22.000Z</time></trkpt>
        <trkpt lat="29.5715325" lon="103.3977548"><ele>798.4</ele><time>2026-07-18T21:14:40.000Z</time></trkpt>
        <trkpt lat="29.5714973" lon="103.397644"><ele>793.69</ele><time>2026-07-18T21:14:58.000Z</time></trkpt>
        <trkpt lat="29.5714681" lon="103.3975411"><ele>790.12</ele><time>2026-07-18T21:15:12.000Z</time></trkpt>
        <trkpt lat="29.5714823" lon="103.3974388"><ele>787.19</ele><time>2026-07-18T21:15:24.000Z</time></trkpt>
        <trkpt lat="29.5715244" lon="103.397345"><ele>786.33</ele><time>2026-07-18T21:15:40.000Z</time></trkpt>
        <trkpt lat="29.5715766" lon="103.3972567"><ele>783.06</ele><time>2026-07-18T21:15:52.000Z</time></trkpt>
        <trkpt lat="29.5716371" lon="103.3971686"><ele>778.77</ele><time>2026-07-18T21:16:06.000Z</time></trkpt>
        <trkpt lat="29.5716926" lon="103.3970708"><ele>774.07</ele><time>2026-07-18T21:16:22.000Z</time></trkpt>
        <trkpt lat="29.5717478" lon="103.3969742"><ele>768.64</ele><time>2026-07-18T21:16:38.000Z</time></trkpt>
        <trkpt lat="29.5718054" lon="103.3968788"><ele>765.42</ele><time>2026-07-18T21:16:54.000Z</time></trkpt>
        <trkpt lat="29.5718862" lon="103.396813"><ele>762.59</ele><time>2026-07-18T21:17:12.000Z</time></trkpt>
        <trkpt lat="29.5719782" lon="103.3967946"><ele>759.09</ele><time>2026-07-18T21:17:30.000Z</time></trkpt>
        <trkpt lat="29.5720744" lon="103.3967791"><ele>755.42</ele><time>2026-07-18T21:17:46.000Z</time></trkpt>
        <trkpt lat="29.5721672" lon="103.3967628"><ele>753.92</ele><time>2026-07-18T21:18:04.000Z</time></trkpt>
        <trkpt lat="29.5722644" lon="103.3967496"><ele>750.76</ele><time>2026-07-18T21:18:30.000Z</time></trkpt>
        <trkpt lat="29.5723605" lon="103.3967216"><ele>748.42</ele><time>2026-07-18T21:18:48.000Z</time></trkpt>
        <trkpt lat="29.5724292" lon="103.3966422"><ele>744.9</ele><time>2026-07-18T21:19:00.000Z</time></trkpt>
        <trkpt lat="29.5724543" lon="103.3965329"><ele>742.22</ele><time>2026-07-18T21:19:14.000Z</time></trkpt>
        <trkpt lat="29.5724325" lon="103.3964239"><ele>739.85</ele><time>2026-07-18T21:19:24.000Z</time></trkpt>
        <trkpt lat="29.5724527" lon="103.3963124"><ele>740.05</ele><time>2026-07-18T21:19:38.000Z</time></trkpt>
        <trkpt lat="29.5724642" lon="103.3962029"><ele>739</ele><time>2026-07-18T21:19:50.000Z</time></trkpt>
        <trkpt lat="29.5724925" lon="103.3960972"><ele>736.38</ele><time>2026-07-18T21:20:02.000Z</time></trkpt>
        <trkpt lat="29.572552" lon="103.3960104"><ele>736.68</ele><time>2026-07-18T21:20:18.000Z</time></trkpt>
        <trkpt lat="29.5726328" lon="103.3959504"><ele>734.84</ele><time>2026-07-18T21:20:36.000Z</time></trkpt>
        <trkpt lat="29.5727116" lon="103.3958837"><ele>731.35</ele><time>2026-07-18T21:20:58.000Z</time></trkpt>
        <trkpt lat="29.5727966" lon="103.395828"><ele>727.24</ele><time>2026-07-18T21:21:16.000Z</time></trkpt>
        <trkpt lat="29.5728535" lon="103.3957489"><ele>725.19</ele><time>2026-07-18T21:21:26.000Z</time></trkpt>
        <trkpt lat="29.5728935" lon="103.3956565"><ele>722.84</ele><time>2026-07-18T21:21:36.000Z</time></trkpt>
        <trkpt lat="29.5729294" lon="103.3955436"><ele>721.46</ele><time>2026-07-18T21:21:48.000Z</time></trkpt>
        <trkpt lat="29.5729705" lon="103.3954267"><ele>718.91</ele><time>2026-07-18T21:21:58.000Z</time></trkpt>
        <trkpt lat="29.5730203" lon="103.3953296"><ele>715.85</ele><time>2026-07-18T21:22:08.000Z</time></trkpt>
        <trkpt lat="29.573017" lon="103.3952187"><ele>713.74</ele><time>2026-07-18T21:22:20.000Z</time></trkpt>
        <trkpt lat="29.572973" lon="103.3951143"><ele>713.31</ele><time>2026-07-18T21:22:32.000Z</time></trkpt>
        <trkpt lat="29.5729431" lon="103.3950009"><ele>712.59</ele><time>2026-07-18T21:22:46.000Z</time></trkpt>
        <trkpt lat="29.5729274" lon="103.3948886"><ele>710.91</ele><time>2026-07-18T21:23:00.000Z</time></trkpt>
        <trkpt lat="29.5728944" lon="103.3947804"><ele>710.15</ele><time>2026-07-18T21:23:18.000Z</time></trkpt>
        <trkpt lat="29.5728401" lon="103.3946923"><ele>707.84</ele><time>2026-07-18T21:23:30.000Z</time></trkpt>
        <trkpt lat="29.5728107" lon="103.3946603"><ele>707.03</ele><time>2026-07-18T21:23:42.000Z</time></trkpt>
        <trkpt lat="29.5727428" lon="103.3946221"><ele>704.01</ele><time>2026-07-18T21:24:22.000Z</time></trkpt>
        <trkpt lat="29.5727619" lon="103.3945428"><ele>701.99</ele><time>2026-07-18T21:25:00.000Z</time></trkpt>
        <trkpt lat="29.5728005" lon="103.3944483"><ele>700.36</ele><time>2026-07-18T21:25:18.000Z</time></trkpt>
        <trkpt lat="29.5728491" lon="103.3943403"><ele>697.03</ele><time>2026-07-18T21:25:32.000Z</time></trkpt>
        <trkpt lat="29.572899" lon="103.3942372"><ele>693.51</ele><time>2026-07-18T21:25:46.000Z</time></trkpt>
        <trkpt lat="29.5729807" lon="103.3941728"><ele>690.54</ele><time>2026-07-18T21:26:32.000Z</time></trkpt>
        <trkpt lat="29.5730804" lon="103.3941432"><ele>686.55</ele><time>2026-07-18T21:26:52.000Z</time></trkpt>
        <trkpt lat="29.5731837" lon="103.3941303"><ele>684.04</ele><time>2026-07-18T21:27:08.000Z</time></trkpt>
        <trkpt lat="29.5732851" lon="103.3941398"><ele>683</ele><time>2026-07-18T21:27:24.000Z</time></trkpt>
        <trkpt lat="29.5733537" lon="103.3942163"><ele>681.42</ele><time>2026-07-18T21:27:42.000Z</time></trkpt>
        <trkpt lat="29.5734382" lon="103.3942585"><ele>681.49</ele><time>2026-07-18T21:27:58.000Z</time></trkpt>
        <trkpt lat="29.5734852" lon="103.3943437"><ele>678.69</ele><time>2026-07-18T21:28:10.000Z</time></trkpt>
        <trkpt lat="29.5735219" lon="103.3944542"><ele>676.19</ele><time>2026-07-18T21:28:22.000Z</time></trkpt>
        <trkpt lat="29.5735651" lon="103.3945592"><ele>673.15</ele><time>2026-07-18T21:28:32.000Z</time></trkpt>
        <trkpt lat="29.5736007" lon="103.3946743"><ele>670.28</ele><time>2026-07-18T21:28:44.000Z</time></trkpt>
        <trkpt lat="29.5736331" lon="103.3947122"><ele>668.99</ele><time>2026-07-18T21:28:52.000Z</time></trkpt>
        <trkpt lat="29.573688" lon="103.3947758"><ele>666.86</ele><time>2026-07-18T21:29:02.000Z</time></trkpt>
        <trkpt lat="29.5737704" lon="103.3948304"><ele>665.24</ele><time>2026-07-18T21:29:14.000Z</time></trkpt>
        <trkpt lat="29.5738604" lon="103.3948918"><ele>664.78</ele><time>2026-07-18T21:29:28.000Z</time></trkpt>
        <trkpt lat="29.5739475" lon="103.3949481"><ele>663.84</ele><time>2026-07-18T21:29:38.000Z</time></trkpt>
        <trkpt lat="29.5740376" lon="103.3949819"><ele>662.5</ele><time>2026-07-18T21:29:50.000Z</time></trkpt>
        <trkpt lat="29.5740769" lon="103.3950709"><ele>662.02</ele><time>2026-07-18T21:30:00.000Z</time></trkpt>
        <trkpt lat="29.5740973" lon="103.3951766"><ele>662.16</ele><time>2026-07-18T21:30:08.000Z</time></trkpt>
        <trkpt lat="29.5741145" lon="103.3952899"><ele>662.45</ele><time>2026-07-18T21:30:20.000Z</time></trkpt>
        <trkpt lat="29.5741488" lon="103.395399"><ele>661.16</ele><time>2026-07-18T21:30:30.000Z</time></trkpt>
        <trkpt lat="29.574179" lon="103.3955082"><ele>659.26</ele><time>2026-07-18T21:30:40.000Z</time></trkpt>
        <trkpt lat="29.5742298" lon="103.3955981"><ele>657.84</ele><time>2026-07-18T21:30:52.000Z</time></trkpt>
        <trkpt lat="29.574184" lon="103.3956614"><ele>657.71</ele><time>2026-07-18T21:31:16.000Z</time></trkpt>
        <trkpt lat="29.5740866" lon="103.3957665"><ele>659.21</ele><time>2026-07-18T21:34:02.000Z</time></trkpt>
        <trkpt lat="29.5741686" lon="103.3958284"><ele>661.27</ele><time>2026-07-18T21:34:35.000Z</time></trkpt>
        <trkpt lat="29.5740942" lon="103.3957346"><ele>657.9</ele><time>2026-07-18T21:35:59.000Z</time></trkpt>
        <trkpt lat="29.5741844" lon="103.3956758"><ele>655.67</ele><time>2026-07-18T21:36:03.000Z</time></trkpt>
        <trkpt lat="29.5742764" lon="103.3956533"><ele>654.93</ele><time>2026-07-18T21:45:00.000Z</time></trkpt>
        <trkpt lat="29.5742178" lon="103.395682"><ele>649.81</ele><time>2026-07-18T21:45:07.000Z</time></trkpt>
        <trkpt lat="29.5742295" lon="103.3955754"><ele>650.43</ele><time>2026-07-18T21:58:37.000Z</time></trkpt>
        <trkpt lat="29.57418" lon="103.3954692"><ele>651.76</ele><time>2026-07-18T21:59:41.000Z</time></trkpt>
        <trkpt lat="29.5741483" lon="103.3953626"><ele>653.84</ele><time>2026-07-18T21:59:55.000Z</time></trkpt>
        <trkpt lat="29.5741168" lon="103.3952605"><ele>655.72</ele><time>2026-07-18T22:00:09.000Z</time></trkpt>
        <trkpt lat="29.5740938" lon="103.3951567"><ele>656.85</ele><time>2026-07-18T22:00:21.000Z</time></trkpt>
        <trkpt lat="29.5740597" lon="103.3950568"><ele>657.92</ele><time>2026-07-18T22:00:33.000Z</time></trkpt>
        <trkpt lat="29.5740136" lon="103.3949616"><ele>658.47</ele><time>2026-07-18T22:00:43.000Z</time></trkpt>
        <trkpt lat="29.5739398" lon="103.3949034"><ele>658.85</ele><time>2026-07-18T22:01:03.000Z</time></trkpt>
        <trkpt lat="29.5738572" lon="103.3948578"><ele>658.79</ele><time>2026-07-18T22:01:19.000Z</time></trkpt>
        <trkpt lat="29.5737776" lon="103.3947993"><ele>659.9</ele><time>2026-07-18T22:01:39.000Z</time></trkpt>
        <trkpt lat="29.5736915" lon="103.3947487"><ele>661.99</ele><time>2026-07-18T22:01:57.000Z</time></trkpt>
        <trkpt lat="29.5736132" lon="103.3946893"><ele>663.56</ele><time>2026-07-18T22:02:11.000Z</time></trkpt>
        <trkpt lat="29.5735601" lon="103.3946007"><ele>665.55</ele><time>2026-07-18T22:02:25.000Z</time></trkpt>
        <trkpt lat="29.5735202" lon="103.3944892"><ele>666.6</ele><time>2026-07-18T22:02:39.000Z</time></trkpt>
        <trkpt lat="29.5734779" lon="103.394382"><ele>666.46</ele><time>2026-07-18T22:02:51.000Z</time></trkpt>
        <trkpt lat="29.5734379" lon="103.3942776"><ele>666.76</ele><time>2026-07-18T22:03:05.000Z</time></trkpt>
        <trkpt lat="29.5734233" lon="103.3941712"><ele>667.45</ele><time>2026-07-18T22:03:19.000Z</time></trkpt>
        <trkpt lat="29.5734169" lon="103.3940583"><ele>668.72</ele><time>2026-07-18T22:03:35.000Z</time></trkpt>
        <trkpt lat="29.5734155" lon="103.39395"><ele>670.44</ele><time>2026-07-18T22:03:51.000Z</time></trkpt>
        <trkpt lat="29.5734307" lon="103.3938438"><ele>671.67</ele><time>2026-07-18T22:04:03.000Z</time></trkpt>
        <trkpt lat="29.5734535" lon="103.3937305"><ele>672.78</ele><time>2026-07-18T22:04:15.000Z</time></trkpt>
        <trkpt lat="29.5734934" lon="103.3936328"><ele>673.58</ele><time>2026-07-18T22:04:27.000Z</time></trkpt>
        <trkpt lat="29.5735591" lon="103.3935547"><ele>672.07</ele><time>2026-07-18T22:04:51.000Z</time></trkpt>
        <trkpt lat="29.5736282" lon="103.393478"><ele>673.18</ele><time>2026-07-18T22:05:09.000Z</time></trkpt>
        <trkpt lat="29.5737111" lon="103.3934208"><ele>676.4</ele><time>2026-07-18T22:05:23.000Z</time></trkpt>
        <trkpt lat="29.5738034" lon="103.3933986"><ele>677.03</ele><time>2026-07-18T22:05:33.000Z</time></trkpt>
        <trkpt lat="29.5738902" lon="103.3933516"><ele>677.52</ele><time>2026-07-18T22:05:45.000Z</time></trkpt>
        <trkpt lat="29.5739573" lon="103.3932737"><ele>677.22</ele><time>2026-07-18T22:05:57.000Z</time></trkpt>
        <trkpt lat="29.5740152" lon="103.3931894"><ele>676.59</ele><time>2026-07-18T22:06:15.000Z</time></trkpt>
        <trkpt lat="29.5740645" lon="103.3930951"><ele>676.5</ele><time>2026-07-18T22:06:37.000Z</time></trkpt>
        <trkpt lat="29.5740952" lon="103.3929905"><ele>675.6</ele><time>2026-07-18T22:08:51.000Z</time></trkpt>
        <trkpt lat="29.5741682" lon="103.3929194"><ele>674.15</ele><time>2026-07-18T22:09:11.000Z</time></trkpt>
        <trkpt lat="29.574224" lon="103.3928282"><ele>675.94</ele><time>2026-07-18T22:09:37.000Z</time></trkpt>
        <trkpt lat="29.5741844" lon="103.3927408"><ele>673.83</ele><time>2026-07-18T22:09:53.000Z</time></trkpt>
        <trkpt lat="29.5741537" lon="103.3926365"><ele>671.55</ele><time>2026-07-18T22:10:11.000Z</time></trkpt>
        <trkpt lat="29.5741138" lon="103.3925295"><ele>667.93</ele><time>2026-07-18T22:10:25.000Z</time></trkpt>
        <trkpt lat="29.5740474" lon="103.3924407"><ele>665.1</ele><time>2026-07-18T22:10:41.000Z</time></trkpt>
        <trkpt lat="29.5740874" lon="103.3924517"><ele>661.97</ele><time>2026-07-18T22:11:19.000Z</time></trkpt>
        <trkpt lat="29.5741684" lon="103.3924324"><ele>660.42</ele><time>2026-07-18T22:11:31.000Z</time></trkpt>
        <trkpt lat="29.5742209" lon="103.3923538"><ele>659.56</ele><time>2026-07-18T22:11:57.000Z</time></trkpt>
        <trkpt lat="29.5741678" lon="103.3922596"><ele>656.13</ele><time>2026-07-18T22:13:09.000Z</time></trkpt>
        <trkpt lat="29.5741522" lon="103.392152"><ele>652.59</ele><time>2026-07-18T22:13:25.000Z</time></trkpt>
        <trkpt lat="29.5741049" lon="103.3920556"><ele>654.96</ele><time>2026-07-18T22:14:05.000Z</time></trkpt>
        <trkpt lat="29.5741157" lon="103.3921648"><ele>655.53</ele><time>2026-07-18T22:15:45.000Z</time></trkpt>
        <trkpt lat="29.5741787" lon="103.3922616"><ele>654.9</ele><time>2026-07-18T22:15:49.000Z</time></trkpt>
        <trkpt lat="29.5742792" lon="103.3922355"><ele>653.16</ele><time>2026-07-18T22:16:01.000Z</time></trkpt>
        <trkpt lat="29.574376" lon="103.3922123"><ele>651.8</ele><time>2026-07-18T22:16:19.000Z</time></trkpt>
        <trkpt lat="29.5744905" lon="103.3921641"><ele>652.53</ele><time>2026-07-18T22:19:09.000Z</time></trkpt>
        <trkpt lat="29.5745912" lon="103.3921529"><ele>655.85</ele><time>2026-07-18T22:19:17.000Z</time></trkpt>
        <trkpt lat="29.5746823" lon="103.3921681"><ele>658.51</ele><time>2026-07-18T22:19:35.000Z</time></trkpt>
        <trkpt lat="29.5747732" lon="103.3921694"><ele>662.38</ele><time>2026-07-18T22:20:11.000Z</time></trkpt>
        <trkpt lat="29.5748642" lon="103.3921389"><ele>664.18</ele><time>2026-07-18T22:20:45.000Z</time></trkpt>
        <trkpt lat="29.5749529" lon="103.3920784"><ele>665.68</ele><time>2026-07-18T22:21:17.000Z</time></trkpt>
        <trkpt lat="29.5750497" lon="103.3920235"><ele>669.5</ele><time>2026-07-18T22:22:05.000Z</time></trkpt>
        <trkpt lat="29.5751459" lon="103.3919996"><ele>671.51</ele><time>2026-07-18T22:22:17.000Z</time></trkpt>
        <trkpt lat="29.575234" lon="103.3919674"><ele>673.45</ele><time>2026-07-18T22:22:49.000Z</time></trkpt>
        <trkpt lat="29.5753235" lon="103.3919432"><ele>676.52</ele><time>2026-07-18T22:23:15.000Z</time></trkpt>
        <trkpt lat="29.5754057" lon="103.3918972"><ele>678.88</ele><time>2026-07-18T22:23:51.000Z</time></trkpt>
        <trkpt lat="29.5754947" lon="103.3919125"><ele>681.94</ele><time>2026-07-18T22:24:49.000Z</time></trkpt>
        <trkpt lat="29.5755852" lon="103.3919346"><ele>688.81</ele><time>2026-07-18T22:25:17.000Z</time></trkpt>
        <trkpt lat="29.5756817" lon="103.3919587"><ele>693.76</ele><time>2026-07-18T22:25:57.000Z</time></trkpt>
        <trkpt lat="29.5757747" lon="103.3919672"><ele>698.59</ele><time>2026-07-18T22:26:23.000Z</time></trkpt>
        <trkpt lat="29.5758606" lon="103.3919324"><ele>702.58</ele><time>2026-07-18T22:27:03.000Z</time></trkpt>
        <trkpt lat="29.5759577" lon="103.3919498"><ele>705.87</ele><time>2026-07-18T22:27:25.000Z</time></trkpt>
        <trkpt lat="29.5760577" lon="103.3919768"><ele>708.96</ele><time>2026-07-18T22:27:49.000Z</time></trkpt>
        <trkpt lat="29.5761476" lon="103.3920119"><ele>712.01</ele><time>2026-07-18T22:29:35.000Z</time></trkpt>
        <trkpt lat="29.5762586" lon="103.3920096"><ele>715.78</ele><time>2026-07-18T22:29:57.000Z</time></trkpt>
        <trkpt lat="29.5763598" lon="103.3920188"><ele>719.86</ele><time>2026-07-18T22:30:35.000Z</time></trkpt>
        <trkpt lat="29.5764624" lon="103.3920042"><ele>721.35</ele><time>2026-07-18T22:30:49.000Z</time></trkpt>
        <trkpt lat="29.5765612" lon="103.3919803"><ele>723.41</ele><time>2026-07-18T22:30:59.000Z</time></trkpt>
        <trkpt lat="29.5766529" lon="103.3919425"><ele>725.92</ele><time>2026-07-18T22:31:29.000Z</time></trkpt>
        <trkpt lat="29.5767367" lon="103.3918764"><ele>725.43</ele><time>2026-07-18T22:31:35.000Z</time></trkpt>
        <trkpt lat="29.5768045" lon="103.3917982"><ele>725.31</ele><time>2026-07-18T22:31:47.000Z</time></trkpt>
        <trkpt lat="29.5768637" lon="103.3917122"><ele>727.18</ele><time>2026-07-18T22:32:03.000Z</time></trkpt>
        <trkpt lat="29.5769018" lon="103.3916069"><ele>728.39</ele><time>2026-07-18T22:32:19.000Z</time></trkpt>
        <trkpt lat="29.5769396" lon="103.3915013"><ele>728.52</ele><time>2026-07-18T22:32:37.000Z</time></trkpt>
        <trkpt lat="29.5770032" lon="103.3914268"><ele>728.7</ele><time>2026-07-18T22:32:51.000Z</time></trkpt>
        <trkpt lat="29.5770399" lon="103.3913334"><ele>729.82</ele><time>2026-07-18T22:33:15.000Z</time></trkpt>
        <trkpt lat="29.5770748" lon="103.3912349"><ele>732.72</ele><time>2026-07-18T22:33:35.000Z</time></trkpt>
        <trkpt lat="29.5771075" lon="103.3911346"><ele>735.64</ele><time>2026-07-18T22:33:51.000Z</time></trkpt>
        <trkpt lat="29.5771476" lon="103.3910378"><ele>735.77</ele><time>2026-07-18T22:34:13.000Z</time></trkpt>
        <trkpt lat="29.5772041" lon="103.390957"><ele>737.37</ele><time>2026-07-18T22:34:27.000Z</time></trkpt>
        <trkpt lat="29.5772875" lon="103.3909676"><ele>738.76</ele><time>2026-07-18T22:34:43.000Z</time></trkpt>
        <trkpt lat="29.5773868" lon="103.3909964"><ele>740.32</ele><time>2026-07-18T22:35:13.000Z</time></trkpt>
        <trkpt lat="29.5774777" lon="103.3910429"><ele>743.55</ele><time>2026-07-18T22:35:37.000Z</time></trkpt>
        <trkpt lat="29.5775778" lon="103.3910821"><ele>744.77</ele><time>2026-07-18T22:35:59.000Z</time></trkpt>
        <trkpt lat="29.5776674" lon="103.3911244"><ele>747.08</ele><time>2026-07-18T22:36:23.000Z</time></trkpt>
        <trkpt lat="29.5777562" lon="103.3911248"><ele>750.26</ele><time>2026-07-18T22:37:01.000Z</time></trkpt>
        <trkpt lat="29.5778451" lon="103.3911584"><ele>755.1</ele><time>2026-07-18T22:37:41.000Z</time></trkpt>
        <trkpt lat="29.5779323" lon="103.3910976"><ele>757.28</ele><time>2026-07-18T22:38:41.000Z</time></trkpt>
        <trkpt lat="29.577996" lon="103.3909894"><ele>757.93</ele><time>2026-07-18T22:38:47.000Z</time></trkpt>
        <trkpt lat="29.5780535" lon="103.3908788"><ele>758.78</ele><time>2026-07-18T22:38:57.000Z</time></trkpt>
        <trkpt lat="29.5780917" lon="103.3907673"><ele>760.43</ele><time>2026-07-18T22:39:11.000Z</time></trkpt>
        <trkpt lat="29.5781562" lon="103.3906526"><ele>763.01</ele><time>2026-07-18T22:39:53.000Z</time></trkpt>
        <trkpt lat="29.5782038" lon="103.3905442"><ele>765.51</ele><time>2026-07-18T22:39:59.000Z</time></trkpt>
        <trkpt lat="29.5782429" lon="103.3904439"><ele>766.93</ele><time>2026-07-18T22:40:09.000Z</time></trkpt>
        <trkpt lat="29.5782986" lon="103.3903484"><ele>767.29</ele><time>2026-07-18T22:40:23.000Z</time></trkpt>
        <trkpt lat="29.5783603" lon="103.3902696"><ele>767.21</ele><time>2026-07-18T22:40:37.000Z</time></trkpt>
        <trkpt lat="29.5783926" lon="103.390175"><ele>768.5</ele><time>2026-07-18T22:40:51.000Z</time></trkpt>
        <trkpt lat="29.5784254" lon="103.3900798"><ele>770.16</ele><time>2026-07-18T22:41:11.000Z</time></trkpt>
        <trkpt lat="29.5784269" lon="103.3899768"><ele>769.3</ele><time>2026-07-18T22:41:25.000Z</time></trkpt>
        <trkpt lat="29.578465" lon="103.3898847"><ele>769.29</ele><time>2026-07-18T22:42:21.000Z</time></trkpt>
        <trkpt lat="29.5785099" lon="103.3897846"><ele>767.41</ele><time>2026-07-18T22:43:07.000Z</time></trkpt>
        <trkpt lat="29.5785439" lon="103.389684"><ele>767.07</ele><time>2026-07-18T22:43:45.000Z</time></trkpt>
        <trkpt lat="29.5785464" lon="103.3895672"><ele>769.25</ele><time>2026-07-18T22:44:01.000Z</time></trkpt>
        <trkpt lat="29.5785247" lon="103.3894558"><ele>770.11</ele><time>2026-07-18T22:44:15.000Z</time></trkpt>
        <trkpt lat="29.5784683" lon="103.389351"><ele>772.85</ele><time>2026-07-18T22:44:45.000Z</time></trkpt>
        <trkpt lat="29.5784042" lon="103.389253"><ele>773.2</ele><time>2026-07-18T22:44:53.000Z</time></trkpt>
        <trkpt lat="29.5783628" lon="103.3891419"><ele>773.94</ele><time>2026-07-18T22:45:31.000Z</time></trkpt>
        <trkpt lat="29.5784286" lon="103.3890908"><ele>775.12</ele><time>2026-07-18T22:46:17.000Z</time></trkpt>
        <trkpt lat="29.578513" lon="103.3891307"><ele>776.61</ele><time>2026-07-18T22:46:35.000Z</time></trkpt>
        <trkpt lat="29.5785746" lon="103.3892299"><ele>777.56</ele><time>2026-07-18T22:46:47.000Z</time></trkpt>
        <trkpt lat="29.5786426" lon="103.3891985"><ele>778.59</ele><time>2026-07-18T22:46:57.000Z</time></trkpt>
        <trkpt lat="29.5787211" lon="103.3891249"><ele>777.81</ele><time>2026-07-18T22:47:05.000Z</time></trkpt>
        <trkpt lat="29.5787576" lon="103.3891742"><ele>778.44</ele><time>2026-07-18T22:47:23.000Z</time></trkpt>
        <trkpt lat="29.5788205" lon="103.3892412"><ele>776.49</ele><time>2026-07-18T22:47:51.000Z</time></trkpt>
        <trkpt lat="29.5788886" lon="103.389321"><ele>779.65</ele><time>2026-07-18T22:48:09.000Z</time></trkpt>
        <trkpt lat="29.5788526" lon="103.3892961"><ele>781.11</ele><time>2026-07-18T22:48:29.000Z</time></trkpt>
        <trkpt lat="29.5787858" lon="103.3892114"><ele>773.45</ele><time>2026-07-18T22:48:43.000Z</time></trkpt>
        <trkpt lat="29.578691" lon="103.3891497"><ele>774.29</ele><time>2026-07-18T22:48:53.000Z</time></trkpt>
        <trkpt lat="29.5785983" lon="103.3890943"><ele>775.67</ele><time>2026-07-18T22:49:07.000Z</time></trkpt>
        <trkpt lat="29.5784996" lon="103.3890437"><ele>776.5</ele><time>2026-07-18T22:49:21.000Z</time></trkpt>
        <trkpt lat="29.5784174" lon="103.3889837"><ele>777.72</ele><time>2026-07-18T22:49:35.000Z</time></trkpt>
        <trkpt lat="29.5784367" lon="103.3888923"><ele>776.91</ele><time>2026-07-18T22:49:59.000Z</time></trkpt>
        <trkpt lat="29.5785222" lon="103.3888321"><ele>773.57</ele><time>2026-07-18T22:50:17.000Z</time></trkpt>
        <trkpt lat="29.5786267" lon="103.3888171"><ele>771.92</ele><time>2026-07-18T22:50:29.000Z</time></trkpt>
        <trkpt lat="29.5787393" lon="103.3888304"><ele>772.04</ele><time>2026-07-18T22:50:43.000Z</time></trkpt>
        <trkpt lat="29.5788334" lon="103.3888013"><ele>773.51</ele><time>2026-07-18T22:50:53.000Z</time></trkpt>
        <trkpt lat="29.5789144" lon="103.3887355"><ele>773.27</ele><time>2026-07-18T22:51:05.000Z</time></trkpt>
        <trkpt lat="29.5789998" lon="103.3886793"><ele>773.72</ele><time>2026-07-18T22:51:23.000Z</time></trkpt>
        <trkpt lat="29.5790533" lon="103.3885838"><ele>772.78</ele><time>2026-07-18T22:51:43.000Z</time></trkpt>
        <trkpt lat="29.5791062" lon="103.3884833"><ele>772.06</ele><time>2026-07-18T22:52:15.000Z</time></trkpt>
        <trkpt lat="29.5791153" lon="103.3883765"><ele>773.53</ele><time>2026-07-18T22:52:25.000Z</time></trkpt>
        <trkpt lat="29.5790654" lon="103.3882888"><ele>775.25</ele><time>2026-07-18T22:52:37.000Z</time></trkpt>
        <trkpt lat="29.5790639" lon="103.3881898"><ele>779.01</ele><time>2026-07-18T22:53:11.000Z</time></trkpt>
        <trkpt lat="29.579053" lon="103.3880808"><ele>782.85</ele><time>2026-07-18T22:53:41.000Z</time></trkpt>
        <trkpt lat="29.5790284" lon="103.3879698"><ele>786.44</ele><time>2026-07-18T22:54:01.000Z</time></trkpt>
        <trkpt lat="29.5790105" lon="103.3878539"><ele>787.26</ele><time>2026-07-18T22:54:29.000Z</time></trkpt>
        <trkpt lat="29.5789997" lon="103.3877349"><ele>787.8</ele><time>2026-07-18T22:54:45.000Z</time></trkpt>
        <trkpt lat="29.5790047" lon="103.3876269"><ele>790.23</ele><time>2026-07-18T22:54:59.000Z</time></trkpt>
        <trkpt lat="29.5790091" lon="103.3875176"><ele>792.05</ele><time>2026-07-18T22:55:09.000Z</time></trkpt>
        <trkpt lat="29.5790012" lon="103.3874012"><ele>792.31</ele><time>2026-07-18T22:55:23.000Z</time></trkpt>
        <trkpt lat="29.5790041" lon="103.387283"><ele>792.26</ele><time>2026-07-18T22:55:35.000Z</time></trkpt>
        <trkpt lat="29.5790237" lon="103.3871758"><ele>793.51</ele><time>2026-07-18T22:55:45.000Z</time></trkpt>
        <trkpt lat="29.5790674" lon="103.3870836"><ele>795.53</ele><time>2026-07-18T22:55:59.000Z</time></trkpt>
        <trkpt lat="29.5791291" lon="103.387003"><ele>797.25</ele><time>2026-07-18T22:56:23.000Z</time></trkpt>
        <trkpt lat="29.5791965" lon="103.3869282"><ele>794.48</ele><time>2026-07-18T22:57:07.000Z</time></trkpt>
        <trkpt lat="29.5792572" lon="103.3868495"><ele>793.66</ele><time>2026-07-18T22:57:31.000Z</time></trkpt>
        <trkpt lat="29.5793322" lon="103.3867795"><ele>794.64</ele><time>2026-07-18T22:58:21.000Z</time></trkpt>
        <trkpt lat="29.5793834" lon="103.3866902"><ele>799.36</ele><time>2026-07-18T22:58:47.000Z</time></trkpt>
        <trkpt lat="29.579421" lon="103.3865905"><ele>803.56</ele><time>2026-07-18T22:59:13.000Z</time></trkpt>
        <trkpt lat="29.5794652" lon="103.3864855"><ele>808.66</ele><time>2026-07-18T22:59:33.000Z</time></trkpt>
        <trkpt lat="29.5794645" lon="103.3863758"><ele>811.85</ele><time>2026-07-18T23:00:03.000Z</time></trkpt>
        <trkpt lat="29.5794744" lon="103.3862659"><ele>817.62</ele><time>2026-07-18T23:00:21.000Z</time></trkpt>
        <trkpt lat="29.57949" lon="103.3861574"><ele>822.18</ele><time>2026-07-18T23:00:43.000Z</time></trkpt>
        <trkpt lat="29.5795134" lon="103.386054"><ele>824.51</ele><time>2026-07-18T23:01:21.000Z</time></trkpt>
        <trkpt lat="29.5795073" lon="103.3859366"><ele>825.99</ele><time>2026-07-18T23:01:43.000Z</time></trkpt>
        <trkpt lat="29.5795444" lon="103.3858359"><ele>829.33</ele><time>2026-07-18T23:02:39.000Z</time></trkpt>
        <trkpt lat="29.5796006" lon="103.38575"><ele>829.68</ele><time>2026-07-18T23:02:55.000Z</time></trkpt>
        <trkpt lat="29.5796703" lon="103.3856784"><ele>829.54</ele><time>2026-07-18T23:03:31.000Z</time></trkpt>
        <trkpt lat="29.5797237" lon="103.3855939"><ele>832.23</ele><time>2026-07-18T23:04:03.000Z</time></trkpt>
        <trkpt lat="29.5798059" lon="103.3855482"><ele>837.44</ele><time>2026-07-18T23:04:35.000Z</time></trkpt>
        <trkpt lat="29.5798634" lon="103.3854716"><ele>839.46</ele><time>2026-07-18T23:05:01.000Z</time></trkpt>
        <trkpt lat="29.5799084" lon="103.3853817"><ele>843.58</ele><time>2026-07-18T23:05:29.000Z</time></trkpt>
        <trkpt lat="29.5799872" lon="103.3853507"><ele>848</ele><time>2026-07-18T23:05:59.000Z</time></trkpt>
        <trkpt lat="29.5800722" lon="103.385314"><ele>852.39</ele><time>2026-07-18T23:06:27.000Z</time></trkpt>
        <trkpt lat="29.5801505" lon="103.3852559"><ele>857.06</ele><time>2026-07-18T23:06:47.000Z</time></trkpt>
        <trkpt lat="29.5802129" lon="103.3851705"><ele>862.23</ele><time>2026-07-18T23:06:57.000Z</time></trkpt>
        <trkpt lat="29.5802689" lon="103.3850819"><ele>865.55</ele><time>2026-07-18T23:07:07.000Z</time></trkpt>
        <trkpt lat="29.5803247" lon="103.3849935"><ele>868.41</ele><time>2026-07-18T23:07:19.000Z</time></trkpt>
        <trkpt lat="29.5803893" lon="103.3849131"><ele>870.38</ele><time>2026-07-18T23:07:37.000Z</time></trkpt>
        <trkpt lat="29.5804433" lon="103.3848264"><ele>871.72</ele><time>2026-07-18T23:07:53.000Z</time></trkpt>
        <trkpt lat="29.5804999" lon="103.3847381"><ele>873.71</ele><time>2026-07-18T23:08:13.000Z</time></trkpt>
        <trkpt lat="29.5805622" lon="103.3846592"><ele>876.04</ele><time>2026-07-18T23:08:35.000Z</time></trkpt>
        <trkpt lat="29.5806014" lon="103.3845634"><ele>877.41</ele><time>2026-07-18T23:08:53.000Z</time></trkpt>
        <trkpt lat="29.5806557" lon="103.3844719"><ele>879.37</ele><time>2026-07-18T23:09:27.000Z</time></trkpt>
        <trkpt lat="29.5807392" lon="103.3844164"><ele>881.79</ele><time>2026-07-18T23:10:03.000Z</time></trkpt>
        <trkpt lat="29.5808133" lon="103.3843505"><ele>881.89</ele><time>2026-07-18T23:10:35.000Z</time></trkpt>
        <trkpt lat="29.5808887" lon="103.3842885"><ele>883.44</ele><time>2026-07-18T23:11:05.000Z</time></trkpt>
        <trkpt lat="29.5809759" lon="103.3842655"><ele>885.24</ele><time>2026-07-18T23:11:45.000Z</time></trkpt>
        <trkpt lat="29.5810637" lon="103.3842886"><ele>888.45</ele><time>2026-07-18T23:12:41.000Z</time></trkpt>
        <trkpt lat="29.5811556" lon="103.3843078"><ele>899.43</ele><time>2026-07-18T23:13:19.000Z</time></trkpt>
        <trkpt lat="29.5812481" lon="103.3843167"><ele>907.08</ele><time>2026-07-18T23:13:58.000Z</time></trkpt>
        <trkpt lat="29.5813456" lon="103.3843406"><ele>914.75</ele><time>2026-07-18T23:15:26.000Z</time></trkpt>
        <trkpt lat="29.5814469" lon="103.384398"><ele>918.67</ele><time>2026-07-18T23:15:56.000Z</time></trkpt>
        <trkpt lat="29.5815411" lon="103.3843975"><ele>922.9</ele><time>2026-07-18T23:16:04.000Z</time></trkpt>
        <trkpt lat="29.5816357" lon="103.3843545"><ele>924.5</ele><time>2026-07-18T23:16:16.000Z</time></trkpt>
        <trkpt lat="29.5816552" lon="103.3842597"><ele>925.52</ele><time>2026-07-18T23:16:28.000Z</time></trkpt>
        <trkpt lat="29.5815939" lon="103.3841728"><ele>923.81</ele><time>2026-07-18T23:17:04.000Z</time></trkpt>
        <trkpt lat="29.5815436" lon="103.3840717"><ele>924.42</ele><time>2026-07-18T23:17:42.000Z</time></trkpt>
        <trkpt lat="29.5815346" lon="103.3839655"><ele>928.1</ele><time>2026-07-18T23:18:04.000Z</time></trkpt>
        <trkpt lat="29.581487" lon="103.3838567"><ele>930.41</ele><time>2026-07-18T23:18:34.000Z</time></trkpt>
        <trkpt lat="29.5814613" lon="103.3837493"><ele>932.1</ele><time>2026-07-18T23:18:46.000Z</time></trkpt>
        <trkpt lat="29.5815508" lon="103.3837756"><ele>935.39</ele><time>2026-07-18T23:21:58.000Z</time></trkpt>
        <trkpt lat="29.5816079" lon="103.3836673"><ele>940.25</ele><time>2026-07-18T23:22:08.000Z</time></trkpt>
        <trkpt lat="29.5816596" lon="103.3835663"><ele>940.94</ele><time>2026-07-18T23:22:20.000Z</time></trkpt>
        <trkpt lat="29.5817257" lon="103.3834865"><ele>938.75</ele><time>2026-07-18T23:22:30.000Z</time></trkpt>
        <trkpt lat="29.5817984" lon="103.3834173"><ele>936.91</ele><time>2026-07-18T23:22:40.000Z</time></trkpt>
        <trkpt lat="29.5818605" lon="103.3833398"><ele>935.8</ele><time>2026-07-18T23:22:50.000Z</time></trkpt>
        <trkpt lat="29.5819292" lon="103.3832724"><ele>935.58</ele><time>2026-07-18T23:23:02.000Z</time></trkpt>
        <trkpt lat="29.5819551" lon="103.3831758"><ele>936.11</ele><time>2026-07-18T23:23:18.000Z</time></trkpt>
        <trkpt lat="29.5819469" lon="103.3830684"><ele>937.85</ele><time>2026-07-18T23:23:38.000Z</time></trkpt>
        <trkpt lat="29.5819181" lon="103.3829574"><ele>938.63</ele><time>2026-07-18T23:24:06.000Z</time></trkpt>
        <trkpt lat="29.5818958" lon="103.3828497"><ele>941.52</ele><time>2026-07-18T23:24:26.000Z</time></trkpt>
        <trkpt lat="29.581934" lon="103.3827335"><ele>945.01</ele><time>2026-07-18T23:24:50.000Z</time></trkpt>
        <trkpt lat="29.5819861" lon="103.3825484"><ele>946.87</ele><time>2026-07-18T23:25:36.000Z</time></trkpt>
        <trkpt lat="29.5820444" lon="103.382425"><ele>948.3</ele><time>2026-07-18T23:25:44.000Z</time></trkpt>
        <trkpt lat="29.5821003" lon="103.3823298"><ele>949.77</ele><time>2026-07-18T23:25:52.000Z</time></trkpt>
        <trkpt lat="29.5821258" lon="103.3822328"><ele>951.55</ele><time>2026-07-18T23:26:10.000Z</time></trkpt>
        <trkpt lat="29.5821595" lon="103.3821389"><ele>952.06</ele><time>2026-07-18T23:26:22.000Z</time></trkpt>
        <trkpt lat="29.5822342" lon="103.3820143"><ele>951.71</ele><time>2026-07-18T23:27:12.000Z</time></trkpt>
        <trkpt lat="29.5822926" lon="103.3819108"><ele>950.04</ele><time>2026-07-18T23:27:16.000Z</time></trkpt>
        <trkpt lat="29.5823587" lon="103.3818161"><ele>948.69</ele><time>2026-07-18T23:27:24.000Z</time></trkpt>
        <trkpt lat="29.5824124" lon="103.3817251"><ele>949.65</ele><time>2026-07-18T23:27:36.000Z</time></trkpt>
        <trkpt lat="29.5824795" lon="103.381653"><ele>949.63</ele><time>2026-07-18T23:27:52.000Z</time></trkpt>
        <trkpt lat="29.5825353" lon="103.3815574"><ele>952.78</ele><time>2026-07-18T23:28:06.000Z</time></trkpt>
        <trkpt lat="29.5825944" lon="103.3814663"><ele>954.63</ele><time>2026-07-18T23:28:16.000Z</time></trkpt>
        <trkpt lat="29.5826492" lon="103.381375"><ele>956.56</ele><time>2026-07-18T23:28:26.000Z</time></trkpt>
        <trkpt lat="29.582711" lon="103.3812805"><ele>957.78</ele><time>2026-07-18T23:28:36.000Z</time></trkpt>
        <trkpt lat="29.5827739" lon="103.3811946"><ele>957.9</ele><time>2026-07-18T23:28:46.000Z</time></trkpt>
        <trkpt lat="29.5828199" lon="103.3810993"><ele>958.44</ele><time>2026-07-18T23:28:56.000Z</time></trkpt>
        <trkpt lat="29.5828028" lon="103.3809992"><ele>958.15</ele><time>2026-07-18T23:29:04.000Z</time></trkpt>
        <trkpt lat="29.5827749" lon="103.3808973"><ele>957.61</ele><time>2026-07-18T23:29:12.000Z</time></trkpt>
        <trkpt lat="29.5827792" lon="103.3807875"><ele>957.41</ele><time>2026-07-18T23:29:22.000Z</time></trkpt>
        <trkpt lat="29.5828" lon="103.3806775"><ele>958.09</ele><time>2026-07-18T23:29:32.000Z</time></trkpt>
        <trkpt lat="29.5828341" lon="103.3805651"><ele>958.49</ele><time>2026-07-18T23:29:42.000Z</time></trkpt>
        <trkpt lat="29.582889" lon="103.3804623"><ele>958.83</ele><time>2026-07-18T23:29:52.000Z</time></trkpt>
        <trkpt lat="29.5829397" lon="103.3803544"><ele>959.49</ele><time>2026-07-18T23:30:02.000Z</time></trkpt>
        <trkpt lat="29.5829928" lon="103.3802467"><ele>959.29</ele><time>2026-07-18T23:30:12.000Z</time></trkpt>
        <trkpt lat="29.583038" lon="103.3801475"><ele>957.63</ele><time>2026-07-18T23:30:22.000Z</time></trkpt>
        <trkpt lat="29.5830814" lon="103.3800534"><ele>957.03</ele><time>2026-07-18T23:30:32.000Z</time></trkpt>
        <trkpt lat="29.5831161" lon="103.3799536"><ele>958.26</ele><time>2026-07-18T23:30:44.000Z</time></trkpt>
        <trkpt lat="29.583097" lon="103.3798559"><ele>958.7</ele><time>2026-07-18T23:30:56.000Z</time></trkpt>
        <trkpt lat="29.5830485" lon="103.3797574"><ele>961.08</ele><time>2026-07-18T23:31:16.000Z</time></trkpt>
        <trkpt lat="29.5829995" lon="103.3796593"><ele>963.06</ele><time>2026-07-18T23:31:36.000Z</time></trkpt>
        <trkpt lat="29.5830026" lon="103.3795577"><ele>965.62</ele><time>2026-07-18T23:32:12.000Z</time></trkpt>
        <trkpt lat="29.5829845" lon="103.3794576"><ele>967.56</ele><time>2026-07-18T23:32:40.000Z</time></trkpt>
        <trkpt lat="29.5829138" lon="103.3794595"><ele>971.34</ele><time>2026-07-18T23:32:50.000Z</time></trkpt>
        <trkpt lat="29.5828208" lon="103.3795044"><ele>973.88</ele><time>2026-07-18T23:33:02.000Z</time></trkpt>
        <trkpt lat="29.5827212" lon="103.3795521"><ele>975.9</ele><time>2026-07-18T23:33:16.000Z</time></trkpt>
        <trkpt lat="29.5826973" lon="103.3794866"><ele>976.26</ele><time>2026-07-18T23:33:36.000Z</time></trkpt>
        <trkpt lat="29.582752" lon="103.3793436"><ele>977.7</ele><time>2026-07-18T23:35:16.000Z</time></trkpt>
        <trkpt lat="29.5828331" lon="103.3792856"><ele>979.92</ele><time>2026-07-18T23:35:36.000Z</time></trkpt>
        <trkpt lat="29.5829242" lon="103.3792609"><ele>980.31</ele><time>2026-07-18T23:36:42.000Z</time></trkpt>
        <trkpt lat="29.5830038" lon="103.3792027"><ele>983.13</ele><time>2026-07-18T23:37:14.000Z</time></trkpt>
        <trkpt lat="29.5830487" lon="103.3791126"><ele>984.07</ele><time>2026-07-18T23:37:30.000Z</time></trkpt>
        <trkpt lat="29.5830705" lon="103.3790057"><ele>985.83</ele><time>2026-07-18T23:37:43.000Z</time></trkpt>
        <trkpt lat="29.5830881" lon="103.3788975"><ele>986.81</ele><time>2026-07-18T23:38:04.000Z</time></trkpt>
        <trkpt lat="29.5830521" lon="103.3787981"><ele>986.55</ele><time>2026-07-18T23:38:47.000Z</time></trkpt>
        <trkpt lat="29.583001" lon="103.3786961"><ele>988.23</ele><time>2026-07-18T23:39:25.000Z</time></trkpt>
        <trkpt lat="29.582941" lon="103.3786084"><ele>989.72</ele><time>2026-07-18T23:39:55.000Z</time></trkpt>
        <trkpt lat="29.5828668" lon="103.3785432"><ele>991.35</ele><time>2026-07-18T23:40:47.000Z</time></trkpt>
        <trkpt lat="29.5827755" lon="103.3784957"><ele>996.15</ele><time>2026-07-18T23:41:01.000Z</time></trkpt>
        <trkpt lat="29.5827068" lon="103.3784203"><ele>1000.5</ele><time>2026-07-18T23:41:29.000Z</time></trkpt>
        <trkpt lat="29.5826288" lon="103.378349"><ele>1005.05</ele><time>2026-07-18T23:41:43.000Z</time></trkpt>
        <trkpt lat="29.5825424" lon="103.3782953"><ele>1009.76</ele><time>2026-07-18T23:42:11.000Z</time></trkpt>
        <trkpt lat="29.5824504" lon="103.378276"><ele>1011.3</ele><time>2026-07-18T23:42:53.000Z</time></trkpt>
        <trkpt lat="29.5824388" lon="103.3781976"><ele>1015.62</ele><time>2026-07-18T23:43:25.000Z</time></trkpt>
        <trkpt lat="29.5824544" lon="103.3780954"><ele>1017.02</ele><time>2026-07-18T23:43:53.000Z</time></trkpt>
        <trkpt lat="29.5824482" lon="103.3779841"><ele>1019.6</ele><time>2026-07-18T23:44:19.000Z</time></trkpt>
        <trkpt lat="29.582441" lon="103.3778611"><ele>1024.59</ele><time>2026-07-18T23:44:37.000Z</time></trkpt>
        <trkpt lat="29.5824228" lon="103.3777508"><ele>1027.08</ele><time>2026-07-18T23:45:01.000Z</time></trkpt>
        <trkpt lat="29.5824022" lon="103.3776418"><ele>1030.31</ele><time>2026-07-18T23:45:23.000Z</time></trkpt>
        <trkpt lat="29.5824397" lon="103.3775485"><ele>1032.42</ele><time>2026-07-18T23:46:07.000Z</time></trkpt>
        <trkpt lat="29.582503" lon="103.3774652"><ele>1037.54</ele><time>2026-07-18T23:46:55.000Z</time></trkpt>
        <trkpt lat="29.5824998" lon="103.3773707"><ele>1042.99</ele><time>2026-07-18T23:47:09.000Z</time></trkpt>
        <trkpt lat="29.5824289" lon="103.3773192"><ele>1045.51</ele><time>2026-07-18T23:47:39.000Z</time></trkpt>
        <trkpt lat="29.5823414" lon="103.3772473"><ele>1044.85</ele><time>2026-07-18T23:48:13.000Z</time></trkpt>
        <trkpt lat="29.5823" lon="103.3771469"><ele>1047.44</ele><time>2026-07-18T23:49:27.000Z</time></trkpt>
        <trkpt lat="29.5822088" lon="103.3771292"><ele>1051.48</ele><time>2026-07-18T23:49:47.000Z</time></trkpt>
        <trkpt lat="29.5821501" lon="103.3770437"><ele>1054.22</ele><time>2026-07-18T23:51:21.000Z</time></trkpt>
        <trkpt lat="29.5821789" lon="103.3769421"><ele>1061.13</ele><time>2026-07-18T23:51:57.000Z</time></trkpt>
        <trkpt lat="29.5822111" lon="103.3768435"><ele>1066.31</ele><time>2026-07-18T23:52:17.000Z</time></trkpt>
        <trkpt lat="29.5821914" lon="103.3767414"><ele>1069.21</ele><time>2026-07-18T23:53:03.000Z</time></trkpt>
        <trkpt lat="29.5821136" lon="103.3767065"><ele>1074.74</ele><time>2026-07-18T23:53:17.000Z</time></trkpt>
        <trkpt lat="29.58211" lon="103.3766177"><ele>1078.47</ele><time>2026-07-18T23:54:25.000Z</time></trkpt>
        <trkpt lat="29.5820569" lon="103.3765292"><ele>1081.94</ele><time>2026-07-18T23:55:15.000Z</time></trkpt>
        <trkpt lat="29.5819735" lon="103.3764956"><ele>1088.7</ele><time>2026-07-18T23:55:39.000Z</time></trkpt>
        <trkpt lat="29.5818857" lon="103.3764714"><ele>1094.18</ele><time>2026-07-18T23:56:19.000Z</time></trkpt>
        <trkpt lat="29.5817867" lon="103.3764827"><ele>1099.08</ele><time>2026-07-18T23:57:27.000Z</time></trkpt>
        <trkpt lat="29.5818569" lon="103.3764103"><ele>1104.46</ele><time>2026-07-18T23:58:03.000Z</time></trkpt>
        <trkpt lat="29.5818806" lon="103.3763115"><ele>1110.24</ele><time>2026-07-18T23:58:35.000Z</time></trkpt>
        <trkpt lat="29.5818767" lon="103.3762036"><ele>1114.69</ele><time>2026-07-18T23:59:09.000Z</time></trkpt>
        <trkpt lat="29.5817991" lon="103.376184"><ele>1119.3</ele><time>2026-07-18T23:59:29.000Z</time></trkpt>
        <trkpt lat="29.5817007" lon="103.3762083"><ele>1123.99</ele><time>2026-07-18T23:59:55.000Z</time></trkpt>
        <trkpt lat="29.5816048" lon="103.3762613"><ele>1126.54</ele><time>2026-07-19T00:00:49.000Z</time></trkpt>
        <trkpt lat="29.5815071" lon="103.3762851"><ele>1130.85</ele><time>2026-07-19T00:01:33.000Z</time></trkpt>
        <trkpt lat="29.5814121" lon="103.3763015"><ele>1133.86</ele><time>2026-07-19T00:02:09.000Z</time></trkpt>
        <trkpt lat="29.581328" lon="103.3763445"><ele>1136.88</ele><time>2026-07-19T00:02:57.000Z</time></trkpt>
        <trkpt lat="29.5812554" lon="103.3764141"><ele>1141.75</ele><time>2026-07-19T00:03:41.000Z</time></trkpt>
        <trkpt lat="29.5811684" lon="103.3764729"><ele>1152.05</ele><time>2026-07-19T00:04:55.000Z</time></trkpt>
        <trkpt lat="29.581136" lon="103.3765718"><ele>1159.44</ele><time>2026-07-19T00:05:17.000Z</time></trkpt>
        <trkpt lat="29.5810961" lon="103.3765055"><ele>1166.47</ele><time>2026-07-19T00:05:29.000Z</time></trkpt>
        <trkpt lat="29.5809939" lon="103.3764517"><ele>1167.38</ele><time>2026-07-19T00:06:35.000Z</time></trkpt>
        <trkpt lat="29.5809289" lon="103.3763764"><ele>1171.4</ele><time>2026-07-19T00:06:57.000Z</time></trkpt>
        <trkpt lat="29.580984" lon="103.3763111"><ele>1175.06</ele><time>2026-07-19T00:07:49.000Z</time></trkpt>
        <trkpt lat="29.5810193" lon="103.3762161"><ele>1179.66</ele><time>2026-07-19T00:08:39.000Z</time></trkpt>
        <trkpt lat="29.5809635" lon="103.3761808"><ele>1184.15</ele><time>2026-07-19T00:09:19.000Z</time></trkpt>
        <trkpt lat="29.5808697" lon="103.3761831"><ele>1190.42</ele><time>2026-07-19T00:10:03.000Z</time></trkpt>
        <trkpt lat="29.5807587" lon="103.3761382"><ele>1193.62</ele><time>2026-07-19T00:10:11.000Z</time></trkpt>
        <trkpt lat="29.5806697" lon="103.3762007"><ele>1195.51</ele><time>2026-07-19T00:10:25.000Z</time></trkpt>
        <trkpt lat="29.5806217" lon="103.3763017"><ele>1197.95</ele><time>2026-07-19T00:10:37.000Z</time></trkpt>
        <trkpt lat="29.5805103" lon="103.376355"><ele>1203.6</ele><time>2026-07-19T00:10:51.000Z</time></trkpt>
        <trkpt lat="29.5804035" lon="103.3763813"><ele>1205.19</ele><time>2026-07-19T00:10:59.000Z</time></trkpt>
        <trkpt lat="29.5803264" lon="103.3763259"><ele>1204.56</ele><time>2026-07-19T00:11:11.000Z</time></trkpt>
        <trkpt lat="29.5802355" lon="103.3762958"><ele>1203.63</ele><time>2026-07-19T00:11:21.000Z</time></trkpt>
        <trkpt lat="29.5801405" lon="103.3762948"><ele>1201.32</ele><time>2026-07-19T00:11:35.000Z</time></trkpt>
        <trkpt lat="29.5800651" lon="103.3762329"><ele>1201.33</ele><time>2026-07-19T00:11:51.000Z</time></trkpt>
        <trkpt lat="29.5800216" lon="103.3761278"><ele>1202.88</ele><time>2026-07-19T00:12:03.000Z</time></trkpt>
        <trkpt lat="29.5799926" lon="103.3760138"><ele>1203.39</ele><time>2026-07-19T00:12:15.000Z</time></trkpt>
        <trkpt lat="29.5799461" lon="103.3759046"><ele>1201.11</ele><time>2026-07-19T00:12:27.000Z</time></trkpt>
        <trkpt lat="29.5798811" lon="103.3758128"><ele>1201.63</ele><time>2026-07-19T00:12:39.000Z</time></trkpt>
        <trkpt lat="29.5799128" lon="103.3757243"><ele>1204.12</ele><time>2026-07-19T00:12:55.000Z</time></trkpt>
        <trkpt lat="29.5799657" lon="103.3756348"><ele>1206.93</ele><time>2026-07-19T00:13:47.000Z</time></trkpt>
        <trkpt lat="29.580044" lon="103.3755664"><ele>1208.91</ele><time>2026-07-19T00:14:21.000Z</time></trkpt>
        <trkpt lat="29.580159" lon="103.3755562"><ele>1211.03</ele><time>2026-07-19T00:15:25.000Z</time></trkpt>
        <trkpt lat="29.5802048" lon="103.3756479"><ele>1216.27</ele><time>2026-07-19T00:16:05.000Z</time></trkpt>
        <trkpt lat="29.5802931" lon="103.3756318"><ele>1224.17</ele><time>2026-07-19T00:16:27.000Z</time></trkpt>
        <trkpt lat="29.5803807" lon="103.3755921"><ele>1229.09</ele><time>2026-07-19T00:17:11.000Z</time></trkpt>
        <trkpt lat="29.580457" lon="103.3755238"><ele>1230.39</ele><time>2026-07-19T00:17:43.000Z</time></trkpt>
        <trkpt lat="29.5805452" lon="103.3754806"><ele>1232.29</ele><time>2026-07-19T00:18:25.000Z</time></trkpt>
        <trkpt lat="29.5806359" lon="103.3754545"><ele>1236.51</ele><time>2026-07-19T00:19:11.000Z</time></trkpt>
        <trkpt lat="29.5807286" lon="103.3754323"><ele>1240.28</ele><time>2026-07-19T00:19:27.000Z</time></trkpt>
        <trkpt lat="29.5807936" lon="103.3753657"><ele>1243.39</ele><time>2026-07-19T00:19:59.000Z</time></trkpt>
        <trkpt lat="29.5807953" lon="103.3752667"><ele>1247.83</ele><time>2026-07-19T00:20:29.000Z</time></trkpt>
        <trkpt lat="29.5807764" lon="103.3751549"><ele>1251.23</ele><time>2026-07-19T00:21:27.000Z</time></trkpt>
        <trkpt lat="29.5808149" lon="103.375061"><ele>1254.42</ele><time>2026-07-19T00:22:21.000Z</time></trkpt>
        <trkpt lat="29.5807869" lon="103.3749723"><ele>1260.37</ele><time>2026-07-19T00:23:03.000Z</time></trkpt>
        <trkpt lat="29.5807661" lon="103.3748731"><ele>1265.35</ele><time>2026-07-19T00:23:25.000Z</time></trkpt>
        <trkpt lat="29.5807395" lon="103.3747681"><ele>1266.3</ele><time>2026-07-19T00:24:07.000Z</time></trkpt>
        <trkpt lat="29.580735" lon="103.3746505"><ele>1269.11</ele><time>2026-07-19T00:25:07.000Z</time></trkpt>
        <trkpt lat="29.580744" lon="103.3745395"><ele>1273.41</ele><time>2026-07-19T00:25:41.000Z</time></trkpt>
        <trkpt lat="29.5807409" lon="103.3744309"><ele>1277.65</ele><time>2026-07-19T00:25:59.000Z</time></trkpt>
        <trkpt lat="29.5807243" lon="103.3743197"><ele>1280.51</ele><time>2026-07-19T00:32:29.000Z</time></trkpt>
        <trkpt lat="29.5807363" lon="103.3742169"><ele>1285.87</ele><time>2026-07-19T00:32:59.000Z</time></trkpt>
        <trkpt lat="29.5807196" lon="103.3741144"><ele>1289.2</ele><time>2026-07-19T00:33:33.000Z</time></trkpt>
        <trkpt lat="29.5807051" lon="103.374011"><ele>1294.28</ele><time>2026-07-19T00:33:59.000Z</time></trkpt>
        <trkpt lat="29.5806649" lon="103.3739097"><ele>1297.41</ele><time>2026-07-19T00:34:21.000Z</time></trkpt>
        <trkpt lat="29.5805933" lon="103.3738354"><ele>1300.36</ele><time>2026-07-19T00:34:45.000Z</time></trkpt>
        <trkpt lat="29.5805016" lon="103.3737811"><ele>1303.18</ele><time>2026-07-19T00:35:07.000Z</time></trkpt>
        <trkpt lat="29.5804194" lon="103.3737147"><ele>1305.64</ele><time>2026-07-19T00:35:21.000Z</time></trkpt>
        <trkpt lat="29.580345" lon="103.3736468"><ele>1306.59</ele><time>2026-07-19T00:35:33.000Z</time></trkpt>
        <trkpt lat="29.5802752" lon="103.3735779"><ele>1306.66</ele><time>2026-07-19T00:35:45.000Z</time></trkpt>
        <trkpt lat="29.5802151" lon="103.3735"><ele>1307.32</ele><time>2026-07-19T00:35:59.000Z</time></trkpt>
        <trkpt lat="29.5801567" lon="103.3734154"><ele>1308.19</ele><time>2026-07-19T00:36:15.000Z</time></trkpt>
        <trkpt lat="29.5800904" lon="103.3733347"><ele>1308.79</ele><time>2026-07-19T00:36:33.000Z</time></trkpt>
        <trkpt lat="29.5800289" lon="103.3732554"><ele>1311.02</ele><time>2026-07-19T00:36:59.000Z</time></trkpt>
        <trkpt lat="29.579956" lon="103.3731875"><ele>1314.43</ele><time>2026-07-19T00:37:27.000Z</time></trkpt>
        <trkpt lat="29.5798853" lon="103.3731166"><ele>1318.35</ele><time>2026-07-19T00:38:07.000Z</time></trkpt>
        <trkpt lat="29.579836" lon="103.3730288"><ele>1321.83</ele><time>2026-07-19T00:39:11.000Z</time></trkpt>
        <trkpt lat="29.579788" lon="103.3729342"><ele>1327.34</ele><time>2026-07-19T00:39:47.000Z</time></trkpt>
        <trkpt lat="29.5797135" lon="103.372876"><ele>1332.64</ele><time>2026-07-19T00:40:31.000Z</time></trkpt>
        <trkpt lat="29.5796455" lon="103.3728082"><ele>1338.45</ele><time>2026-07-19T00:40:55.000Z</time></trkpt>
        <trkpt lat="29.5795586" lon="103.3727818"><ele>1342.49</ele><time>2026-07-19T00:41:11.000Z</time></trkpt>
        <trkpt lat="29.5794691" lon="103.3727497"><ele>1344.83</ele><time>2026-07-19T00:41:37.000Z</time></trkpt>
        <trkpt lat="29.5794063" lon="103.372676"><ele>1349.05</ele><time>2026-07-19T00:42:01.000Z</time></trkpt>
        <trkpt lat="29.5793478" lon="103.372593"><ele>1351.54</ele><time>2026-07-19T00:42:23.000Z</time></trkpt>
        <trkpt lat="29.5792729" lon="103.3725239"><ele>1353.67</ele><time>2026-07-19T00:42:41.000Z</time></trkpt>
        <trkpt lat="29.5791882" lon="103.3724756"><ele>1356.62</ele><time>2026-07-19T00:42:55.000Z</time></trkpt>
        <trkpt lat="29.5790894" lon="103.3724629"><ele>1359.37</ele><time>2026-07-19T00:43:09.000Z</time></trkpt>
        <trkpt lat="29.5790151" lon="103.3724049"><ele>1361.16</ele><time>2026-07-19T00:43:29.000Z</time></trkpt>
        <trkpt lat="29.5789495" lon="103.3723316"><ele>1363.1</ele><time>2026-07-19T00:43:53.000Z</time></trkpt>
        <trkpt lat="29.5788699" lon="103.3722649"><ele>1364.43</ele><time>2026-07-19T00:44:19.000Z</time></trkpt>
        <trkpt lat="29.5787873" lon="103.3722142"><ele>1367.16</ele><time>2026-07-19T00:44:31.000Z</time></trkpt>
        <trkpt lat="29.5787091" lon="103.3721427"><ele>1369.37</ele><time>2026-07-19T00:44:43.000Z</time></trkpt>
        <trkpt lat="29.578642" lon="103.3720646"><ele>1370.48</ele><time>2026-07-19T00:44:59.000Z</time></trkpt>
        <trkpt lat="29.5785713" lon="103.3719903"><ele>1370.39</ele><time>2026-07-19T00:45:27.000Z</time></trkpt>
        <trkpt lat="29.5785024" lon="103.3719125"><ele>1372.13</ele><time>2026-07-19T00:46:01.000Z</time></trkpt>
        <trkpt lat="29.5784505" lon="103.37182"><ele>1375.38</ele><time>2026-07-19T00:46:25.000Z</time></trkpt>
        <trkpt lat="29.5783968" lon="103.3717265"><ele>1379.61</ele><time>2026-07-19T00:46:43.000Z</time></trkpt>
        <trkpt lat="29.5783411" lon="103.371641"><ele>1381.48</ele><time>2026-07-19T00:46:57.000Z</time></trkpt>
        <trkpt lat="29.5782743" lon="103.371572"><ele>1383.29</ele><time>2026-07-19T00:47:17.000Z</time></trkpt>
        <trkpt lat="29.5781958" lon="103.3715209"><ele>1385.23</ele><time>2026-07-19T00:47:51.000Z</time></trkpt>
        <trkpt lat="29.5781371" lon="103.3714439"><ele>1388.01</ele><time>2026-07-19T00:48:45.000Z</time></trkpt>
        <trkpt lat="29.5780602" lon="103.3713894"><ele>1392.27</ele><time>2026-07-19T00:49:19.000Z</time></trkpt>
        <trkpt lat="29.5779772" lon="103.3713452"><ele>1395.94</ele><time>2026-07-19T00:49:53.000Z</time></trkpt>
        <trkpt lat="29.5778916" lon="103.3712975"><ele>1400.57</ele><time>2026-07-19T00:50:29.000Z</time></trkpt>
        <trkpt lat="29.5778162" lon="103.3712298"><ele>1404.8</ele><time>2026-07-19T00:51:07.000Z</time></trkpt>
        <trkpt lat="29.577748" lon="103.3711572"><ele>1408.68</ele><time>2026-07-19T00:51:39.000Z</time></trkpt>
        <trkpt lat="29.5776752" lon="103.3710855"><ele>1412.85</ele><time>2026-07-19T00:54:57.000Z</time></trkpt>
        <trkpt lat="29.5775815" lon="103.3710734"><ele>1417.67</ele><time>2026-07-19T00:55:30.000Z</time></trkpt>
        <trkpt lat="29.577511" lon="103.3710011"><ele>1420.83</ele><time>2026-07-19T00:56:07.000Z</time></trkpt>
        <trkpt lat="29.5775033" lon="103.3708974"><ele>1422.93</ele><time>2026-07-19T00:56:19.000Z</time></trkpt>
        <trkpt lat="29.5774672" lon="103.3708021"><ele>1424.32</ele><time>2026-07-19T00:56:31.000Z</time></trkpt>
        <trkpt lat="29.5774522" lon="103.3706971"><ele>1425.39</ele><time>2026-07-19T00:56:43.000Z</time></trkpt>
        <trkpt lat="29.5773845" lon="103.3706126"><ele>1424.68</ele><time>2026-07-19T00:56:57.000Z</time></trkpt>
        <trkpt lat="29.577313" lon="103.3705347"><ele>1425.43</ele><time>2026-07-19T00:57:07.000Z</time></trkpt>
        <trkpt lat="29.5772463" lon="103.3704576"><ele>1424.35</ele><time>2026-07-19T00:57:17.000Z</time></trkpt>
        <trkpt lat="29.5771814" lon="103.370367"><ele>1424.03</ele><time>2026-07-19T00:57:29.000Z</time></trkpt>
        <trkpt lat="29.5771183" lon="103.3702768"><ele>1423.8</ele><time>2026-07-19T00:57:51.000Z</time></trkpt>
        <trkpt lat="29.5770533" lon="103.3701853"><ele>1424.42</ele><time>2026-07-19T00:58:05.000Z</time></trkpt>
        <trkpt lat="29.5769882" lon="103.3701053"><ele>1424.87</ele><time>2026-07-19T00:58:15.000Z</time></trkpt>
        <trkpt lat="29.57692" lon="103.3700294"><ele>1426.01</ele><time>2026-07-19T00:58:25.000Z</time></trkpt>
        <trkpt lat="29.5769163" lon="103.369929"><ele>1425.62</ele><time>2026-07-19T00:58:43.000Z</time></trkpt>
        <trkpt lat="29.5769138" lon="103.3698226"><ele>1424.96</ele><time>2026-07-19T00:58:55.000Z</time></trkpt>
        <trkpt lat="29.5769238" lon="103.3697134"><ele>1424.1</ele><time>2026-07-19T00:59:07.000Z</time></trkpt>
        <trkpt lat="29.5769342" lon="103.3696012"><ele>1424.44</ele><time>2026-07-19T00:59:19.000Z</time></trkpt>
        <trkpt lat="29.5769319" lon="103.3694842"><ele>1425.69</ele><time>2026-07-19T00:59:31.000Z</time></trkpt>
        <trkpt lat="29.5769162" lon="103.369363"><ele>1426.59</ele><time>2026-07-19T00:59:45.000Z</time></trkpt>
        <trkpt lat="29.5769002" lon="103.3692522"><ele>1428.5</ele><time>2026-07-19T01:00:01.000Z</time></trkpt>
        <trkpt lat="29.5769255" lon="103.3691465"><ele>1430.12</ele><time>2026-07-19T01:00:25.000Z</time></trkpt>
        <trkpt lat="29.5769491" lon="103.3690379"><ele>1433.18</ele><time>2026-07-19T01:00:41.000Z</time></trkpt>
        <trkpt lat="29.5769711" lon="103.3689316"><ele>1434.69</ele><time>2026-07-19T01:00:53.000Z</time></trkpt>
        <trkpt lat="29.5769783" lon="103.3688231"><ele>1436.39</ele><time>2026-07-19T01:01:05.000Z</time></trkpt>
        <trkpt lat="29.5769782" lon="103.3687156"><ele>1437.25</ele><time>2026-07-19T01:01:15.000Z</time></trkpt>
        <trkpt lat="29.5769937" lon="103.3686058"><ele>1436.32</ele><time>2026-07-19T01:01:27.000Z</time></trkpt>
        <trkpt lat="29.5770167" lon="103.3684915"><ele>1435.62</ele><time>2026-07-19T01:01:39.000Z</time></trkpt>
        <trkpt lat="29.5770367" lon="103.3683766"><ele>1434.48</ele><time>2026-07-19T01:01:53.000Z</time></trkpt>
        <trkpt lat="29.577056" lon="103.3682707"><ele>1435.28</ele><time>2026-07-19T01:02:09.000Z</time></trkpt>
        <trkpt lat="29.5770588" lon="103.36816"><ele>1437.24</ele><time>2026-07-19T01:02:33.000Z</time></trkpt>
        <trkpt lat="29.5770358" lon="103.3680588"><ele>1439.01</ele><time>2026-07-19T01:03:21.000Z</time></trkpt>
        <trkpt lat="29.5770278" lon="103.3680391"><ele>1441.32</ele><time>2026-07-19T01:03:23.000Z</time></trkpt>
        <trkpt lat="29.5770939" lon="103.3680261"><ele>1442.35</ele><time>2026-07-19T01:03:49.000Z</time></trkpt>
        <trkpt lat="29.5771564" lon="103.3679639"><ele>1446.91</ele><time>2026-07-19T01:04:31.000Z</time></trkpt>
        <trkpt lat="29.5772321" lon="103.3678978"><ele>1450.13</ele><time>2026-07-19T01:05:05.000Z</time></trkpt>
        <trkpt lat="29.5772821" lon="103.367801"><ele>1455.87</ele><time>2026-07-19T01:05:49.000Z</time></trkpt>
        <trkpt lat="29.5772719" lon="103.36769"><ele>1459.73</ele><time>2026-07-19T01:06:15.000Z</time></trkpt>
        <trkpt lat="29.5772103" lon="103.3676053"><ele>1463.86</ele><time>2026-07-19T01:06:41.000Z</time></trkpt>
        <trkpt lat="29.5771288" lon="103.367541"><ele>1466.42</ele><time>2026-07-19T01:06:55.000Z</time></trkpt>
        <trkpt lat="29.5770776" lon="103.3674542"><ele>1467.18</ele><time>2026-07-19T01:07:07.000Z</time></trkpt>
        <trkpt lat="29.5770347" lon="103.367357"><ele>1467.9</ele><time>2026-07-19T01:07:19.000Z</time></trkpt>
        <trkpt lat="29.5769639" lon="103.3672725"><ele>1468.37</ele><time>2026-07-19T01:07:35.000Z</time></trkpt>
        <trkpt lat="29.576883" lon="103.3672117"><ele>1467.97</ele><time>2026-07-19T01:07:45.000Z</time></trkpt>
        <trkpt lat="29.5768138" lon="103.3671431"><ele>1468.65</ele><time>2026-07-19T01:07:55.000Z</time></trkpt>
        <trkpt lat="29.5767459" lon="103.3670613"><ele>1469.88</ele><time>2026-07-19T01:08:05.000Z</time></trkpt>
        <trkpt lat="29.576683" lon="103.3669665"><ele>1468.79</ele><time>2026-07-19T01:08:17.000Z</time></trkpt>
        <trkpt lat="29.5766223" lon="103.3668805"><ele>1467.57</ele><time>2026-07-19T01:08:29.000Z</time></trkpt>
        <trkpt lat="29.5765436" lon="103.36681"><ele>1465.9</ele><time>2026-07-19T01:08:39.000Z</time></trkpt>
        <trkpt lat="29.57646" lon="103.3667366"><ele>1464.06</ele><time>2026-07-19T01:08:49.000Z</time></trkpt>
        <trkpt lat="29.5763952" lon="103.3666542"><ele>1463.32</ele><time>2026-07-19T01:08:59.000Z</time></trkpt>
        <trkpt lat="29.5763682" lon="103.3665546"><ele>1462.86</ele><time>2026-07-19T01:09:11.000Z</time></trkpt>
        <trkpt lat="29.5762936" lon="103.3664725"><ele>1463.12</ele><time>2026-07-19T01:11:13.000Z</time></trkpt>
        <trkpt lat="29.5762766" lon="103.3663539"><ele>1461.16</ele><time>2026-07-19T01:11:25.000Z</time></trkpt>
        <trkpt lat="29.5762561" lon="103.3662442"><ele>1462.35</ele><time>2026-07-19T01:11:39.000Z</time></trkpt>
        <trkpt lat="29.5762544" lon="103.3661344"><ele>1464.25</ele><time>2026-07-19T01:12:01.000Z</time></trkpt>
        <trkpt lat="29.5762189" lon="103.366032"><ele>1463.51</ele><time>2026-07-19T01:12:29.000Z</time></trkpt>
        <trkpt lat="29.5761628" lon="103.3659476"><ele>1459.25</ele><time>2026-07-19T01:12:55.000Z</time></trkpt>
        <trkpt lat="29.5760899" lon="103.3658687"><ele>1454.22</ele><time>2026-07-19T01:13:19.000Z</time></trkpt>
        <trkpt lat="29.5760057" lon="103.3658148"><ele>1448.38</ele><time>2026-07-19T01:13:37.000Z</time></trkpt>
        <trkpt lat="29.5759186" lon="103.3657646"><ele>1445.79</ele><time>2026-07-19T01:13:55.000Z</time></trkpt>
        <trkpt lat="29.5758288" lon="103.3657192"><ele>1441.86</ele><time>2026-07-19T01:14:11.000Z</time></trkpt>
        <trkpt lat="29.5757471" lon="103.365654"><ele>1438.48</ele><time>2026-07-19T01:14:31.000Z</time></trkpt>
        <trkpt lat="29.5756597" lon="103.3656445"><ele>1435.4</ele><time>2026-07-19T01:14:47.000Z</time></trkpt>
        <trkpt lat="29.5756031" lon="103.3655789"><ele>1430.72</ele><time>2026-07-19T01:15:21.000Z</time></trkpt>
        <trkpt lat="29.5755452" lon="103.365499"><ele>1427.17</ele><time>2026-07-19T01:18:27.000Z</time></trkpt>
        <trkpt lat="29.5754445" lon="103.3655053"><ele>1426.8</ele><time>2026-07-19T01:19:21.000Z</time></trkpt>
        <trkpt lat="29.5753648" lon="103.3654571"><ele>1430.96</ele><time>2026-07-19T01:20:25.000Z</time></trkpt>
        <trkpt lat="29.5752967" lon="103.3653763"><ele>1436</ele><time>2026-07-19T01:21:39.000Z</time></trkpt>
        <trkpt lat="29.5752193" lon="103.365319"><ele>1440.76</ele><time>2026-07-19T01:21:55.000Z</time></trkpt>
        <trkpt lat="29.575172" lon="103.3652285"><ele>1444.33</ele><time>2026-07-19T01:22:51.000Z</time></trkpt>
        <trkpt lat="29.5750995" lon="103.3651638"><ele>1448.41</ele><time>2026-07-19T01:23:17.000Z</time></trkpt>
        <trkpt lat="29.5750328" lon="103.3650863"><ele>1451.43</ele><time>2026-07-19T01:23:29.000Z</time></trkpt>
        <trkpt lat="29.5750135" lon="103.3649876"><ele>1452.92</ele><time>2026-07-19T01:23:43.000Z</time></trkpt>
        <trkpt lat="29.5750009" lon="103.36488"><ele>1453.99</ele><time>2026-07-19T01:24:05.000Z</time></trkpt>
        <trkpt lat="29.5749655" lon="103.3647788"><ele>1457.19</ele><time>2026-07-19T01:24:35.000Z</time></trkpt>
        <trkpt lat="29.5748986" lon="103.3647114"><ele>1461.3</ele><time>2026-07-19T01:25:05.000Z</time></trkpt>
        <trkpt lat="29.5748248" lon="103.3646396"><ele>1464.31</ele><time>2026-07-19T01:25:41.000Z</time></trkpt>
        <trkpt lat="29.5747613" lon="103.3645524"><ele>1468.72</ele><time>2026-07-19T01:26:57.000Z</time></trkpt>
        <trkpt lat="29.5747271" lon="103.3644227"><ele>1476.04</ele><time>2026-07-19T01:27:53.000Z</time></trkpt>
        <trkpt lat="29.5746744" lon="103.3643046"><ele>1481.27</ele><time>2026-07-19T01:28:15.000Z</time></trkpt>
        <trkpt lat="29.5746085" lon="103.3642091"><ele>1485.23</ele><time>2026-07-19T01:28:23.000Z</time></trkpt>
        <trkpt lat="29.5745294" lon="103.364148"><ele>1489.01</ele><time>2026-07-19T01:28:55.000Z</time></trkpt>
        <trkpt lat="29.5744596" lon="103.3640703"><ele>1496.15</ele><time>2026-07-19T01:29:17.000Z</time></trkpt>
        <trkpt lat="29.5744378" lon="103.3639647"><ele>1498.27</ele><time>2026-07-19T01:29:29.000Z</time></trkpt>
        <trkpt lat="29.5744324" lon="103.3638557"><ele>1497.43</ele><time>2026-07-19T01:29:57.000Z</time></trkpt>
        <trkpt lat="29.5744106" lon="103.3637471"><ele>1498.46</ele><time>2026-07-19T01:30:29.000Z</time></trkpt>
        <trkpt lat="29.5744893" lon="103.3636859"><ele>1499.88</ele><time>2026-07-19T01:31:29.000Z</time></trkpt>
        <trkpt lat="29.5745758" lon="103.3637145"><ele>1506.92</ele><time>2026-07-19T01:32:01.000Z</time></trkpt>
        <trkpt lat="29.5746496" lon="103.3636477"><ele>1514.54</ele><time>2026-07-19T01:33:17.000Z</time></trkpt>
        <trkpt lat="29.5746254" lon="103.3635472"><ele>1520.4</ele><time>2026-07-19T01:33:55.000Z</time></trkpt>
        <trkpt lat="29.5746286" lon="103.3634379"><ele>1524.6</ele><time>2026-07-19T01:34:23.000Z</time></trkpt>
        <trkpt lat="29.5746173" lon="103.363331"><ele>1526.65</ele><time>2026-07-19T01:34:37.000Z</time></trkpt>
        <trkpt lat="29.5746106" lon="103.3632258"><ele>1527.3</ele><time>2026-07-19T01:35:05.000Z</time></trkpt>
        <trkpt lat="29.5746082" lon="103.3631182"><ele>1527.7</ele><time>2026-07-19T01:35:51.000Z</time></trkpt>
        <trkpt lat="29.5746138" lon="103.363009"><ele>1530.57</ele><time>2026-07-19T01:36:13.000Z</time></trkpt>
        <trkpt lat="29.5746506" lon="103.3629134"><ele>1534.61</ele><time>2026-07-19T01:36:29.000Z</time></trkpt>
        <trkpt lat="29.5747288" lon="103.362863"><ele>1538.26</ele><time>2026-07-19T01:36:53.000Z</time></trkpt>
        <trkpt lat="29.5748177" lon="103.3628264"><ele>1543.14</ele><time>2026-07-19T01:37:23.000Z</time></trkpt>
        <trkpt lat="29.5748866" lon="103.3627565"><ele>1547.67</ele><time>2026-07-19T01:37:51.000Z</time></trkpt>
        <trkpt lat="29.5749456" lon="103.3626659"><ele>1551.62</ele><time>2026-07-19T01:38:07.000Z</time></trkpt>
        <trkpt lat="29.5749376" lon="103.3625655"><ele>1554.65</ele><time>2026-07-19T01:38:25.000Z</time></trkpt>
        <trkpt lat="29.5748895" lon="103.3624716"><ele>1556.57</ele><time>2026-07-19T01:38:41.000Z</time></trkpt>
        <trkpt lat="29.5748212" lon="103.3623876"><ele>1558.53</ele><time>2026-07-19T01:38:57.000Z</time></trkpt>
        <trkpt lat="29.5747218" lon="103.3623734"><ele>1559.54</ele><time>2026-07-19T01:39:13.000Z</time></trkpt>
        <trkpt lat="29.5746208" lon="103.3623997"><ele>1561.75</ele><time>2026-07-19T01:39:31.000Z</time></trkpt>
        <trkpt lat="29.5745158" lon="103.3624383"><ele>1564.65</ele><time>2026-07-19T01:39:45.000Z</time></trkpt>
        <trkpt lat="29.5744139" lon="103.362466"><ele>1565.92</ele><time>2026-07-19T01:39:57.000Z</time></trkpt>
        <trkpt lat="29.574319" lon="103.3624815"><ele>1566.45</ele><time>2026-07-19T01:40:07.000Z</time></trkpt>
        <trkpt lat="29.5742165" lon="103.36249"><ele>1566.48</ele><time>2026-07-19T01:40:17.000Z</time></trkpt>
        <trkpt lat="29.5741155" lon="103.3625046"><ele>1565.64</ele><time>2026-07-19T01:40:27.000Z</time></trkpt>
        <trkpt lat="29.5740217" lon="103.362507"><ele>1564.77</ele><time>2026-07-19T01:40:39.000Z</time></trkpt>
        <trkpt lat="29.5739353" lon="103.3624605"><ele>1563.12</ele><time>2026-07-19T01:41:01.000Z</time></trkpt>
        <trkpt lat="29.573861" lon="103.3623838"><ele>1562.73</ele><time>2026-07-19T01:41:17.000Z</time></trkpt>
        <trkpt lat="29.5737837" lon="103.3623113"><ele>1563.73</ele><time>2026-07-19T01:41:35.000Z</time></trkpt>
        <trkpt lat="29.5737215" lon="103.3622246"><ele>1565.1</ele><time>2026-07-19T01:41:57.000Z</time></trkpt>
        <trkpt lat="29.5736531" lon="103.3621468"><ele>1568.51</ele><time>2026-07-19T01:42:25.000Z</time></trkpt>
        <trkpt lat="29.5735988" lon="103.3620554"><ele>1572.27</ele><time>2026-07-19T01:43:17.000Z</time></trkpt>
        <trkpt lat="29.5735308" lon="103.3619852"><ele>1576.79</ele><time>2026-07-19T01:44:07.000Z</time></trkpt>
        <trkpt lat="29.5734543" lon="103.3619278"><ele>1581.13</ele><time>2026-07-19T01:44:43.000Z</time></trkpt>
        <trkpt lat="29.5733757" lon="103.361875"><ele>1585.49</ele><time>2026-07-19T01:45:09.000Z</time></trkpt>
        <trkpt lat="29.5732923" lon="103.3618201"><ele>1589.24</ele><time>2026-07-19T01:46:01.000Z</time></trkpt>
        <trkpt lat="29.573212" lon="103.36176"><ele>1595.06</ele><time>2026-07-19T01:46:21.000Z</time></trkpt>
        <trkpt lat="29.5731325" lon="103.3616965"><ele>1599.66</ele><time>2026-07-19T01:46:41.000Z</time></trkpt>
        <trkpt lat="29.5730544" lon="103.3616327"><ele>1602.89</ele><time>2026-07-19T01:46:57.000Z</time></trkpt>
        <trkpt lat="29.5729654" lon="103.3615921"><ele>1606.57</ele><time>2026-07-19T01:47:09.000Z</time></trkpt>
        <trkpt lat="29.5728753" lon="103.3615679"><ele>1608.27</ele><time>2026-07-19T01:47:19.000Z</time></trkpt>
        <trkpt lat="29.5727836" lon="103.3615645"><ele>1609.23</ele><time>2026-07-19T01:47:29.000Z</time></trkpt>
        <trkpt lat="29.5726974" lon="103.3615965"><ele>1611.02</ele><time>2026-07-19T01:47:39.000Z</time></trkpt>
        <trkpt lat="29.5726095" lon="103.3616237"><ele>1611.34</ele><time>2026-07-19T01:47:49.000Z</time></trkpt>
        <trkpt lat="29.5725205" lon="103.3616559"><ele>1610.56</ele><time>2026-07-19T01:48:05.000Z</time></trkpt>
        <trkpt lat="29.572432" lon="103.3617054"><ele>1611.84</ele><time>2026-07-19T01:48:31.000Z</time></trkpt>
        <trkpt lat="29.5723502" lon="103.3616719"><ele>1611.11</ele><time>2026-07-19T01:49:21.000Z</time></trkpt>
        <trkpt lat="29.5722648" lon="103.3616947"><ele>1617.12</ele><time>2026-07-19T01:49:47.000Z</time></trkpt>
        <trkpt lat="29.5721742" lon="103.3617223"><ele>1620.75</ele><time>2026-07-19T01:50:17.000Z</time></trkpt>
        <trkpt lat="29.5720855" lon="103.3617586"><ele>1624.65</ele><time>2026-07-19T01:50:49.000Z</time></trkpt>
        <trkpt lat="29.5719939" lon="103.3617632"><ele>1629.34</ele><time>2026-07-19T01:51:23.000Z</time></trkpt>
        <trkpt lat="29.5718976" lon="103.3617667"><ele>1633.14</ele><time>2026-07-19T01:52:01.000Z</time></trkpt>
        <trkpt lat="29.5718034" lon="103.3617652"><ele>1636.38</ele><time>2026-07-19T01:52:43.000Z</time></trkpt>
        <trkpt lat="29.5717151" lon="103.3618068"><ele>1641.79</ele><time>2026-07-19T01:53:11.000Z</time></trkpt>
        <trkpt lat="29.5716249" lon="103.3618121"><ele>1648.34</ele><time>2026-07-19T01:53:23.000Z</time></trkpt>
        <trkpt lat="29.5715395" lon="103.3617781"><ele>1652.98</ele><time>2026-07-19T01:53:35.000Z</time></trkpt>
        <trkpt lat="29.5714656" lon="103.3617126"><ele>1657.35</ele><time>2026-07-19T01:53:47.000Z</time></trkpt>
        <trkpt lat="29.5713776" lon="103.3616827"><ele>1659.13</ele><time>2026-07-19T01:53:59.000Z</time></trkpt>
        <trkpt lat="29.5712864" lon="103.3616892"><ele>1659.43</ele><time>2026-07-19T01:54:09.000Z</time></trkpt>
        <trkpt lat="29.5711973" lon="103.3616659"><ele>1658.56</ele><time>2026-07-19T01:54:21.000Z</time></trkpt>
        <trkpt lat="29.5711155" lon="103.3616159"><ele>1657.27</ele><time>2026-07-19T01:54:35.000Z</time></trkpt>
        <trkpt lat="29.5710353" lon="103.361553"><ele>1656.76</ele><time>2026-07-19T01:54:51.000Z</time></trkpt>
        <trkpt lat="29.5709541" lon="103.3614846"><ele>1657.15</ele><time>2026-07-19T01:55:09.000Z</time></trkpt>
        <trkpt lat="29.5708744" lon="103.3614287"><ele>1658.92</ele><time>2026-07-19T01:55:25.000Z</time></trkpt>
        <trkpt lat="29.5707911" lon="103.3613877"><ele>1660.48</ele><time>2026-07-19T01:55:39.000Z</time></trkpt>
        <trkpt lat="29.5706974" lon="103.3613671"><ele>1662.44</ele><time>2026-07-19T01:55:51.000Z</time></trkpt>
        <trkpt lat="29.5706043" lon="103.3613426"><ele>1663.52</ele><time>2026-07-19T01:56:01.000Z</time></trkpt>
        <trkpt lat="29.5705067" lon="103.3613185"><ele>1663.98</ele><time>2026-07-19T01:56:11.000Z</time></trkpt>
        <trkpt lat="29.5704152" lon="103.3612732"><ele>1664.26</ele><time>2026-07-19T01:56:21.000Z</time></trkpt>
        <trkpt lat="29.5703243" lon="103.3612227"><ele>1664.01</ele><time>2026-07-19T01:56:33.000Z</time></trkpt>
        <trkpt lat="29.5702319" lon="103.3611973"><ele>1663.52</ele><time>2026-07-19T01:56:43.000Z</time></trkpt>
        <trkpt lat="29.5701358" lon="103.3611706"><ele>1664.1</ele><time>2026-07-19T01:56:55.000Z</time></trkpt>
        <trkpt lat="29.5700439" lon="103.3611464"><ele>1664.34</ele><time>2026-07-19T01:57:07.000Z</time></trkpt>
        <trkpt lat="29.5699628" lon="103.3610911"><ele>1664.87</ele><time>2026-07-19T01:57:31.000Z</time></trkpt>
        <trkpt lat="29.5698972" lon="103.3610182"><ele>1664.26</ele><time>2026-07-19T01:57:51.000Z</time></trkpt>
        <trkpt lat="29.5698116" lon="103.3609868"><ele>1665.78</ele><time>2026-07-19T01:58:11.000Z</time></trkpt>
        <trkpt lat="29.5697344" lon="103.3609333"><ele>1668.03</ele><time>2026-07-19T01:58:27.000Z</time></trkpt>
        <trkpt lat="29.5696587" lon="103.360855"><ele>1670.3</ele><time>2026-07-19T01:58:41.000Z</time></trkpt>
        <trkpt lat="29.5695852" lon="103.3607864"><ele>1671.8</ele><time>2026-07-19T01:58:51.000Z</time></trkpt>
        <trkpt lat="29.5694942" lon="103.3607323"><ele>1673.47</ele><time>2026-07-19T01:59:03.000Z</time></trkpt>
        <trkpt lat="29.5694169" lon="103.3606689"><ele>1675.26</ele><time>2026-07-19T01:59:17.000Z</time></trkpt>
        <trkpt lat="29.5693268" lon="103.3606336"><ele>1676.14</ele><time>2026-07-19T01:59:33.000Z</time></trkpt>
        <trkpt lat="29.5692547" lon="103.360566"><ele>1676.8</ele><time>2026-07-19T02:00:01.000Z</time></trkpt>
        <trkpt lat="29.5691947" lon="103.3604758"><ele>1676.58</ele><time>2026-07-19T02:00:11.000Z</time></trkpt>
        <trkpt lat="29.5691234" lon="103.3603984"><ele>1677.63</ele><time>2026-07-19T02:00:25.000Z</time></trkpt>
        <trkpt lat="29.5690463" lon="103.3603269"><ele>1679.25</ele><time>2026-07-19T02:00:37.000Z</time></trkpt>
        <trkpt lat="29.5689631" lon="103.3602776"><ele>1679.72</ele><time>2026-07-19T02:00:49.000Z</time></trkpt>
        <trkpt lat="29.5688861" lon="103.360214"><ele>1680.9</ele><time>2026-07-19T02:01:07.000Z</time></trkpt>
        <trkpt lat="29.5688386" lon="103.3601274"><ele>1682.65</ele><time>2026-07-19T02:01:25.000Z</time></trkpt>
        <trkpt lat="29.5687906" lon="103.3600304"><ele>1684.44</ele><time>2026-07-19T02:01:43.000Z</time></trkpt>
        <trkpt lat="29.5687775" lon="103.359919"><ele>1686.17</ele><time>2026-07-19T02:01:55.000Z</time></trkpt>
        <trkpt lat="29.5687697" lon="103.3598067"><ele>1687.98</ele><time>2026-07-19T02:02:07.000Z</time></trkpt>
        <trkpt lat="29.5687622" lon="103.3596962"><ele>1689.56</ele><time>2026-07-19T02:02:21.000Z</time></trkpt>
        <trkpt lat="29.5686968" lon="103.3596432"><ele>1690.66</ele><time>2026-07-19T02:02:41.000Z</time></trkpt>
        <trkpt lat="29.5685987" lon="103.359645"><ele>1692.35</ele><time>2026-07-19T02:02:57.000Z</time></trkpt>
        <trkpt lat="29.5684981" lon="103.3596419"><ele>1695.78</ele><time>2026-07-19T02:03:45.000Z</time></trkpt>
        <trkpt lat="29.5683886" lon="103.3596401"><ele>1698.06</ele><time>2026-07-19T02:04:07.000Z</time></trkpt>
        <trkpt lat="29.5682902" lon="103.359633"><ele>1700.47</ele><time>2026-07-19T02:04:19.000Z</time></trkpt>
        <trkpt lat="29.5681998" lon="103.3596067"><ele>1700.77</ele><time>2026-07-19T02:05:01.000Z</time></trkpt>
        <trkpt lat="29.5681575" lon="103.359524"><ele>1699.07</ele><time>2026-07-19T02:05:13.000Z</time></trkpt>
        <trkpt lat="29.5680819" lon="103.3595044"><ele>1698.01</ele><time>2026-07-19T02:05:23.000Z</time></trkpt>
        <trkpt lat="29.5679831" lon="103.3595205"><ele>1697.79</ele><time>2026-07-19T02:05:35.000Z</time></trkpt>
        <trkpt lat="29.5678796" lon="103.3595353"><ele>1697.78</ele><time>2026-07-19T02:05:45.000Z</time></trkpt>
        <trkpt lat="29.5677817" lon="103.3595126"><ele>1697.75</ele><time>2026-07-19T02:05:57.000Z</time></trkpt>
        <trkpt lat="29.5676919" lon="103.3594585"><ele>1697.03</ele><time>2026-07-19T02:06:09.000Z</time></trkpt>
        <trkpt lat="29.5676198" lon="103.3593842"><ele>1696.31</ele><time>2026-07-19T02:06:27.000Z</time></trkpt>
        <trkpt lat="29.5675357" lon="103.3593389"><ele>1698.53</ele><time>2026-07-19T02:06:47.000Z</time></trkpt>
        <trkpt lat="29.5674467" lon="103.3593381"><ele>1699.76</ele><time>2026-07-19T02:07:05.000Z</time></trkpt>
        <trkpt lat="29.5673621" lon="103.3593806"><ele>1701.18</ele><time>2026-07-19T02:07:29.000Z</time></trkpt>
        <trkpt lat="29.5672709" lon="103.3594176"><ele>1702.64</ele><time>2026-07-19T02:07:53.000Z</time></trkpt>
        <trkpt lat="29.5671839" lon="103.3593984"><ele>1704.9</ele><time>2026-07-19T02:08:31.000Z</time></trkpt>
        <trkpt lat="29.5670981" lon="103.3593524"><ele>1709.04</ele><time>2026-07-19T02:09:03.000Z</time></trkpt>
        <trkpt lat="29.5670087" lon="103.3593125"><ele>1713.1</ele><time>2026-07-19T02:09:27.000Z</time></trkpt>
        <trkpt lat="29.5669171" lon="103.3592862"><ele>1716.81</ele><time>2026-07-19T02:09:47.000Z</time></trkpt>
        <trkpt lat="29.5668393" lon="103.3592295"><ele>1720.5</ele><time>2026-07-19T02:10:01.000Z</time></trkpt>
        <trkpt lat="29.5667635" lon="103.3591622"><ele>1722.36</ele><time>2026-07-19T02:10:15.000Z</time></trkpt>
        <trkpt lat="29.5666923" lon="103.3590891"><ele>1723.56</ele><time>2026-07-19T02:10:27.000Z</time></trkpt>
        <trkpt lat="29.5666249" lon="103.3590134"><ele>1724.77</ele><time>2026-07-19T02:10:41.000Z</time></trkpt>
        <trkpt lat="29.5665518" lon="103.3589374"><ele>1726.57</ele><time>2026-07-19T02:10:59.000Z</time></trkpt>
        <trkpt lat="29.566473" lon="103.3588717"><ele>1729.8</ele><time>2026-07-19T02:11:21.000Z</time></trkpt>
        <trkpt lat="29.5664048" lon="103.3587984"><ele>1731.24</ele><time>2026-07-19T02:11:43.000Z</time></trkpt>
        <trkpt lat="29.5663359" lon="103.3587257"><ele>1733.71</ele><time>2026-07-19T02:12:09.000Z</time></trkpt>
        <trkpt lat="29.5662754" lon="103.3586468"><ele>1736.75</ele><time>2026-07-19T02:12:33.000Z</time></trkpt>
        <trkpt lat="29.5662353" lon="103.3585496"><ele>1739</ele><time>2026-07-19T02:13:05.000Z</time></trkpt>
        <trkpt lat="29.5662251" lon="103.3584426"><ele>1742.23</ele><time>2026-07-19T02:13:31.000Z</time></trkpt>
        <trkpt lat="29.5662448" lon="103.3583355"><ele>1746.89</ele><time>2026-07-19T02:13:53.000Z</time></trkpt>
        <trkpt lat="29.5662325" lon="103.3582323"><ele>1750.6</ele><time>2026-07-19T02:14:19.000Z</time></trkpt>
        <trkpt lat="29.5661979" lon="103.3581315"><ele>1753.62</ele><time>2026-07-19T02:14:57.000Z</time></trkpt>
        <trkpt lat="29.5661527" lon="103.3580379"><ele>1757.63</ele><time>2026-07-19T02:15:27.000Z</time></trkpt>
        <trkpt lat="29.5661077" lon="103.3579425"><ele>1760.06</ele><time>2026-07-19T02:15:55.000Z</time></trkpt>
        <trkpt lat="29.5660618" lon="103.3578499"><ele>1762.6</ele><time>2026-07-19T02:16:21.000Z</time></trkpt>
        <trkpt lat="29.5660293" lon="103.3577506"><ele>1766.19</ele><time>2026-07-19T02:16:47.000Z</time></trkpt>
        <trkpt lat="29.5660022" lon="103.3576452"><ele>1770.2</ele><time>2026-07-19T02:17:07.000Z</time></trkpt>
        <trkpt lat="29.5659754" lon="103.3575385"><ele>1773.24</ele><time>2026-07-19T02:17:35.000Z</time></trkpt>
        <trkpt lat="29.5659174" lon="103.3574611"><ele>1776.62</ele><time>2026-07-19T02:18:05.000Z</time></trkpt>
        <trkpt lat="29.5658374" lon="103.3574072"><ele>1779.81</ele><time>2026-07-19T02:18:29.000Z</time></trkpt>
        <trkpt lat="29.5657536" lon="103.3573564"><ele>1782.44</ele><time>2026-07-19T02:18:49.000Z</time></trkpt>
        <trkpt lat="29.5656767" lon="103.3572904"><ele>1785.18</ele><time>2026-07-19T02:19:07.000Z</time></trkpt>
        <trkpt lat="29.5656124" lon="103.3572083"><ele>1787.1</ele><time>2026-07-19T02:19:25.000Z</time></trkpt>
        <trkpt lat="29.5655492" lon="103.3571276"><ele>1788.85</ele><time>2026-07-19T02:19:49.000Z</time></trkpt>
        <trkpt lat="29.5654968" lon="103.3570405"><ele>1791.23</ele><time>2026-07-19T02:20:17.000Z</time></trkpt>
        <trkpt lat="29.5654507" lon="103.3569509"><ele>1794.64</ele><time>2026-07-19T02:20:51.000Z</time></trkpt>
        <trkpt lat="29.5654268" lon="103.3568507"><ele>1798.99</ele><time>2026-07-19T02:21:21.000Z</time></trkpt>
        <trkpt lat="29.5653666" lon="103.3567832"><ele>1802.23</ele><time>2026-07-19T02:21:55.000Z</time></trkpt>
        <trkpt lat="29.5652841" lon="103.3567418"><ele>1805.65</ele><time>2026-07-19T02:22:21.000Z</time></trkpt>
        <trkpt lat="29.5652007" lon="103.3566959"><ele>1808.49</ele><time>2026-07-19T02:22:45.000Z</time></trkpt>
        <trkpt lat="29.5651147" lon="103.3566397"><ele>1811.43</ele><time>2026-07-19T02:23:23.000Z</time></trkpt>
        <trkpt lat="29.5650246" lon="103.3565977"><ele>1814.92</ele><time>2026-07-19T02:23:43.000Z</time></trkpt>
        <trkpt lat="29.564932" lon="103.3565671"><ele>1817.15</ele><time>2026-07-19T02:23:59.000Z</time></trkpt>
        <trkpt lat="29.5648757" lon="103.356492"><ele>1819.41</ele><time>2026-07-19T02:24:15.000Z</time></trkpt>
        <trkpt lat="29.5648174" lon="103.3564128"><ele>1822.64</ele><time>2026-07-19T02:24:41.000Z</time></trkpt>
        <trkpt lat="29.5647705" lon="103.356323"><ele>1825.35</ele><time>2026-07-19T02:25:07.000Z</time></trkpt>
        <trkpt lat="29.5647327" lon="103.3562265"><ele>1828.17</ele><time>2026-07-19T02:25:21.000Z</time></trkpt>
        <trkpt lat="29.5646819" lon="103.3561382"><ele>1829.94</ele><time>2026-07-19T02:25:39.000Z</time></trkpt>
        <trkpt lat="29.5646354" lon="103.3560406"><ele>1831.52</ele><time>2026-07-19T02:26:03.000Z</time></trkpt>
        <trkpt lat="29.5645529" lon="103.3560065"><ele>1833.82</ele><time>2026-07-19T02:26:29.000Z</time></trkpt>
        <trkpt lat="29.5644862" lon="103.3560688"><ele>1836.1</ele><time>2026-07-19T02:26:59.000Z</time></trkpt>
        <trkpt lat="29.5643893" lon="103.3561196"><ele>1838.63</ele><time>2026-07-19T02:28:13.000Z</time></trkpt>
        <trkpt lat="29.5643444" lon="103.3562162"><ele>1844.85</ele><time>2026-07-19T02:28:39.000Z</time></trkpt>
        <trkpt lat="29.5643324" lon="103.3563184"><ele>1847.86</ele><time>2026-07-19T02:29:07.000Z</time></trkpt>
        <trkpt lat="29.5642851" lon="103.3564087"><ele>1851.25</ele><time>2026-07-19T02:29:59.000Z</time></trkpt>
        <trkpt lat="29.5642024" lon="103.3564666"><ele>1855.66</ele><time>2026-07-19T02:30:39.000Z</time></trkpt>
        <trkpt lat="29.5641078" lon="103.3564821"><ele>1860.84</ele><time>2026-07-19T02:31:31.000Z</time></trkpt>
        <trkpt lat="29.5640106" lon="103.3565159"><ele>1866.17</ele><time>2026-07-19T02:32:15.000Z</time></trkpt>
        <trkpt lat="29.5577473" lon="103.3439724"><ele>2049.74</ele><time>2026-07-19T04:13:01.000Z</time></trkpt>
        <trkpt lat="29.5577279" lon="103.3439866"><ele>2049.74</ele><time>2026-07-19T04:13:06.000Z</time></trkpt>
        <trkpt lat="29.5576622" lon="103.3440398"><ele>2040.33</ele><time>2026-07-19T04:13:16.000Z</time></trkpt>
        <trkpt lat="29.5576275" lon="103.3439669"><ele>2037.15</ele><time>2026-07-19T04:13:24.000Z</time></trkpt>
        <trkpt lat="29.5575678" lon="103.3438826"><ele>2037.3</ele><time>2026-07-19T04:14:16.000Z</time></trkpt>
        <trkpt lat="29.5575239" lon="103.3437701"><ele>2038.67</ele><time>2026-07-19T04:14:30.000Z</time></trkpt>
        <trkpt lat="29.5574621" lon="103.3436841"><ele>2038.66</ele><time>2026-07-19T04:14:44.000Z</time></trkpt>
        <trkpt lat="29.5573764" lon="103.3436595"><ele>2037.36</ele><time>2026-07-19T04:14:58.000Z</time></trkpt>
        <trkpt lat="29.5572878" lon="103.3436335"><ele>2038.07</ele><time>2026-07-19T04:15:35.000Z</time></trkpt>
        <trkpt lat="29.5571853" lon="103.3436131"><ele>2036.85</ele><time>2026-07-19T04:16:53.000Z</time></trkpt>
        <trkpt lat="29.5570943" lon="103.3436052"><ele>2039.59</ele><time>2026-07-19T04:17:35.000Z</time></trkpt>
        <trkpt lat="29.5570043" lon="103.3436415"><ele>2042.22</ele><time>2026-07-19T04:18:15.000Z</time></trkpt>
        <trkpt lat="29.5569153" lon="103.3436816"><ele>2046.53</ele><time>2026-07-19T04:18:27.000Z</time></trkpt>
        <trkpt lat="29.556829" lon="103.3437225"><ele>2050.21</ele><time>2026-07-19T04:18:59.000Z</time></trkpt>
        <trkpt lat="29.5567411" lon="103.3437168"><ele>2053.83</ele><time>2026-07-19T04:19:33.000Z</time></trkpt>
        <trkpt lat="29.5566578" lon="103.3437453"><ele>2058.4</ele><time>2026-07-19T04:20:09.000Z</time></trkpt>
        <trkpt lat="29.556587" lon="103.3438067"><ele>2062.71</ele><time>2026-07-19T04:20:53.000Z</time></trkpt>
        <trkpt lat="29.5565495" lon="103.3439037"><ele>2065.85</ele><time>2026-07-19T04:21:41.000Z</time></trkpt>
        <trkpt lat="29.55653" lon="103.344019"><ele>2070.19</ele><time>2026-07-19T04:22:49.000Z</time></trkpt>
        <trkpt lat="29.5564711" lon="103.3441087"><ele>2078.39</ele><time>2026-07-19T04:23:21.000Z</time></trkpt>
        <trkpt lat="29.5564117" lon="103.344191"><ele>2083.17</ele><time>2026-07-19T04:23:51.000Z</time></trkpt>
        <trkpt lat="29.5563274" lon="103.3442178"><ele>2085.97</ele><time>2026-07-19T04:24:21.000Z</time></trkpt>
        <trkpt lat="29.5562438" lon="103.3442719"><ele>2090.45</ele><time>2026-07-19T04:24:53.000Z</time></trkpt>
        <trkpt lat="29.5561894" lon="103.3443533"><ele>2093.96</ele><time>2026-07-19T04:25:23.000Z</time></trkpt>
        <trkpt lat="29.5561371" lon="103.3444382"><ele>2097.81</ele><time>2026-07-19T04:26:05.000Z</time></trkpt>
        <trkpt lat="29.556082" lon="103.3445239"><ele>2102.86</ele><time>2026-07-19T04:26:25.000Z</time></trkpt>
        <trkpt lat="29.5560538" lon="103.3445721"><ele>2104.77</ele><time>2026-07-19T04:26:37.000Z</time></trkpt>
        <trkpt lat="29.5559982" lon="103.3446364"><ele>2105.61</ele><time>2026-07-19T04:27:27.000Z</time></trkpt>
        <trkpt lat="29.5559398" lon="103.3447153"><ele>2108.15</ele><time>2026-07-19T04:28:09.000Z</time></trkpt>
        <trkpt lat="29.5558849" lon="103.3448018"><ele>2112.67</ele><time>2026-07-19T04:28:47.000Z</time></trkpt>
        <trkpt lat="29.555844" lon="103.3448975"><ele>2118.13</ele><time>2026-07-19T04:29:13.000Z</time></trkpt>
        <trkpt lat="29.5557667" lon="103.344945"><ele>2122.68</ele><time>2026-07-19T04:29:43.000Z</time></trkpt>
        <trkpt lat="29.5556744" lon="103.3449622"><ele>2125.88</ele><time>2026-07-19T04:30:27.000Z</time></trkpt>
        <trkpt lat="29.5555825" lon="103.344933"><ele>2129.85</ele><time>2026-07-19T04:30:59.000Z</time></trkpt>
        <trkpt lat="29.5555102" lon="103.3449722"><ele>2132.35</ele><time>2026-07-19T04:31:45.000Z</time></trkpt>
        <trkpt lat="29.5554702" lon="103.3450596"><ele>2138.09</ele><time>2026-07-19T04:32:27.000Z</time></trkpt>
        <trkpt lat="29.5554051" lon="103.345126"><ele>2143.45</ele><time>2026-07-19T04:33:09.000Z</time></trkpt>
        <trkpt lat="29.555353" lon="103.3450715"><ele>2146.49</ele><time>2026-07-19T04:33:41.000Z</time></trkpt>
        <trkpt lat="29.5552786" lon="103.3450104"><ele>2151.02</ele><time>2026-07-19T04:33:59.000Z</time></trkpt>
        <trkpt lat="29.5552052" lon="103.3450518"><ele>2155.18</ele><time>2026-07-19T04:34:21.000Z</time></trkpt>
        <trkpt lat="29.5551261" lon="103.3451373"><ele>2159.7</ele><time>2026-07-19T04:40:17.000Z</time></trkpt>
        <trkpt lat="29.5550256" lon="103.3451519"><ele>2163.4</ele><time>2026-07-19T04:40:35.000Z</time></trkpt>
        <trkpt lat="29.5549286" lon="103.3451546"><ele>2164.96</ele><time>2026-07-19T04:40:57.000Z</time></trkpt>
        <trkpt lat="29.5548428" lon="103.3451912"><ele>2168.12</ele><time>2026-07-19T04:41:27.000Z</time></trkpt>
        <trkpt lat="29.5547674" lon="103.3452474"><ele>2169.84</ele><time>2026-07-19T04:42:07.000Z</time></trkpt>
        <trkpt lat="29.5546895" lon="103.3452991"><ele>2173.2</ele><time>2026-07-19T04:42:57.000Z</time></trkpt>
        <trkpt lat="29.5546041" lon="103.3453299"><ele>2178.47</ele><time>2026-07-19T04:43:27.000Z</time></trkpt>
        <trkpt lat="29.5545243" lon="103.3453797"><ele>2183.07</ele><time>2026-07-19T04:44:01.000Z</time></trkpt>
        <trkpt lat="29.5544325" lon="103.3454093"><ele>2186.76</ele><time>2026-07-19T04:44:45.000Z</time></trkpt>
        <trkpt lat="29.5543387" lon="103.3454135"><ele>2191.23</ele><time>2026-07-19T04:45:15.000Z</time></trkpt>
        <trkpt lat="29.5542446" lon="103.3454165"><ele>2194.93</ele><time>2026-07-19T04:45:53.000Z</time></trkpt>
        <trkpt lat="29.5541583" lon="103.3454467"><ele>2200.13</ele><time>2026-07-19T04:46:41.000Z</time></trkpt>
        <trkpt lat="29.5540802" lon="103.3455061"><ele>2205.86</ele><time>2026-07-19T04:47:05.000Z</time></trkpt>
        <trkpt lat="29.5540004" lon="103.3454886"><ele>2209.23</ele><time>2026-07-19T04:47:27.000Z</time></trkpt>
        <trkpt lat="29.5539259" lon="103.3454311"><ele>2213.56</ele><time>2026-07-19T04:47:47.000Z</time></trkpt>
        <trkpt lat="29.5538479" lon="103.3453733"><ele>2216.5</ele><time>2026-07-19T04:48:11.000Z</time></trkpt>
        <trkpt lat="29.5537646" lon="103.3453281"><ele>2218.75</ele><time>2026-07-19T04:48:37.000Z</time></trkpt>
        <trkpt lat="29.5536774" lon="103.3452809"><ele>2221.88</ele><time>2026-07-19T04:49:01.000Z</time></trkpt>
        <trkpt lat="29.5535866" lon="103.3452828"><ele>2225.03</ele><time>2026-07-19T04:49:17.000Z</time></trkpt>
        <trkpt lat="29.5534895" lon="103.345292"><ele>2228.09</ele><time>2026-07-19T04:49:43.000Z</time></trkpt>
        <trkpt lat="29.5533972" lon="103.3453243"><ele>2230.58</ele><time>2026-07-19T04:50:03.000Z</time></trkpt>
        <trkpt lat="29.5533049" lon="103.3453679"><ele>2230.16</ele><time>2026-07-19T04:50:27.000Z</time></trkpt>
        <trkpt lat="29.5532143" lon="103.3453752"><ele>2231.85</ele><time>2026-07-19T04:50:41.000Z</time></trkpt>
        <trkpt lat="29.5531163" lon="103.345374"><ele>2233.59</ele><time>2026-07-19T04:50:55.000Z</time></trkpt>
        <trkpt lat="29.5530198" lon="103.3453766"><ele>2234.81</ele><time>2026-07-19T04:51:07.000Z</time></trkpt>
        <trkpt lat="29.5529176" lon="103.3453936"><ele>2235.61</ele><time>2026-07-19T04:51:21.000Z</time></trkpt>
        <trkpt lat="29.5528209" lon="103.3454114"><ele>2236.66</ele><time>2026-07-19T04:51:35.000Z</time></trkpt>
        <trkpt lat="29.5527244" lon="103.3454206"><ele>2237.27</ele><time>2026-07-19T04:51:49.000Z</time></trkpt>
        <trkpt lat="29.552628" lon="103.3454115"><ele>2237.79</ele><time>2026-07-19T04:52:03.000Z</time></trkpt>
        <trkpt lat="29.5525285" lon="103.3454212"><ele>2239.25</ele><time>2026-07-19T04:52:17.000Z</time></trkpt>
        <trkpt lat="29.5524301" lon="103.3454321"><ele>2240.67</ele><time>2026-07-19T04:52:33.000Z</time></trkpt>
        <trkpt lat="29.5524052" lon="103.3453575"><ele>2241.15</ele><time>2026-07-19T04:52:55.000Z</time></trkpt>
        <trkpt lat="29.5523772" lon="103.3452588"><ele>2237.52</ele><time>2026-07-19T04:53:15.000Z</time></trkpt>
        <trkpt lat="29.5523101" lon="103.3451879"><ele>2237.31</ele><time>2026-07-19T04:53:31.000Z</time></trkpt>
        <trkpt lat="29.552217" lon="103.3451415"><ele>2237.26</ele><time>2026-07-19T04:53:43.000Z</time></trkpt>
        <trkpt lat="29.5521122" lon="103.3451091"><ele>2238.76</ele><time>2026-07-19T04:53:55.000Z</time></trkpt>
        <trkpt lat="29.5520174" lon="103.3450671"><ele>2238.08</ele><time>2026-07-19T04:54:09.000Z</time></trkpt>
        <trkpt lat="29.5520453" lon="103.3449607"><ele>2237.92</ele><time>2026-07-19T04:56:29.000Z</time></trkpt>
        <trkpt lat="29.5520072" lon="103.3448588"><ele>2238.44</ele><time>2026-07-19T04:56:41.000Z</time></trkpt>
        <trkpt lat="29.5519504" lon="103.3447661"><ele>2237.25</ele><time>2026-07-19T04:56:55.000Z</time></trkpt>
        <trkpt lat="29.5518933" lon="103.3446749"><ele>2235.67</ele><time>2026-07-19T04:57:25.000Z</time></trkpt>
        <trkpt lat="29.5518447" lon="103.3445759"><ele>2233.3</ele><time>2026-07-19T04:57:37.000Z</time></trkpt>
        <trkpt lat="29.5518303" lon="103.3445149"><ele>2231.5</ele><time>2026-07-19T04:57:45.000Z</time></trkpt>
        <trkpt lat="29.551769" lon="103.3444499"><ele>2230.77</ele><time>2026-07-19T04:58:13.000Z</time></trkpt>
        <trkpt lat="29.5516912" lon="103.3443849"><ele>2231.27</ele><time>2026-07-19T04:58:27.000Z</time></trkpt>
        <trkpt lat="29.5516143" lon="103.3443149"><ele>2231.52</ele><time>2026-07-19T04:58:37.000Z</time></trkpt>
        <trkpt lat="29.5515366" lon="103.3442484"><ele>2232.83</ele><time>2026-07-19T04:58:53.000Z</time></trkpt>
        <trkpt lat="29.5514469" lon="103.3442107"><ele>2233.16</ele><time>2026-07-19T04:59:05.000Z</time></trkpt>
        <trkpt lat="29.5513532" lon="103.3441786"><ele>2233.13</ele><time>2026-07-19T04:59:19.000Z</time></trkpt>
        <trkpt lat="29.5512587" lon="103.3441564"><ele>2230.99</ele><time>2026-07-19T04:59:31.000Z</time></trkpt>
        <trkpt lat="29.5511539" lon="103.3441688"><ele>2229.66</ele><time>2026-07-19T04:59:43.000Z</time></trkpt>
        <trkpt lat="29.5510596" lon="103.3441531"><ele>2229.11</ele><time>2026-07-19T04:59:57.000Z</time></trkpt>
        <trkpt lat="29.5509639" lon="103.3441296"><ele>2228.96</ele><time>2026-07-19T05:00:09.000Z</time></trkpt>
        <trkpt lat="29.5508677" lon="103.344118"><ele>2227.93</ele><time>2026-07-19T05:00:19.000Z</time></trkpt>
        <trkpt lat="29.5507771" lon="103.3440918"><ele>2226.39</ele><time>2026-07-19T05:00:29.000Z</time></trkpt>
        <trkpt lat="29.5507437" lon="103.344006"><ele>2226.09</ele><time>2026-07-19T05:00:45.000Z</time></trkpt>
        <trkpt lat="29.5506823" lon="103.3439321"><ele>2226.59</ele><time>2026-07-19T05:01:01.000Z</time></trkpt>
        <trkpt lat="29.5506006" lon="103.343874"><ele>2227.54</ele><time>2026-07-19T05:01:15.000Z</time></trkpt>
        <trkpt lat="29.5505396" lon="103.3437937"><ele>2229.49</ele><time>2026-07-19T05:01:27.000Z</time></trkpt>
        <trkpt lat="29.5504767" lon="103.343708"><ele>2229.5</ele><time>2026-07-19T05:01:39.000Z</time></trkpt>
        <trkpt lat="29.5504109" lon="103.3436306"><ele>2229.9</ele><time>2026-07-19T05:01:49.000Z</time></trkpt>
        <trkpt lat="29.5503565" lon="103.3435457"><ele>2230.57</ele><time>2026-07-19T05:02:01.000Z</time></trkpt>
        <trkpt lat="29.5503055" lon="103.3434493"><ele>2231.74</ele><time>2026-07-19T05:02:13.000Z</time></trkpt>
        <trkpt lat="29.5502599" lon="103.3433501"><ele>2232.22</ele><time>2026-07-19T05:02:23.000Z</time></trkpt>
        <trkpt lat="29.5501968" lon="103.3432654"><ele>2232.21</ele><time>2026-07-19T05:02:33.000Z</time></trkpt>
        <trkpt lat="29.5501206" lon="103.343199"><ele>2232.35</ele><time>2026-07-19T05:02:43.000Z</time></trkpt>
        <trkpt lat="29.55005" lon="103.3431217"><ele>2231.98</ele><time>2026-07-19T05:02:55.000Z</time></trkpt>
        <trkpt lat="29.5499846" lon="103.34303"><ele>2232.91</ele><time>2026-07-19T05:03:09.000Z</time></trkpt>
        <trkpt lat="29.5499319" lon="103.3429382"><ele>2234.08</ele><time>2026-07-19T05:03:21.000Z</time></trkpt>
        <trkpt lat="29.549886" lon="103.3428322"><ele>2234.52</ele><time>2026-07-19T05:03:33.000Z</time></trkpt>
        <trkpt lat="29.549843" lon="103.3427289"><ele>2235.44</ele><time>2026-07-19T05:03:45.000Z</time></trkpt>
        <trkpt lat="29.5497906" lon="103.3426336"><ele>2236.28</ele><time>2026-07-19T05:03:57.000Z</time></trkpt>
        <trkpt lat="29.5497203" lon="103.3425478"><ele>2236.23</ele><time>2026-07-19T05:04:09.000Z</time></trkpt>
        <trkpt lat="29.5496537" lon="103.3424697"><ele>2236.87</ele><time>2026-07-19T05:04:19.000Z</time></trkpt>
        <trkpt lat="29.5495907" lon="103.3423914"><ele>2237.29</ele><time>2026-07-19T05:04:29.000Z</time></trkpt>
        <trkpt lat="29.5495174" lon="103.3423145"><ele>2238.47</ele><time>2026-07-19T05:04:41.000Z</time></trkpt>
        <trkpt lat="29.5494445" lon="103.3422337"><ele>2238.89</ele><time>2026-07-19T05:04:53.000Z</time></trkpt>
        <trkpt lat="29.5494043" lon="103.3421383"><ele>2238.49</ele><time>2026-07-19T05:05:05.000Z</time></trkpt>
        <trkpt lat="29.5493728" lon="103.342034"><ele>2239.14</ele><time>2026-07-19T05:05:21.000Z</time></trkpt>
        <trkpt lat="29.5493572" lon="103.3419233"><ele>2240.11</ele><time>2026-07-19T05:05:37.000Z</time></trkpt>
        <trkpt lat="29.5493284" lon="103.3418145"><ele>2240.38</ele><time>2026-07-19T05:08:21.000Z</time></trkpt>
        <trkpt lat="29.5492858" lon="103.3417095"><ele>2242.01</ele><time>2026-07-19T05:09:18.000Z</time></trkpt>
        <trkpt lat="29.5492551" lon="103.3416088"><ele>2239.56</ele><time>2026-07-19T05:09:26.000Z</time></trkpt>
        <trkpt lat="29.5492664" lon="103.3415031"><ele>2238.71</ele><time>2026-07-19T05:09:38.000Z</time></trkpt>
        <trkpt lat="29.5492608" lon="103.3413971"><ele>2240.48</ele><time>2026-07-19T05:09:58.000Z</time></trkpt>
        <trkpt lat="29.5491951" lon="103.34135"><ele>2243.16</ele><time>2026-07-19T05:10:14.000Z</time></trkpt>
        <trkpt lat="29.5491255" lon="103.3412768"><ele>2242.64</ele><time>2026-07-19T05:10:54.000Z</time></trkpt>
        <trkpt lat="29.5490743" lon="103.3411857"><ele>2245.98</ele><time>2026-07-19T05:11:16.000Z</time></trkpt>
        <trkpt lat="29.5489983" lon="103.3411334"><ele>2249.5</ele><time>2026-07-19T05:11:30.000Z</time></trkpt>
        <trkpt lat="29.5489135" lon="103.3410883"><ele>2252.81</ele><time>2026-07-19T05:11:42.000Z</time></trkpt>
        <trkpt lat="29.5488254" lon="103.3411421"><ele>2255.43</ele><time>2026-07-19T05:14:46.000Z</time></trkpt>
        <trkpt lat="29.5487311" lon="103.3411636"><ele>2257.9</ele><time>2026-07-19T05:15:28.000Z</time></trkpt>
        <trkpt lat="29.5486352" lon="103.3411658"><ele>2259.18</ele><time>2026-07-19T05:16:08.000Z</time></trkpt>
        <trkpt lat="29.548545" lon="103.3411913"><ele>2261.29</ele><time>2026-07-19T05:16:46.000Z</time></trkpt>
        <trkpt lat="29.5484524" lon="103.3412191"><ele>2265.66</ele><time>2026-07-19T05:17:16.000Z</time></trkpt>
        <trkpt lat="29.5483617" lon="103.3412186"><ele>2269.31</ele><time>2026-07-19T05:17:52.000Z</time></trkpt>
        <trkpt lat="29.5482718" lon="103.3412041"><ele>2273.59</ele><time>2026-07-19T05:18:30.000Z</time></trkpt>
        <trkpt lat="29.548181" lon="103.3411759"><ele>2277.47</ele><time>2026-07-19T05:18:56.000Z</time></trkpt>
        <trkpt lat="29.5480882" lon="103.3411558"><ele>2281.57</ele><time>2026-07-19T05:19:14.000Z</time></trkpt>
        <trkpt lat="29.5479974" lon="103.3411731"><ele>2284.22</ele><time>2026-07-19T05:19:30.000Z</time></trkpt>
        <trkpt lat="29.5479097" lon="103.3411578"><ele>2285.68</ele><time>2026-07-19T05:19:46.000Z</time></trkpt>
        <trkpt lat="29.5478132" lon="103.3411264"><ele>2287.86</ele><time>2026-07-19T05:20:44.000Z</time></trkpt>
        <trkpt lat="29.5477211" lon="103.3411038"><ele>2289.02</ele><time>2026-07-19T05:20:52.000Z</time></trkpt>
        <trkpt lat="29.5476177" lon="103.3410655"><ele>2292.02</ele><time>2026-07-19T05:21:40.000Z</time></trkpt>
        <trkpt lat="29.5475169" lon="103.341028"><ele>2294.58</ele><time>2026-07-19T05:21:50.000Z</time></trkpt>
        <trkpt lat="29.5474368" lon="103.3409225"><ele>2299.03</ele><time>2026-07-19T05:22:54.000Z</time></trkpt>
        <trkpt lat="29.5473759" lon="103.3408134"><ele>2302.21</ele><time>2026-07-19T05:23:00.000Z</time></trkpt>
        <trkpt lat="29.5473333" lon="103.3407131"><ele>2306.87</ele><time>2026-07-19T05:23:08.000Z</time></trkpt>
        <trkpt lat="29.5472811" lon="103.3406259"><ele>2309.49</ele><time>2026-07-19T05:23:26.000Z</time></trkpt>
        <trkpt lat="29.5472698" lon="103.3405231"><ele>2311.02</ele><time>2026-07-19T05:24:34.000Z</time></trkpt>
        <trkpt lat="29.547206" lon="103.3404396"><ele>2312.2</ele><time>2026-07-19T05:24:40.000Z</time></trkpt>
        <trkpt lat="29.547219" lon="103.3403412"><ele>2315.05</ele><time>2026-07-19T05:25:20.000Z</time></trkpt>
        <trkpt lat="29.5471696" lon="103.3402638"><ele>2317.51</ele><time>2026-07-19T05:26:10.000Z</time></trkpt>
        <trkpt lat="29.5471102" lon="103.3401868"><ele>2320.23</ele><time>2026-07-19T05:26:40.000Z</time></trkpt>
        <trkpt lat="29.5470786" lon="103.3400634"><ele>2323.69</ele><time>2026-07-19T05:27:50.000Z</time></trkpt>
        <trkpt lat="29.5470716" lon="103.3399557"><ele>2326.7</ele><time>2026-07-19T05:28:30.000Z</time></trkpt>
        <trkpt lat="29.5470629" lon="103.3398444"><ele>2331.31</ele><time>2026-07-19T05:29:00.000Z</time></trkpt>
        <trkpt lat="29.5470772" lon="103.3397389"><ele>2335.85</ele><time>2026-07-19T05:29:12.000Z</time></trkpt>
        <trkpt lat="29.5470265" lon="103.33965"><ele>2340.28</ele><time>2026-07-19T05:29:56.000Z</time></trkpt>
        <trkpt lat="29.5469672" lon="103.3395422"><ele>2344.56</ele><time>2026-07-19T05:31:06.000Z</time></trkpt>
        <trkpt lat="29.5468929" lon="103.3394337"><ele>2349.8</ele><time>2026-07-19T05:32:26.000Z</time></trkpt>
        <trkpt lat="29.5468237" lon="103.3393558"><ele>2357.13</ele><time>2026-07-19T05:32:32.000Z</time></trkpt>
        <trkpt lat="29.5467666" lon="103.3392639"><ele>2363.69</ele><time>2026-07-19T05:33:54.000Z</time></trkpt>
        <trkpt lat="29.5467108" lon="103.3391819"><ele>2369.76</ele><time>2026-07-19T05:34:00.000Z</time></trkpt>
        <trkpt lat="29.5466457" lon="103.3390957"><ele>2374.46</ele><time>2026-07-19T05:34:30.000Z</time></trkpt>
        <trkpt lat="29.5465903" lon="103.3390063"><ele>2378.29</ele><time>2026-07-19T05:34:48.000Z</time></trkpt>
        <trkpt lat="29.5465341" lon="103.3389228"><ele>2382.41</ele><time>2026-07-19T05:35:20.000Z</time></trkpt>
        <trkpt lat="29.5464554" lon="103.3388457"><ele>2386.02</ele><time>2026-07-19T05:36:30.000Z</time></trkpt>
        <trkpt lat="29.546391" lon="103.3387699"><ele>2391.59</ele><time>2026-07-19T05:36:46.000Z</time></trkpt>
        <trkpt lat="29.5463304" lon="103.3386935"><ele>2396.76</ele><time>2026-07-19T05:37:52.000Z</time></trkpt>
        <trkpt lat="29.5462602" lon="103.3386071"><ele>2400.85</ele><time>2026-07-19T05:38:10.000Z</time></trkpt>
        <trkpt lat="29.546238" lon="103.3385051"><ele>2402.09</ele><time>2026-07-19T05:38:24.000Z</time></trkpt>
        <trkpt lat="29.5462245" lon="103.3383886"><ele>2405.17</ele><time>2026-07-19T05:38:52.000Z</time></trkpt>
        <trkpt lat="29.5462233" lon="103.3382719"><ele>2410.24</ele><time>2026-07-19T05:39:12.000Z</time></trkpt>
        <trkpt lat="29.5462345" lon="103.3381399"><ele>2414.35</ele><time>2026-07-19T05:40:12.000Z</time></trkpt>
        <trkpt lat="29.5462585" lon="103.3380242"><ele>2418.12</ele><time>2026-07-19T05:40:18.000Z</time></trkpt>
        <trkpt lat="29.5463114" lon="103.3379233"><ele>2420.48</ele><time>2026-07-19T05:40:28.000Z</time></trkpt>
        <trkpt lat="29.5463648" lon="103.3378334"><ele>2422.51</ele><time>2026-07-19T05:40:38.000Z</time></trkpt>
        <trkpt lat="29.5464028" lon="103.3377391"><ele>2423.05</ele><time>2026-07-19T05:40:50.000Z</time></trkpt>
        <trkpt lat="29.5464238" lon="103.3376339"><ele>2423.71</ele><time>2026-07-19T05:41:04.000Z</time></trkpt>
        <trkpt lat="29.5464695" lon="103.337536"><ele>2424.81</ele><time>2026-07-19T05:41:16.000Z</time></trkpt>
        <trkpt lat="29.5465397" lon="103.3374697"><ele>2424.91</ele><time>2026-07-19T05:41:26.000Z</time></trkpt>
        <trkpt lat="29.5465872" lon="103.3373848"><ele>2425.29</ele><time>2026-07-19T05:41:36.000Z</time></trkpt>
        <trkpt lat="29.5466411" lon="103.3372919"><ele>2425.79</ele><time>2026-07-19T05:41:52.000Z</time></trkpt>
        <trkpt lat="29.5466476" lon="103.3371867"><ele>2427.03</ele><time>2026-07-19T05:42:08.000Z</time></trkpt>
        <trkpt lat="29.5466162" lon="103.3370858"><ele>2427.69</ele><time>2026-07-19T05:42:26.000Z</time></trkpt>
        <trkpt lat="29.5465617" lon="103.3369856"><ele>2429.06</ele><time>2026-07-19T05:43:05.000Z</time></trkpt>
        <trkpt lat="29.5465059" lon="103.3368857"><ele>2432.03</ele><time>2026-07-19T05:43:27.000Z</time></trkpt>
        <trkpt lat="29.5464667" lon="103.3367802"><ele>2430.21</ele><time>2026-07-19T05:43:41.000Z</time></trkpt>
        <trkpt lat="29.5464556" lon="103.3366723"><ele>2428.04</ele><time>2026-07-19T05:45:33.000Z</time></trkpt>
        <trkpt lat="29.5464721" lon="103.3365662"><ele>2427.38</ele><time>2026-07-19T05:46:13.000Z</time></trkpt>
        <trkpt lat="29.5465142" lon="103.3364741"><ele>2426.37</ele><time>2026-07-19T05:46:27.000Z</time></trkpt>
        <trkpt lat="29.546541" lon="103.3363657"><ele>2426.05</ele><time>2026-07-19T05:46:49.000Z</time></trkpt>
        <trkpt lat="29.5465323" lon="103.3362542"><ele>2424.48</ele><time>2026-07-19T05:47:07.000Z</time></trkpt>
        <trkpt lat="29.5465561" lon="103.3361549"><ele>2421.66</ele><time>2026-07-19T05:47:23.000Z</time></trkpt>
        <trkpt lat="29.546605" lon="103.3360626"><ele>2417.8</ele><time>2026-07-19T05:47:37.000Z</time></trkpt>
        <trkpt lat="29.5466443" lon="103.335957"><ele>2415.76</ele><time>2026-07-19T05:47:53.000Z</time></trkpt>
        <trkpt lat="29.5466785" lon="103.3358492"><ele>2413.67</ele><time>2026-07-19T05:48:07.000Z</time></trkpt>
        <trkpt lat="29.5466933" lon="103.3357385"><ele>2412.3</ele><time>2026-07-19T05:48:21.000Z</time></trkpt>
        <trkpt lat="29.5467077" lon="103.3356338"><ele>2409.41</ele><time>2026-07-19T05:48:35.000Z</time></trkpt>
        <trkpt lat="29.5467456" lon="103.3355283"><ele>2407.33</ele><time>2026-07-19T05:48:47.000Z</time></trkpt>
        <trkpt lat="29.5467813" lon="103.3354287"><ele>2404.69</ele><time>2026-07-19T05:48:57.000Z</time></trkpt>
        <trkpt lat="29.546803" lon="103.3353271"><ele>2403.88</ele><time>2026-07-19T05:49:11.000Z</time></trkpt>
        <trkpt lat="29.5468235" lon="103.3352176"><ele>2403.55</ele><time>2026-07-19T05:49:27.000Z</time></trkpt>
        <trkpt lat="29.5468188" lon="103.3351064"><ele>2403.63</ele><time>2026-07-19T05:49:41.000Z</time></trkpt>
        <trkpt lat="29.5467773" lon="103.3350064"><ele>2402.71</ele><time>2026-07-19T05:49:57.000Z</time></trkpt>
        <trkpt lat="29.5467091" lon="103.3349314"><ele>2400.01</ele><time>2026-07-19T05:50:11.000Z</time></trkpt>
        <trkpt lat="29.5466268" lon="103.3348754"><ele>2397.84</ele><time>2026-07-19T05:50:25.000Z</time></trkpt>
        <trkpt lat="29.5465399" lon="103.3348305"><ele>2395.05</ele><time>2026-07-19T05:50:39.000Z</time></trkpt>
        <trkpt lat="29.5464484" lon="103.3348014"><ele>2394.35</ele><time>2026-07-19T05:50:51.000Z</time></trkpt>
        <trkpt lat="29.5463643" lon="103.3347591"><ele>2394.86</ele><time>2026-07-19T05:51:11.000Z</time></trkpt>
        <trkpt lat="29.5462765" lon="103.3347297"><ele>2397.32</ele><time>2026-07-19T05:51:41.000Z</time></trkpt>
        <trkpt lat="29.5461849" lon="103.334755"><ele>2401.41</ele><time>2026-07-19T05:52:09.000Z</time></trkpt>
        <trkpt lat="29.5460911" lon="103.3347485"><ele>2400.8</ele><time>2026-07-19T05:52:25.000Z</time></trkpt>
        <trkpt lat="29.5459987" lon="103.3347145"><ele>2401.9</ele><time>2026-07-19T05:52:41.000Z</time></trkpt>
        <trkpt lat="29.5459034" lon="103.3347059"><ele>2402.74</ele><time>2026-07-19T05:52:59.000Z</time></trkpt>
        <trkpt lat="29.5458591" lon="103.3346223"><ele>2403.88</ele><time>2026-07-19T05:53:23.000Z</time></trkpt>
        <trkpt lat="29.5458072" lon="103.3345314"><ele>2402</ele><time>2026-07-19T05:53:37.000Z</time></trkpt>
        <trkpt lat="29.545735" lon="103.3344628"><ele>2400.47</ele><time>2026-07-19T05:53:49.000Z</time></trkpt>
        <trkpt lat="29.5456514" lon="103.334414"><ele>2399.03</ele><time>2026-07-19T05:54:03.000Z</time></trkpt>
        <trkpt lat="29.5455595" lon="103.3343736"><ele>2396.22</ele><time>2026-07-19T05:54:17.000Z</time></trkpt>
        <trkpt lat="29.5454693" lon="103.3343412"><ele>2393.98</ele><time>2026-07-19T05:54:43.000Z</time></trkpt>
        <trkpt lat="29.5453863" lon="103.3342904"><ele>2395.02</ele><time>2026-07-19T05:55:05.000Z</time></trkpt>
        <trkpt lat="29.5453166" lon="103.3342194"><ele>2396.21</ele><time>2026-07-19T05:55:19.000Z</time></trkpt>
        <trkpt lat="29.5452581" lon="103.3341384"><ele>2397.01</ele><time>2026-07-19T05:55:31.000Z</time></trkpt>
        <trkpt lat="29.5451822" lon="103.3340726"><ele>2398.37</ele><time>2026-07-19T05:55:51.000Z</time></trkpt>
        <trkpt lat="29.5450871" lon="103.3340342"><ele>2399.73</ele><time>2026-07-19T05:56:07.000Z</time></trkpt>
        <trkpt lat="29.544985" lon="103.3340299"><ele>2398.94</ele><time>2026-07-19T05:56:23.000Z</time></trkpt>
        <trkpt lat="29.5448887" lon="103.3340352"><ele>2398.03</ele><time>2026-07-19T05:56:35.000Z</time></trkpt>
        <trkpt lat="29.5448" lon="103.3340801"><ele>2396.76</ele><time>2026-07-19T05:56:47.000Z</time></trkpt>
        <trkpt lat="29.5447391" lon="103.3341737"><ele>2396.03</ele><time>2026-07-19T05:56:59.000Z</time></trkpt>
        <trkpt lat="29.5446678" lon="103.3342479"><ele>2395.28</ele><time>2026-07-19T05:57:15.000Z</time></trkpt>
        <trkpt lat="29.5445797" lon="103.3342406"><ele>2392.72</ele><time>2026-07-19T05:57:29.000Z</time></trkpt>
        <trkpt lat="29.5444807" lon="103.3342044"><ele>2391.57</ele><time>2026-07-19T05:57:41.000Z</time></trkpt>
        <trkpt lat="29.544381" lon="103.3341747"><ele>2391.08</ele><time>2026-07-19T05:57:51.000Z</time></trkpt>
        <trkpt lat="29.544282" lon="103.334154"><ele>2391.01</ele><time>2026-07-19T05:58:05.000Z</time></trkpt>
        <trkpt lat="29.5441892" lon="103.3341352"><ele>2391.57</ele><time>2026-07-19T05:58:19.000Z</time></trkpt>
        <trkpt lat="29.544096" lon="103.3341067"><ele>2392.39</ele><time>2026-07-19T05:58:33.000Z</time></trkpt>
        <trkpt lat="29.5440116" lon="103.3340525"><ele>2393.42</ele><time>2026-07-19T05:58:47.000Z</time></trkpt>
        <trkpt lat="29.5439404" lon="103.3339656"><ele>2393.71</ele><time>2026-07-19T06:00:15.000Z</time></trkpt>
        <trkpt lat="29.5438548" lon="103.3339103"><ele>2396.49</ele><time>2026-07-19T06:00:29.000Z</time></trkpt>
        <trkpt lat="29.5437564" lon="103.3338997"><ele>2397.12</ele><time>2026-07-19T06:00:45.000Z</time></trkpt>
        <trkpt lat="29.5436615" lon="103.3338896"><ele>2397.25</ele><time>2026-07-19T06:00:57.000Z</time></trkpt>
        <trkpt lat="29.5435881" lon="103.3338235"><ele>2396.81</ele><time>2026-07-19T06:01:11.000Z</time></trkpt>
        <trkpt lat="29.5435259" lon="103.3337377"><ele>2396.59</ele><time>2026-07-19T06:01:27.000Z</time></trkpt>
        <trkpt lat="29.5434508" lon="103.3336687"><ele>2396.71</ele><time>2026-07-19T06:02:14.000Z</time></trkpt>
        <trkpt lat="29.5434182" lon="103.3335735"><ele>2394.77</ele><time>2026-07-19T06:02:26.000Z</time></trkpt>
        <trkpt lat="29.5433993" lon="103.3334549"><ele>2393.02</ele><time>2026-07-19T06:02:38.000Z</time></trkpt>
        <trkpt lat="29.5433781" lon="103.3333353"><ele>2392</ele><time>2026-07-19T06:02:50.000Z</time></trkpt>
        <trkpt lat="29.5433567" lon="103.3332213"><ele>2391.62</ele><time>2026-07-19T06:03:04.000Z</time></trkpt>
        <trkpt lat="29.5433044" lon="103.333135"><ele>2390.89</ele><time>2026-07-19T06:03:16.000Z</time></trkpt>
        <trkpt lat="29.5432551" lon="103.3330414"><ele>2390.09</ele><time>2026-07-19T06:03:36.000Z</time></trkpt>
        <trkpt lat="29.5431696" lon="103.3329836"><ele>2389.13</ele><time>2026-07-19T06:03:54.000Z</time></trkpt>
        <trkpt lat="29.5430647" lon="103.332966"><ele>2389.82</ele><time>2026-07-19T06:04:06.000Z</time></trkpt>
        <trkpt lat="29.5429676" lon="103.3329387"><ele>2390.02</ele><time>2026-07-19T06:04:18.000Z</time></trkpt>
        <trkpt lat="29.5428872" lon="103.3328819"><ele>2390.26</ele><time>2026-07-19T06:04:34.000Z</time></trkpt>
        <trkpt lat="29.5428221" lon="103.3328065"><ele>2390.37</ele><time>2026-07-19T06:04:48.000Z</time></trkpt>
        <trkpt lat="29.5427749" lon="103.3327117"><ele>2390.51</ele><time>2026-07-19T06:05:02.000Z</time></trkpt>
        <trkpt lat="29.5427025" lon="103.332646"><ele>2391.02</ele><time>2026-07-19T06:05:14.000Z</time></trkpt>
        <trkpt lat="29.5426144" lon="103.3326108"><ele>2391.05</ele><time>2026-07-19T06:05:24.000Z</time></trkpt>
        <trkpt lat="29.542553" lon="103.3325261"><ele>2390.62</ele><time>2026-07-19T06:05:36.000Z</time></trkpt>
        <trkpt lat="29.5425364" lon="103.3324237"><ele>2390.67</ele><time>2026-07-19T06:05:52.000Z</time></trkpt>
        <trkpt lat="29.5424967" lon="103.3323258"><ele>2390.75</ele><time>2026-07-19T06:06:08.000Z</time></trkpt>
        <trkpt lat="29.5424595" lon="103.3322139"><ele>2390.69</ele><time>2026-07-19T06:06:20.000Z</time></trkpt>
        <trkpt lat="29.5424322" lon="103.3321032"><ele>2390.76</ele><time>2026-07-19T06:06:34.000Z</time></trkpt>
        <trkpt lat="29.5423747" lon="103.332015"><ele>2391.21</ele><time>2026-07-19T06:06:46.000Z</time></trkpt>
        <trkpt lat="29.5422835" lon="103.3319675"><ele>2391.32</ele><time>2026-07-19T06:07:42.000Z</time></trkpt>
        <trkpt lat="29.5421849" lon="103.3319727"><ele>2391.48</ele><time>2026-07-19T06:07:52.000Z</time></trkpt>
        <trkpt lat="29.5420828" lon="103.3319612"><ele>2391.57</ele><time>2026-07-19T06:08:10.000Z</time></trkpt>
        <trkpt lat="29.542012" lon="103.3320261"><ele>2390.3</ele><time>2026-07-19T06:08:28.000Z</time></trkpt>
        <trkpt lat="29.5419284" lon="103.3320677"><ele>2389.36</ele><time>2026-07-19T06:08:48.000Z</time></trkpt>
        <trkpt lat="29.5418307" lon="103.3320852"><ele>2388.84</ele><time>2026-07-19T06:09:02.000Z</time></trkpt>
        <trkpt lat="29.5417349" lon="103.3320741"><ele>2388.43</ele><time>2026-07-19T06:09:14.000Z</time></trkpt>
        <trkpt lat="29.5417158" lon="103.3319886"><ele>2388.47</ele><time>2026-07-19T06:09:28.000Z</time></trkpt>
        <trkpt lat="29.5417823" lon="103.3319021"><ele>2387.75</ele><time>2026-07-19T06:09:44.000Z</time></trkpt>
        <trkpt lat="29.5418525" lon="103.3318051"><ele>2388.33</ele><time>2026-07-19T06:09:54.000Z</time></trkpt>
        <trkpt lat="29.541864" lon="103.3316899"><ele>2388.71</ele><time>2026-07-19T06:10:06.000Z</time></trkpt>
        <trkpt lat="29.5417902" lon="103.3316422"><ele>2388.82</ele><time>2026-07-19T06:10:18.000Z</time></trkpt>
        <trkpt lat="29.5416873" lon="103.3316447"><ele>2388.81</ele><time>2026-07-19T06:10:30.000Z</time></trkpt>
        <trkpt lat="29.5415812" lon="103.3316628"><ele>2388.32</ele><time>2026-07-19T06:10:42.000Z</time></trkpt>
        <trkpt lat="29.5414713" lon="103.331679"><ele>2388.09</ele><time>2026-07-19T06:10:54.000Z</time></trkpt>
        <trkpt lat="29.5413685" lon="103.3317027"><ele>2387.99</ele><time>2026-07-19T06:11:06.000Z</time></trkpt>
        <trkpt lat="29.5412647" lon="103.3317302"><ele>2388.25</ele><time>2026-07-19T06:11:18.000Z</time></trkpt>
        <trkpt lat="29.5411691" lon="103.331745"><ele>2388.56</ele><time>2026-07-19T06:11:32.000Z</time></trkpt>
        <trkpt lat="29.5410815" lon="103.3317772"><ele>2388.72</ele><time>2026-07-19T06:11:52.000Z</time></trkpt>
        <trkpt lat="29.5409924" lon="103.3318081"><ele>2388.82</ele><time>2026-07-19T06:12:14.000Z</time></trkpt>
        <trkpt lat="29.540899" lon="103.3317971"><ele>2392.41</ele><time>2026-07-19T06:12:42.000Z</time></trkpt>
        <trkpt lat="29.5408018" lon="103.3317686"><ele>2395.5</ele><time>2026-07-19T06:13:00.000Z</time></trkpt>
        <trkpt lat="29.5407016" lon="103.3317679"><ele>2393.8</ele><time>2026-07-19T06:13:18.000Z</time></trkpt>
        <trkpt lat="29.5406178" lon="103.3318084"><ele>2394.18</ele><time>2026-07-19T06:13:32.000Z</time></trkpt>
        <trkpt lat="29.5405458" lon="103.3318811"><ele>2394.72</ele><time>2026-07-19T06:13:52.000Z</time></trkpt>
        <trkpt lat="29.5404639" lon="103.3319522"><ele>2394.76</ele><time>2026-07-19T06:14:08.000Z</time></trkpt>
        <trkpt lat="29.5403742" lon="103.3320064"><ele>2395.79</ele><time>2026-07-19T06:14:20.000Z</time></trkpt>
        <trkpt lat="29.5402883" lon="103.3320548"><ele>2397.82</ele><time>2026-07-19T06:14:38.000Z</time></trkpt>
        <trkpt lat="29.5402101" lon="103.3321332"><ele>2397.96</ele><time>2026-07-19T06:15:48.000Z</time></trkpt>
        <trkpt lat="29.5402121" lon="103.3321036"><ele>2398.57</ele><time>2026-07-19T06:15:50.000Z</time></trkpt>
        <trkpt lat="29.5401447" lon="103.3316412"><ele>2398.89</ele><time>2026-07-19T06:16:48.000Z</time></trkpt>
        <trkpt lat="29.5402037" lon="103.3319409"><ele>2397.18</ele><time>2026-07-19T06:16:58.000Z</time></trkpt>
        <trkpt lat="29.5401331" lon="103.3321174"><ele>2398.28</ele><time>2026-07-19T06:18:09.000Z</time></trkpt>
        <trkpt lat="29.5400404" lon="103.3321493"><ele>2399.28</ele><time>2026-07-19T06:18:20.000Z</time></trkpt>
        <trkpt lat="29.5399494" lon="103.3321898"><ele>2400.75</ele><time>2026-07-19T06:18:33.000Z</time></trkpt>
        <trkpt lat="29.5398508" lon="103.3322384"><ele>2400.65</ele><time>2026-07-19T06:18:47.000Z</time></trkpt>
        <trkpt lat="29.5397674" lon="103.3323"><ele>2399.96</ele><time>2026-07-19T06:18:59.000Z</time></trkpt>
        <trkpt lat="29.5396822" lon="103.3323577"><ele>2399.13</ele><time>2026-07-19T06:19:13.000Z</time></trkpt>
        <trkpt lat="29.5396236" lon="103.3324385"><ele>2397.26</ele><time>2026-07-19T06:19:31.000Z</time></trkpt>
        <trkpt lat="29.5395411" lon="103.3325459"><ele>2397.38</ele><time>2026-07-19T06:20:46.000Z</time></trkpt>
        <trkpt lat="29.539461" lon="103.3326072"><ele>2399.38</ele><time>2026-07-19T06:20:54.000Z</time></trkpt>
        <trkpt lat="29.5393957" lon="103.3326794"><ele>2400.82</ele><time>2026-07-19T06:21:06.000Z</time></trkpt>
        <trkpt lat="29.5393125" lon="103.3327332"><ele>2403.5</ele><time>2026-07-19T06:21:20.000Z</time></trkpt>
        <trkpt lat="29.5392339" lon="103.3327967"><ele>2405.52</ele><time>2026-07-19T06:21:41.000Z</time></trkpt>
        <trkpt lat="29.5391524" lon="103.3328458"><ele>2408.83</ele><time>2026-07-19T06:21:55.000Z</time></trkpt>
        <trkpt lat="29.5390745" lon="103.3329042"><ele>2411.16</ele><time>2026-07-19T06:22:07.000Z</time></trkpt>
        <trkpt lat="29.5389957" lon="103.3329713"><ele>2412.23</ele><time>2026-07-19T06:22:23.000Z</time></trkpt>
        <trkpt lat="29.5389223" lon="103.3330423"><ele>2413.07</ele><time>2026-07-19T06:22:35.000Z</time></trkpt>
        <trkpt lat="29.5388367" lon="103.3330968"><ele>2414.95</ele><time>2026-07-19T06:22:49.000Z</time></trkpt>
        <trkpt lat="29.5387474" lon="103.3331316"><ele>2416.99</ele><time>2026-07-19T06:23:09.000Z</time></trkpt>
        <trkpt lat="29.5386352" lon="103.333152"><ele>2417.32</ele><time>2026-07-19T06:23:31.000Z</time></trkpt>
        <trkpt lat="29.5385303" lon="103.3331651"><ele>2417.04</ele><time>2026-07-19T06:23:41.000Z</time></trkpt>
        <trkpt lat="29.5384267" lon="103.3331731"><ele>2418.13</ele><time>2026-07-19T06:23:55.000Z</time></trkpt>
        <trkpt lat="29.5383263" lon="103.3331869"><ele>2419.45</ele><time>2026-07-19T06:24:11.000Z</time></trkpt>
        <trkpt lat="29.5382438" lon="103.3332433"><ele>2420.6</ele><time>2026-07-19T06:24:23.000Z</time></trkpt>
        <trkpt lat="29.5381384" lon="103.3333247"><ele>2422.57</ele><time>2026-07-19T06:24:53.000Z</time></trkpt>
        <trkpt lat="29.5380509" lon="103.3334105"><ele>2419.38</ele><time>2026-07-19T06:24:59.000Z</time></trkpt>
        <trkpt lat="29.537965" lon="103.3334889"><ele>2418.16</ele><time>2026-07-19T06:25:09.000Z</time></trkpt>
        <trkpt lat="29.5378721" lon="103.3335307"><ele>2419.1</ele><time>2026-07-19T06:25:23.000Z</time></trkpt>
        <trkpt lat="29.5377805" lon="103.3335983"><ele>2421.66</ele><time>2026-07-19T06:26:29.000Z</time></trkpt>
        <trkpt lat="29.5377018" lon="103.333666"><ele>2424.21</ele><time>2026-07-19T06:26:39.000Z</time></trkpt>
        <trkpt lat="29.5376329" lon="103.3337381"><ele>2425.51</ele><time>2026-07-19T06:26:55.000Z</time></trkpt>
        <trkpt lat="29.5375472" lon="103.3337716"><ele>2426.43</ele><time>2026-07-19T06:27:11.000Z</time></trkpt>
        <trkpt lat="29.5374498" lon="103.3337625"><ele>2428.83</ele><time>2026-07-19T06:27:41.000Z</time></trkpt>
        <trkpt lat="29.537352" lon="103.3337479"><ele>2431.4</ele><time>2026-07-19T06:27:59.000Z</time></trkpt>
        <trkpt lat="29.5372801" lon="103.3338137"><ele>2432.24</ele><time>2026-07-19T06:28:13.000Z</time></trkpt>
        <trkpt lat="29.5372418" lon="103.33391"><ele>2434.08</ele><time>2026-07-19T06:28:35.000Z</time></trkpt>
        <trkpt lat="29.537218" lon="103.3340234"><ele>2436.15</ele><time>2026-07-19T06:29:03.000Z</time></trkpt>
        <trkpt lat="29.5371731" lon="103.3341224"><ele>2437.89</ele><time>2026-07-19T06:29:21.000Z</time></trkpt>
        <trkpt lat="29.5370926" lon="103.3341646"><ele>2440.78</ele><time>2026-07-19T06:29:43.000Z</time></trkpt>
        <trkpt lat="29.5370082" lon="103.3342082"><ele>2442.56</ele><time>2026-07-19T06:30:01.000Z</time></trkpt>
        <trkpt lat="29.5369187" lon="103.3342336"><ele>2444.28</ele><time>2026-07-19T06:30:25.000Z</time></trkpt>
        <trkpt lat="29.5368266" lon="103.3342644"><ele>2446.58</ele><time>2026-07-19T06:30:51.000Z</time></trkpt>
        <trkpt lat="29.5367359" lon="103.3342949"><ele>2446.43</ele><time>2026-07-19T06:31:19.000Z</time></trkpt>
        <trkpt lat="29.5366473" lon="103.3343416"><ele>2448.53</ele><time>2026-07-19T06:31:35.000Z</time></trkpt>
        <trkpt lat="29.5365571" lon="103.3343406"><ele>2450.12</ele><time>2026-07-19T06:31:47.000Z</time></trkpt>
        <trkpt lat="29.5364658" lon="103.3343236"><ele>2451.64</ele><time>2026-07-19T06:31:57.000Z</time></trkpt>
        <trkpt lat="29.5363674" lon="103.3343079"><ele>2452.92</ele><time>2026-07-19T06:32:15.000Z</time></trkpt>
        <trkpt lat="29.536273" lon="103.3343218"><ele>2453.17</ele><time>2026-07-19T06:32:43.000Z</time></trkpt>
        <trkpt lat="29.5361871" lon="103.3342937"><ele>2454.51</ele><time>2026-07-19T06:33:05.000Z</time></trkpt>
        <trkpt lat="29.5361018" lon="103.3342452"><ele>2455.41</ele><time>2026-07-19T06:33:23.000Z</time></trkpt>
        <trkpt lat="29.5360122" lon="103.3341945"><ele>2455.48</ele><time>2026-07-19T06:33:55.000Z</time></trkpt>
        <trkpt lat="29.5359259" lon="103.3341371"><ele>2457.74</ele><time>2026-07-19T06:34:41.000Z</time></trkpt>
        <trkpt lat="29.5358512" lon="103.3340698"><ele>2460.66</ele><time>2026-07-19T06:34:55.000Z</time></trkpt>
        <trkpt lat="29.5357692" lon="103.3340149"><ele>2462.1</ele><time>2026-07-19T06:35:09.000Z</time></trkpt>
        <trkpt lat="29.5356786" lon="103.3339724"><ele>2464.17</ele><time>2026-07-19T06:35:23.000Z</time></trkpt>
        <trkpt lat="29.5355891" lon="103.3339279"><ele>2466.58</ele><time>2026-07-19T06:35:39.000Z</time></trkpt>
        <trkpt lat="29.5355465" lon="103.3338412"><ele>2467.84</ele><time>2026-07-19T06:36:23.000Z</time></trkpt>
        <trkpt lat="29.5354896" lon="103.333756"><ele>2471.2</ele><time>2026-07-19T06:36:49.000Z</time></trkpt>
        <trkpt lat="29.5354225" lon="103.3336778"><ele>2474.52</ele><time>2026-07-19T06:37:03.000Z</time></trkpt>
        <trkpt lat="29.535408" lon="103.333569"><ele>2475.38</ele><time>2026-07-19T06:37:17.000Z</time></trkpt>
        <trkpt lat="29.5354155" lon="103.3334519"><ele>2476.9</ele><time>2026-07-19T06:37:29.000Z</time></trkpt>
        <trkpt lat="29.5354352" lon="103.3333335"><ele>2477.64</ele><time>2026-07-19T06:37:41.000Z</time></trkpt>
        <trkpt lat="29.5354374" lon="103.3332217"><ele>2479.12</ele><time>2026-07-19T06:37:53.000Z</time></trkpt>
        <trkpt lat="29.5354278" lon="103.3331154"><ele>2480.46</ele><time>2026-07-19T06:38:05.000Z</time></trkpt>
        <trkpt lat="29.5354011" lon="103.3330116"><ele>2481.13</ele><time>2026-07-19T06:38:17.000Z</time></trkpt>
        <trkpt lat="29.535347" lon="103.332927"><ele>2481.36</ele><time>2026-07-19T06:38:29.000Z</time></trkpt>
        <trkpt lat="29.5352747" lon="103.3328487"><ele>2480.97</ele><time>2026-07-19T06:38:43.000Z</time></trkpt>
        <trkpt lat="29.5351989" lon="103.3327833"><ele>2481.34</ele><time>2026-07-19T06:38:55.000Z</time></trkpt>
        <trkpt lat="29.5351263" lon="103.3327095"><ele>2481.64</ele><time>2026-07-19T06:39:07.000Z</time></trkpt>
        <trkpt lat="29.5350749" lon="103.3326052"><ele>2481.5</ele><time>2026-07-19T06:39:17.000Z</time></trkpt>
        <trkpt lat="29.5350456" lon="103.3324914"><ele>2482.61</ele><time>2026-07-19T06:39:29.000Z</time></trkpt>
        <trkpt lat="29.5350362" lon="103.3323725"><ele>2483.57</ele><time>2026-07-19T06:39:41.000Z</time></trkpt>
        <trkpt lat="29.5350338" lon="103.3322566"><ele>2484.31</ele><time>2026-07-19T06:39:53.000Z</time></trkpt>
        <trkpt lat="29.5350299" lon="103.3321378"><ele>2485.39</ele><time>2026-07-19T06:40:05.000Z</time></trkpt>
        <trkpt lat="29.5350164" lon="103.3320247"><ele>2486.22</ele><time>2026-07-19T06:40:15.000Z</time></trkpt>
        <trkpt lat="29.535013" lon="103.331918"><ele>2485.9</ele><time>2026-07-19T06:40:27.000Z</time></trkpt>
        <trkpt lat="29.5350076" lon="103.3318039"><ele>2485.36</ele><time>2026-07-19T06:40:41.000Z</time></trkpt>
        <trkpt lat="29.5349935" lon="103.3316888"><ele>2484.83</ele><time>2026-07-19T06:40:53.000Z</time></trkpt>
        <trkpt lat="29.5349764" lon="103.3315812"><ele>2484.84</ele><time>2026-07-19T06:41:03.000Z</time></trkpt>
        <trkpt lat="29.5349633" lon="103.3314708"><ele>2485.01</ele><time>2026-07-19T06:41:15.000Z</time></trkpt>
        <trkpt lat="29.5349063" lon="103.3313929"><ele>2485.06</ele><time>2026-07-19T06:41:25.000Z</time></trkpt>
        <trkpt lat="29.5348121" lon="103.331358"><ele>2485.23</ele><time>2026-07-19T06:41:37.000Z</time></trkpt>
        <trkpt lat="29.5347179" lon="103.3313856"><ele>2486.24</ele><time>2026-07-19T06:41:51.000Z</time></trkpt>
        <trkpt lat="29.5346886" lon="103.3314841"><ele>2488.19</ele><time>2026-07-19T06:42:01.000Z</time></trkpt>
        <trkpt lat="29.5346898" lon="103.3316012"><ele>2488.49</ele><time>2026-07-19T06:42:13.000Z</time></trkpt>
        <trkpt lat="29.534707" lon="103.3317251"><ele>2489.26</ele><time>2026-07-19T06:42:25.000Z</time></trkpt>
        <trkpt lat="29.5347269" lon="103.3318516"><ele>2489.69</ele><time>2026-07-19T06:42:39.000Z</time></trkpt>
        <trkpt lat="29.5347445" lon="103.3319639"><ele>2490.5</ele><time>2026-07-19T06:42:51.000Z</time></trkpt>
        <trkpt lat="29.534753" lon="103.3320805"><ele>2490.66</ele><time>2026-07-19T06:43:05.000Z</time></trkpt>
        <trkpt lat="29.5347346" lon="103.3321854"><ele>2491.65</ele><time>2026-07-19T06:43:19.000Z</time></trkpt>
        <trkpt lat="29.5347039" lon="103.3322953"><ele>2492.36</ele><time>2026-07-19T06:43:35.000Z</time></trkpt>
        <trkpt lat="29.5346801" lon="103.3324029"><ele>2491.95</ele><time>2026-07-19T06:43:47.000Z</time></trkpt>
        <trkpt lat="29.5346766" lon="103.3325083"><ele>2492.93</ele><time>2026-07-19T06:43:59.000Z</time></trkpt>
        <trkpt lat="29.5346958" lon="103.3326131"><ele>2495.01</ele><time>2026-07-19T06:44:09.000Z</time></trkpt>
        <trkpt lat="29.534727" lon="103.3327147"><ele>2496.71</ele><time>2026-07-19T06:44:21.000Z</time></trkpt>
        <trkpt lat="29.5347682" lon="103.332815"><ele>2497.85</ele><time>2026-07-19T06:44:35.000Z</time></trkpt>
        <trkpt lat="29.5348202" lon="103.3329092"><ele>2498.79</ele><time>2026-07-19T06:44:47.000Z</time></trkpt>
        <trkpt lat="29.5347721" lon="103.3329598"><ele>2500.77</ele><time>2026-07-19T06:45:45.000Z</time></trkpt>
        <trkpt lat="29.5346846" lon="103.333"><ele>2501.55</ele><time>2026-07-19T06:46:29.000Z</time></trkpt>
        <trkpt lat="29.5345877" lon="103.3330304"><ele>2502.25</ele><time>2026-07-19T06:47:01.000Z</time></trkpt>
        <trkpt lat="29.534496" lon="103.3330686"><ele>2503.1</ele><time>2026-07-19T06:47:27.000Z</time></trkpt>
        <trkpt lat="29.5344138" lon="103.3331218"><ele>2505.72</ele><time>2026-07-19T06:47:49.000Z</time></trkpt>
        <trkpt lat="29.5343263" lon="103.333151"><ele>2508.9</ele><time>2026-07-19T06:48:19.000Z</time></trkpt>
        <trkpt lat="29.5342458" lon="103.3331146"><ele>2511.48</ele><time>2026-07-19T06:48:57.000Z</time></trkpt>
        <trkpt lat="29.5341596" lon="103.3331327"><ele>2513.17</ele><time>2026-07-19T06:49:25.000Z</time></trkpt>
        <trkpt lat="29.5340905" lon="103.333197"><ele>2515.59</ele><time>2026-07-19T06:49:51.000Z</time></trkpt>
        <trkpt lat="29.5340115" lon="103.3332541"><ele>2516.76</ele><time>2026-07-19T06:50:17.000Z</time></trkpt>
        <trkpt lat="29.5339205" lon="103.3332655"><ele>2518.8</ele><time>2026-07-19T06:50:43.000Z</time></trkpt>
        <trkpt lat="29.5338926" lon="103.3332608"><ele>2520.96</ele><time>2026-07-19T06:50:45.000Z</time></trkpt>
        <trkpt lat="29.5338384" lon="103.3332018"><ele>2522.34</ele><time>2026-07-19T06:51:13.000Z</time></trkpt>
        <trkpt lat="29.5337752" lon="103.3331177"><ele>2523.1</ele><time>2026-07-19T06:51:59.000Z</time></trkpt>
        <trkpt lat="29.5337067" lon="103.3330389"><ele>2528.48</ele><time>2026-07-19T06:52:35.000Z</time></trkpt>
        <trkpt lat="29.5336359" lon="103.3329631"><ele>2534.07</ele><time>2026-07-19T06:53:15.000Z</time></trkpt>
        <trkpt lat="29.5335583" lon="103.3328957"><ele>2537.43</ele><time>2026-07-19T06:53:45.000Z</time></trkpt>
        <trkpt lat="29.5334819" lon="103.3328293"><ele>2542.77</ele><time>2026-07-19T06:54:25.000Z</time></trkpt>
        <trkpt lat="29.5334037" lon="103.332767"><ele>2548.7</ele><time>2026-07-19T06:54:55.000Z</time></trkpt>
        <trkpt lat="29.5333329" lon="103.3326991"><ele>2553.47</ele><time>2026-07-19T06:55:33.000Z</time></trkpt>
        <trkpt lat="29.5332524" lon="103.3326484"><ele>2557.19</ele><time>2026-07-19T06:56:09.000Z</time></trkpt>
        <trkpt lat="29.5331691" lon="103.3326049"><ele>2560.39</ele><time>2026-07-19T06:56:39.000Z</time></trkpt>
        <trkpt lat="29.5330897" lon="103.3325451"><ele>2561.51</ele><time>2026-07-19T06:57:07.000Z</time></trkpt>
        <trkpt lat="29.5330199" lon="103.3324738"><ele>2562.82</ele><time>2026-07-19T06:57:37.000Z</time></trkpt>
        <trkpt lat="29.5329502" lon="103.3323982"><ele>2565.27</ele><time>2026-07-19T06:58:01.000Z</time></trkpt>
        <trkpt lat="29.532884" lon="103.3323172"><ele>2568.06</ele><time>2026-07-19T06:58:23.000Z</time></trkpt>
        <trkpt lat="29.5328343" lon="103.3322232"><ele>2568.9</ele><time>2026-07-19T06:59:07.000Z</time></trkpt>
        <trkpt lat="29.5327858" lon="103.3321335"><ele>2573.87</ele><time>2026-07-19T06:59:31.000Z</time></trkpt>
        <trkpt lat="29.5327479" lon="103.3320388"><ele>2579.19</ele><time>2026-07-19T07:00:44.000Z</time></trkpt>
        <trkpt lat="29.5326662" lon="103.3319834"><ele>2582.65</ele><time>2026-07-19T07:04:54.000Z</time></trkpt>
        <trkpt lat="29.5326117" lon="103.3318942"><ele>2586.78</ele><time>2026-07-19T07:05:12.000Z</time></trkpt>
        <trkpt lat="29.5325831" lon="103.3317874"><ele>2591.31</ele><time>2026-07-19T07:06:08.000Z</time></trkpt>
        <trkpt lat="29.5325381" lon="103.3316755"><ele>2595.63</ele><time>2026-07-19T07:07:02.000Z</time></trkpt>
        <trkpt lat="29.5324703" lon="103.3315986"><ele>2598.04</ele><time>2026-07-19T07:07:22.000Z</time></trkpt>
        <trkpt lat="29.5324282" lon="103.3315025"><ele>2600.98</ele><time>2026-07-19T07:08:00.000Z</time></trkpt>
        <trkpt lat="29.5324138" lon="103.3313955"><ele>2605.86</ele><time>2026-07-19T07:08:32.000Z</time></trkpt>
        <trkpt lat="29.5323956" lon="103.3312899"><ele>2610.9</ele><time>2026-07-19T07:09:22.000Z</time></trkpt>
        <trkpt lat="29.5323348" lon="103.3312127"><ele>2614.65</ele><time>2026-07-19T07:09:34.000Z</time></trkpt>
        <trkpt lat="29.5322531" lon="103.3312935"><ele>2617.75</ele><time>2026-07-19T07:10:55.000Z</time></trkpt>
        <trkpt lat="29.5322066" lon="103.3313891"><ele>2620.45</ele><time>2026-07-19T07:11:05.000Z</time></trkpt>
        <trkpt lat="29.5321283" lon="103.3313194"><ele>2621.4</ele><time>2026-07-19T07:12:11.000Z</time></trkpt>
        <trkpt lat="29.5321443" lon="103.3312088"><ele>2624.25</ele><time>2026-07-19T07:12:21.000Z</time></trkpt>
        <trkpt lat="29.5321786" lon="103.3311012"><ele>2629.95</ele><time>2026-07-19T07:12:39.000Z</time></trkpt>
        <trkpt lat="29.5321839" lon="103.3309911"><ele>2635.12</ele><time>2026-07-19T07:13:05.000Z</time></trkpt>
        <trkpt lat="29.5321839" lon="103.3308822"><ele>2638.77</ele><time>2026-07-19T07:13:25.000Z</time></trkpt>
        <trkpt lat="29.5321508" lon="103.3307793"><ele>2641.02</ele><time>2026-07-19T07:13:39.000Z</time></trkpt>
        <trkpt lat="29.5321408" lon="103.3306703"><ele>2642.48</ele><time>2026-07-19T07:13:53.000Z</time></trkpt>
        <trkpt lat="29.5321673" lon="103.3305723"><ele>2643.13</ele><time>2026-07-19T07:14:15.000Z</time></trkpt>
        <trkpt lat="29.5321989" lon="103.3304735"><ele>2644.82</ele><time>2026-07-19T07:14:55.000Z</time></trkpt>
        <trkpt lat="29.5321603" lon="103.3303953"><ele>2648.08</ele><time>2026-07-19T07:15:13.000Z</time></trkpt>
        <trkpt lat="29.532153" lon="103.3303"><ele>2649.41</ele><time>2026-07-19T07:16:31.000Z</time></trkpt>
        <trkpt lat="29.5320989" lon="103.330214"><ele>2654.08</ele><time>2026-07-19T07:17:37.000Z</time></trkpt>
        <trkpt lat="29.5320065" lon="103.3302327"><ele>2659.05</ele><time>2026-07-19T07:18:25.000Z</time></trkpt>
        <trkpt lat="29.5319158" lon="103.3302372"><ele>2663.43</ele><time>2026-07-19T07:19:11.000Z</time></trkpt>
        <trkpt lat="29.5318414" lon="103.330187"><ele>2669.29</ele><time>2026-07-19T07:19:57.000Z</time></trkpt>
        <trkpt lat="29.531781" lon="103.3301088"><ele>2675.55</ele><time>2026-07-19T07:20:23.000Z</time></trkpt>
        <trkpt lat="29.5317111" lon="103.3300367"><ele>2680.05</ele><time>2026-07-19T07:20:47.000Z</time></trkpt>
        <trkpt lat="29.5316295" lon="103.329991"><ele>2683.07</ele><time>2026-07-19T07:21:17.000Z</time></trkpt>
        <trkpt lat="29.5315458" lon="103.3299462"><ele>2686.35</ele><time>2026-07-19T07:22:07.000Z</time></trkpt>
        <trkpt lat="29.5314601" lon="103.3299032"><ele>2690.45</ele><time>2026-07-19T07:23:01.000Z</time></trkpt>
        <trkpt lat="29.5313873" lon="103.3298416"><ele>2695.65</ele><time>2026-07-19T07:23:45.000Z</time></trkpt>
        <trkpt lat="29.5313257" lon="103.3297624"><ele>2700.23</ele><time>2026-07-19T07:24:49.000Z</time></trkpt>
        <trkpt lat="29.5312607" lon="103.3296852"><ele>2707.05</ele><time>2026-07-19T07:25:41.000Z</time></trkpt>
        <trkpt lat="29.5312174" lon="103.3295925"><ele>2712.36</ele><time>2026-07-19T07:26:27.000Z</time></trkpt>
        <trkpt lat="29.5311652" lon="103.3295064"><ele>2718.11</ele><time>2026-07-19T07:27:03.000Z</time></trkpt>
        <trkpt lat="29.5311399" lon="103.3294067"><ele>2722.8</ele><time>2026-07-19T07:27:27.000Z</time></trkpt>
        <trkpt lat="29.5311342" lon="103.3293006"><ele>2725.86</ele><time>2026-07-19T07:27:49.000Z</time></trkpt>
        <trkpt lat="29.5311174" lon="103.3291919"><ele>2730.22</ele><time>2026-07-19T07:28:13.000Z</time></trkpt>
        <trkpt lat="29.5311051" lon="103.3290827"><ele>2732.4</ele><time>2026-07-19T07:28:29.000Z</time></trkpt>
        <trkpt lat="29.531104" lon="103.3289751"><ele>2734.12</ele><time>2026-07-19T07:28:49.000Z</time></trkpt>
        <trkpt lat="29.5310983" lon="103.3288679"><ele>2736.02</ele><time>2026-07-19T07:29:15.000Z</time></trkpt>
        <trkpt lat="29.5311097" lon="103.3287632"><ele>2738.84</ele><time>2026-07-19T07:29:35.000Z</time></trkpt>
        <trkpt lat="29.5311432" lon="103.3286639"><ele>2740.01</ele><time>2026-07-19T07:30:09.000Z</time></trkpt>
        <trkpt lat="29.5311535" lon="103.3285607"><ele>2743.11</ele><time>2026-07-19T07:30:33.000Z</time></trkpt>
        <trkpt lat="29.5311773" lon="103.3284602"><ele>2743.77</ele><time>2026-07-19T07:31:09.000Z</time></trkpt>
        <trkpt lat="29.5312107" lon="103.3283517"><ele>2745.64</ele><time>2026-07-19T07:31:27.000Z</time></trkpt>
        <trkpt lat="29.5312725" lon="103.3282605"><ele>2747.38</ele><time>2026-07-19T07:32:21.000Z</time></trkpt>
        <trkpt lat="29.531318" lon="103.3281608"><ele>2749.72</ele><time>2026-07-19T07:32:33.000Z</time></trkpt>
        <trkpt lat="29.5313078" lon="103.3280582"><ele>2752.34</ele><time>2026-07-19T07:32:53.000Z</time></trkpt>
        <trkpt lat="29.5313057" lon="103.3279473"><ele>2754.04</ele><time>2026-07-19T07:33:15.000Z</time></trkpt>
        <trkpt lat="29.5312953" lon="103.3278371"><ele>2755.66</ele><time>2026-07-19T07:33:39.000Z</time></trkpt>
        <trkpt lat="29.5312795" lon="103.3277317"><ele>2756.97</ele><time>2026-07-19T07:34:11.000Z</time></trkpt>
        <trkpt lat="29.5312627" lon="103.3276287"><ele>2758.62</ele><time>2026-07-19T07:34:57.000Z</time></trkpt>
        <trkpt lat="29.5312594" lon="103.3275243"><ele>2762.21</ele><time>2026-07-19T07:35:27.000Z</time></trkpt>
        <trkpt lat="29.531242" lon="103.3274187"><ele>2764.4</ele><time>2026-07-19T07:35:57.000Z</time></trkpt>
        <trkpt lat="29.5312483" lon="103.3273149"><ele>2766.07</ele><time>2026-07-19T07:36:39.000Z</time></trkpt>
        <trkpt lat="29.5312274" lon="103.3272168"><ele>2768.49</ele><time>2026-07-19T07:37:11.000Z</time></trkpt>
        <trkpt lat="29.5311897" lon="103.3271172"><ele>2772.04</ele><time>2026-07-19T07:37:49.000Z</time></trkpt>
        <trkpt lat="29.5311166" lon="103.3270499"><ele>2775.62</ele><time>2026-07-19T07:38:19.000Z</time></trkpt>
        <trkpt lat="29.5310255" lon="103.327001"><ele>2778.18</ele><time>2026-07-19T07:38:41.000Z</time></trkpt>
        <trkpt lat="29.5309396" lon="103.3269469"><ele>2780.88</ele><time>2026-07-19T07:39:07.000Z</time></trkpt>
        <trkpt lat="29.5308508" lon="103.3269062"><ele>2785.15</ele><time>2026-07-19T07:39:37.000Z</time></trkpt>
        <trkpt lat="29.530798" lon="103.3268244"><ele>2788.91</ele><time>2026-07-19T07:40:35.000Z</time></trkpt>
        <trkpt lat="29.5307136" lon="103.326803"><ele>2791.63</ele><time>2026-07-19T07:41:13.000Z</time></trkpt>
        <trkpt lat="29.5306184" lon="103.3268198"><ele>2793.56</ele><time>2026-07-19T07:41:39.000Z</time></trkpt>
        <trkpt lat="29.5305217" lon="103.3268412"><ele>2797.77</ele><time>2026-07-19T07:41:57.000Z</time></trkpt>
        <trkpt lat="29.5304391" lon="103.3269031"><ele>2801.45</ele><time>2026-07-19T07:42:41.000Z</time></trkpt>
        <trkpt lat="29.5303539" lon="103.3269468"><ele>2803.68</ele><time>2026-07-19T07:43:11.000Z</time></trkpt>
        <trkpt lat="29.5302701" lon="103.3270038"><ele>2806.45</ele><time>2026-07-19T07:43:45.000Z</time></trkpt>
        <trkpt lat="29.530182" lon="103.327049"><ele>2809.11</ele><time>2026-07-19T07:44:05.000Z</time></trkpt>
        <trkpt lat="29.5301058" lon="103.3271085"><ele>2813.51</ele><time>2026-07-19T07:44:25.000Z</time></trkpt>
        <trkpt lat="29.5300322" lon="103.327169"><ele>2817.26</ele><time>2026-07-19T07:44:41.000Z</time></trkpt>
        <trkpt lat="29.5299629" lon="103.3272407"><ele>2819.55</ele><time>2026-07-19T07:44:59.000Z</time></trkpt>
        <trkpt lat="29.5298878" lon="103.3273022"><ele>2819.51</ele><time>2026-07-19T07:45:17.000Z</time></trkpt>
        <trkpt lat="29.5298456" lon="103.327401"><ele>2820.42</ele><time>2026-07-19T07:45:33.000Z</time></trkpt>
        <trkpt lat="29.529812" lon="103.327509"><ele>2821.23</ele><time>2026-07-19T07:45:47.000Z</time></trkpt>
        <trkpt lat="29.5297622" lon="103.3276055"><ele>2820.2</ele><time>2026-07-19T07:46:03.000Z</time></trkpt>
        <trkpt lat="29.5297123" lon="103.3276977"><ele>2820.14</ele><time>2026-07-19T07:46:21.000Z</time></trkpt>
        <trkpt lat="29.5296593" lon="103.3277886"><ele>2820.53</ele><time>2026-07-19T07:47:05.000Z</time></trkpt>
        <trkpt lat="29.5295772" lon="103.3278224"><ele>2820.15</ele><time>2026-07-19T07:47:19.000Z</time></trkpt>
        <trkpt lat="29.5294815" lon="103.3278243"><ele>2821.44</ele><time>2026-07-19T07:47:37.000Z</time></trkpt>
        <trkpt lat="29.5293867" lon="103.3278111"><ele>2821.65</ele><time>2026-07-19T07:47:51.000Z</time></trkpt>
        <trkpt lat="29.52929" lon="103.3277893"><ele>2821.14</ele><time>2026-07-19T07:48:15.000Z</time></trkpt>
        <trkpt lat="29.5292078" lon="103.3278287"><ele>2819.86</ele><time>2026-07-19T07:48:35.000Z</time></trkpt>
        <trkpt lat="29.5291569" lon="103.3279192"><ele>2818.94</ele><time>2026-07-19T07:48:57.000Z</time></trkpt>
        <trkpt lat="29.529173" lon="103.3280235"><ele>2821.79</ele><time>2026-07-19T07:49:13.000Z</time></trkpt>
        <trkpt lat="29.5291514" lon="103.3281295"><ele>2824.62</ele><time>2026-07-19T07:49:41.000Z</time></trkpt>
        <trkpt lat="29.5291486" lon="103.3281809"><ele>2826.36</ele><time>2026-07-19T07:49:49.000Z</time></trkpt>
        <trkpt lat="29.5291309" lon="103.3282722"><ele>2827.55</ele><time>2026-07-19T07:50:21.000Z</time></trkpt>
        <trkpt lat="29.5291167" lon="103.3283743"><ele>2829.88</ele><time>2026-07-19T07:50:47.000Z</time></trkpt>
        <trkpt lat="29.5290936" lon="103.3284817"><ele>2830.83</ele><time>2026-07-19T07:51:25.000Z</time></trkpt>
        <trkpt lat="29.5290445" lon="103.3285736"><ele>2833.26</ele><time>2026-07-19T07:51:57.000Z</time></trkpt>
        <trkpt lat="29.5289807" lon="103.3286572"><ele>2837.9</ele><time>2026-07-19T07:52:21.000Z</time></trkpt>
        <trkpt lat="29.5289438" lon="103.3287526"><ele>2841.65</ele><time>2026-07-19T07:52:47.000Z</time></trkpt>
        <trkpt lat="29.5289211" lon="103.3288563"><ele>2844.46</ele><time>2026-07-19T07:53:05.000Z</time></trkpt>
        <trkpt lat="29.5288714" lon="103.3289408"><ele>2844.07</ele><time>2026-07-19T07:53:27.000Z</time></trkpt>
        <trkpt lat="29.5288061" lon="103.3290155"><ele>2845.27</ele><time>2026-07-19T07:53:47.000Z</time></trkpt>
        <trkpt lat="29.5287612" lon="103.3291075"><ele>2848.08</ele><time>2026-07-19T07:54:13.000Z</time></trkpt>
        <trkpt lat="29.5287108" lon="103.3291976"><ele>2848.79</ele><time>2026-07-19T07:54:37.000Z</time></trkpt>
        <trkpt lat="29.5286596" lon="103.3292894"><ele>2851.7</ele><time>2026-07-19T07:54:55.000Z</time></trkpt>
        <trkpt lat="29.5286157" lon="103.3293885"><ele>2855.23</ele><time>2026-07-19T07:55:15.000Z</time></trkpt>
        <trkpt lat="29.5285924" lon="103.3294938"><ele>2857.55</ele><time>2026-07-19T07:55:35.000Z</time></trkpt>
        <trkpt lat="29.5285847" lon="103.3296049"><ele>2857.84</ele><time>2026-07-19T07:55:57.000Z</time></trkpt>
        <trkpt lat="29.5285716" lon="103.3297133"><ele>2859.02</ele><time>2026-07-19T07:56:21.000Z</time></trkpt>
        <trkpt lat="29.5285591" lon="103.3298279"><ele>2861.82</ele><time>2026-07-19T07:56:41.000Z</time></trkpt>
        <trkpt lat="29.5285319" lon="103.32993"><ele>2864.23</ele><time>2026-07-19T07:57:07.000Z</time></trkpt>
        <trkpt lat="29.5284895" lon="103.3300236"><ele>2865.27</ele><time>2026-07-19T07:57:21.000Z</time></trkpt>
        <trkpt lat="29.5284181" lon="103.3300979"><ele>2865.69</ele><time>2026-07-19T07:57:35.000Z</time></trkpt>
        <trkpt lat="29.5283393" lon="103.3301575"><ele>2865.93</ele><time>2026-07-19T07:57:49.000Z</time></trkpt>
        <trkpt lat="29.5282702" lon="103.3302399"><ele>2864.6</ele><time>2026-07-19T07:58:03.000Z</time></trkpt>
        <trkpt lat="29.5282347" lon="103.3303482"><ele>2865.26</ele><time>2026-07-19T07:58:17.000Z</time></trkpt>
        <trkpt lat="29.5282577" lon="103.3304504"><ele>2865.34</ele><time>2026-07-19T07:58:31.000Z</time></trkpt>
        <trkpt lat="29.5282745" lon="103.3305556"><ele>2864.27</ele><time>2026-07-19T07:58:49.000Z</time></trkpt>
        <trkpt lat="29.5282459" lon="103.3306484"><ele>2865.48</ele><time>2026-07-19T07:59:39.000Z</time></trkpt>
        <trkpt lat="29.5281808" lon="103.3307217"><ele>2868.01</ele><time>2026-07-19T08:00:05.000Z</time></trkpt>
        <trkpt lat="29.5281027" lon="103.3307921"><ele>2871.52</ele><time>2026-07-19T08:00:33.000Z</time></trkpt>
        <trkpt lat="29.5280708" lon="103.3308884"><ele>2874.86</ele><time>2026-07-19T08:00:53.000Z</time></trkpt>
        <trkpt lat="29.5280495" lon="103.3309912"><ele>2876.87</ele><time>2026-07-19T08:01:09.000Z</time></trkpt>
        <trkpt lat="29.5280121" lon="103.3310873"><ele>2877.07</ele><time>2026-07-19T08:01:37.000Z</time></trkpt>
        <trkpt lat="29.5279667" lon="103.3311792"><ele>2878.99</ele><time>2026-07-19T08:02:09.000Z</time></trkpt>
        <trkpt lat="29.5278937" lon="103.3312469"><ele>2880.61</ele><time>2026-07-19T08:02:31.000Z</time></trkpt>
        <trkpt lat="29.5278201" lon="103.3313202"><ele>2883.93</ele><time>2026-07-19T08:02:55.000Z</time></trkpt>
        <trkpt lat="29.5277614" lon="103.3314077"><ele>2886.13</ele><time>2026-07-19T08:03:17.000Z</time></trkpt>
        <trkpt lat="29.5276999" lon="103.3314951"><ele>2886.6</ele><time>2026-07-19T08:03:45.000Z</time></trkpt>
        <trkpt lat="29.5276688" lon="103.3316049"><ele>2889.76</ele><time>2026-07-19T08:04:11.000Z</time></trkpt>
        <trkpt lat="29.5276555" lon="103.331722"><ele>2892.46</ele><time>2026-07-19T08:04:27.000Z</time></trkpt>
        <trkpt lat="29.5276375" lon="103.331841"><ele>2894.06</ele><time>2026-07-19T08:04:41.000Z</time></trkpt>
        <trkpt lat="29.5276425" lon="103.3319516"><ele>2895.42</ele><time>2026-07-19T08:04:53.000Z</time></trkpt>
        <trkpt lat="29.5276469" lon="103.3320592"><ele>2896.45</ele><time>2026-07-19T08:05:13.000Z</time></trkpt>
        <trkpt lat="29.5275787" lon="103.3320838"><ele>2895.51</ele><time>2026-07-19T08:05:43.000Z</time></trkpt>
        <trkpt lat="29.5274905" lon="103.332122"><ele>2898.65</ele><time>2026-07-19T08:06:21.000Z</time></trkpt>
        <trkpt lat="29.5274893" lon="103.3322067"><ele>2900.16</ele><time>2026-07-19T08:06:35.000Z</time></trkpt>
        <trkpt lat="29.5275392" lon="103.3322929"><ele>2899.65</ele><time>2026-07-19T08:07:01.000Z</time></trkpt>
        <trkpt lat="29.5274981" lon="103.332365"><ele>2899.36</ele><time>2026-07-19T08:07:31.000Z</time></trkpt>
        <trkpt lat="29.5274372" lon="103.3324402"><ele>2903.17</ele><time>2026-07-19T08:08:15.000Z</time></trkpt>
        <trkpt lat="29.5273458" lon="103.3324775"><ele>2906.34</ele><time>2026-07-19T08:08:41.000Z</time></trkpt>
        <trkpt lat="29.5272557" lon="103.332439"><ele>2910.09</ele><time>2026-07-19T08:09:05.000Z</time></trkpt>
        <trkpt lat="29.5271911" lon="103.3323039"><ele>2909.71</ele><time>2026-07-19T08:10:16.000Z</time></trkpt>
        <trkpt lat="29.5270975" lon="103.3322812"><ele>2909.7</ele><time>2026-07-19T08:10:28.000Z</time></trkpt>
        <trkpt lat="29.5270252" lon="103.3323374"><ele>2910.73</ele><time>2026-07-19T08:11:14.000Z</time></trkpt>
        <trkpt lat="29.5270281" lon="103.3324427"><ele>2912.37</ele><time>2026-07-19T08:11:46.000Z</time></trkpt>
        <trkpt lat="29.5270292" lon="103.3325551"><ele>2913.57</ele><time>2026-07-19T08:11:54.000Z</time></trkpt>
        <trkpt lat="29.5270311" lon="103.3326695"><ele>2915.56</ele><time>2026-07-19T08:12:28.000Z</time></trkpt>
        <trkpt lat="29.527013" lon="103.3327783"><ele>2918.37</ele><time>2026-07-19T08:12:36.000Z</time></trkpt>
        <trkpt lat="29.5269931" lon="103.3328898"><ele>2922.38</ele><time>2026-07-19T08:12:54.000Z</time></trkpt>
        <trkpt lat="29.5270066" lon="103.3329977"><ele>2925.27</ele><time>2026-07-19T08:13:12.000Z</time></trkpt>
        <trkpt lat="29.5270474" lon="103.333095"><ele>2925.25</ele><time>2026-07-19T08:13:42.000Z</time></trkpt>
        <trkpt lat="29.5270869" lon="103.3331967"><ele>2923.63</ele><time>2026-07-19T08:13:48.000Z</time></trkpt>
        <trkpt lat="29.5270427" lon="103.3332845"><ele>2922.66</ele><time>2026-07-19T08:14:24.000Z</time></trkpt>
        <trkpt lat="29.5269449" lon="103.3333426"><ele>2927.06</ele><time>2026-07-19T08:15:24.000Z</time></trkpt>
        <trkpt lat="29.5268503" lon="103.3333766"><ele>2930.56</ele><time>2026-07-19T08:15:30.000Z</time></trkpt>
        <trkpt lat="29.5267224" lon="103.3334271"><ele>2935.01</ele><time>2026-07-19T08:16:40.000Z</time></trkpt>
        <trkpt lat="29.5266391" lon="103.3334687"><ele>2940.78</ele><time>2026-07-19T08:16:46.000Z</time></trkpt>
        <trkpt lat="29.5265513" lon="103.3334901"><ele>2944.72</ele><time>2026-07-19T08:17:24.000Z</time></trkpt>
        <trkpt lat="29.5264585" lon="103.3335401"><ele>2949.67</ele><time>2026-07-19T08:17:40.000Z</time></trkpt>
        <trkpt lat="29.5263811" lon="103.3336012"><ele>2952.57</ele><time>2026-07-19T08:17:54.000Z</time></trkpt>
        <trkpt lat="29.5263064" lon="103.3336765"><ele>2953.1</ele><time>2026-07-19T08:18:08.000Z</time></trkpt>
        <trkpt lat="29.5262225" lon="103.3337274"><ele>2952.16</ele><time>2026-07-19T08:18:22.000Z</time></trkpt>
        <trkpt lat="29.5261454" lon="103.3337836"><ele>2952.61</ele><time>2026-07-19T08:18:42.000Z</time></trkpt>
        <trkpt lat="29.526059" lon="103.3338289"><ele>2953.68</ele><time>2026-07-19T08:19:06.000Z</time></trkpt>
        <trkpt lat="29.5259696" lon="103.3338686"><ele>2955.86</ele><time>2026-07-19T08:19:32.000Z</time></trkpt>
        <trkpt lat="29.5258971" lon="103.3339391"><ele>2956.92</ele><time>2026-07-19T08:19:52.000Z</time></trkpt>
        <trkpt lat="29.5258118" lon="103.3339503"><ele>2957.81</ele><time>2026-07-19T08:20:14.000Z</time></trkpt>
        <trkpt lat="29.5257336" lon="103.3339909"><ele>2960.26</ele><time>2026-07-19T08:20:38.000Z</time></trkpt>
        <trkpt lat="29.5256692" lon="103.3340637"><ele>2963.77</ele><time>2026-07-19T08:21:04.000Z</time></trkpt>
        <trkpt lat="29.5256039" lon="103.3341517"><ele>2965.14</ele><time>2026-07-19T08:21:26.000Z</time></trkpt>
        <trkpt lat="29.5255396" lon="103.3342388"><ele>2966.15</ele><time>2026-07-19T08:21:48.000Z</time></trkpt>
        <trkpt lat="29.5254767" lon="103.3343213"><ele>2967.49</ele><time>2026-07-19T08:22:04.000Z</time></trkpt>
        <trkpt lat="29.5254015" lon="103.3343922"><ele>2968.72</ele><time>2026-07-19T08:22:26.000Z</time></trkpt>
        <trkpt lat="29.5253574" lon="103.3344859"><ele>2971.14</ele><time>2026-07-19T08:22:50.000Z</time></trkpt>
        <trkpt lat="29.525281" lon="103.3345387"><ele>2971.74</ele><time>2026-07-19T08:23:20.000Z</time></trkpt>
        <trkpt lat="29.5252032" lon="103.3345926"><ele>2973.64</ele><time>2026-07-19T08:23:40.000Z</time></trkpt>
        <trkpt lat="29.5251233" lon="103.3346556"><ele>2975.76</ele><time>2026-07-19T08:24:08.000Z</time></trkpt>
        <trkpt lat="29.5250463" lon="103.334718"><ele>2978.71</ele><time>2026-07-19T08:24:34.000Z</time></trkpt>
        <trkpt lat="29.5249671" lon="103.3347702"><ele>2982.81</ele><time>2026-07-19T08:25:24.000Z</time></trkpt>
        <trkpt lat="29.5248644" lon="103.3347568"><ele>2985.35</ele><time>2026-07-19T08:28:14.000Z</time></trkpt>
        <trkpt lat="29.5247751" lon="103.3347266"><ele>2986.2</ele><time>2026-07-19T08:28:30.000Z</time></trkpt>
        <trkpt lat="29.52468" lon="103.3347191"><ele>2986.81</ele><time>2026-07-19T08:28:52.000Z</time></trkpt>
        <trkpt lat="29.5245852" lon="103.3347249"><ele>2985.98</ele><time>2026-07-19T08:29:14.000Z</time></trkpt>
        <trkpt lat="29.5244925" lon="103.334755"><ele>2987</ele><time>2026-07-19T08:29:28.000Z</time></trkpt>
        <trkpt lat="29.5244083" lon="103.3348153"><ele>2990.37</ele><time>2026-07-19T08:29:42.000Z</time></trkpt>
        <trkpt lat="29.5243297" lon="103.3348902"><ele>2992.93</ele><time>2026-07-19T08:29:58.000Z</time></trkpt>
        <trkpt lat="29.5242347" lon="103.3349243"><ele>2993.98</ele><time>2026-07-19T08:30:12.000Z</time></trkpt>
        <trkpt lat="29.5241304" lon="103.3349236"><ele>2994.7</ele><time>2026-07-19T08:30:26.000Z</time></trkpt>
        <trkpt lat="29.5240253" lon="103.3349162"><ele>2995.29</ele><time>2026-07-19T08:30:42.000Z</time></trkpt>
        <trkpt lat="29.5239266" lon="103.3348843"><ele>2994.17</ele><time>2026-07-19T08:30:56.000Z</time></trkpt>
        <trkpt lat="29.5238325" lon="103.3348895"><ele>2994.06</ele><time>2026-07-19T08:31:20.000Z</time></trkpt>
        <trkpt lat="29.5237383" lon="103.3348722"><ele>2994.92</ele><time>2026-07-19T08:31:38.000Z</time></trkpt>
        <trkpt lat="29.5236473" lon="103.3348634"><ele>2993.51</ele><time>2026-07-19T08:31:52.000Z</time></trkpt>
        <trkpt lat="29.523557" lon="103.3348641"><ele>2994.11</ele><time>2026-07-19T08:32:10.000Z</time></trkpt>
        <trkpt lat="29.5234675" lon="103.3348571"><ele>2995.79</ele><time>2026-07-19T08:32:32.000Z</time></trkpt>
        <trkpt lat="29.5233736" lon="103.3348358"><ele>2997.12</ele><time>2026-07-19T08:32:48.000Z</time></trkpt>
        <trkpt lat="29.5232803" lon="103.334807"><ele>2997.91</ele><time>2026-07-19T08:33:02.000Z</time></trkpt>
        <trkpt lat="29.52319" lon="103.334777"><ele>2998.83</ele><time>2026-07-19T08:33:16.000Z</time></trkpt>
        <trkpt lat="29.5231021" lon="103.3347397"><ele>2999.25</ele><time>2026-07-19T08:33:30.000Z</time></trkpt>
        <trkpt lat="29.5230089" lon="103.3347347"><ele>2999.77</ele><time>2026-07-19T08:34:00.000Z</time></trkpt>
        <trkpt lat="29.5229188" lon="103.3347099"><ele>2999.6</ele><time>2026-07-19T08:34:16.000Z</time></trkpt>
        <trkpt lat="29.5228297" lon="103.3346846"><ele>3000.53</ele><time>2026-07-19T08:34:44.000Z</time></trkpt>
        <trkpt lat="29.5227391" lon="103.3347054"><ele>3005</ele><time>2026-07-19T08:35:00.000Z</time></trkpt>
        <trkpt lat="29.5226607" lon="103.334774"><ele>3006.52</ele><time>2026-07-19T08:35:14.000Z</time></trkpt>
        <trkpt lat="29.5226306" lon="103.3348776"><ele>3007.37</ele><time>2026-07-19T08:35:30.000Z</time></trkpt>
        <trkpt lat="29.5226165" lon="103.3349914"><ele>3007.99</ele><time>2026-07-19T08:35:48.000Z</time></trkpt>
        <trkpt lat="29.5226911" lon="103.3349133"><ele>3008.19</ele><time>2026-07-19T08:37:22.000Z</time></trkpt>
        <trkpt lat="29.5227327" lon="103.334816"><ele>3007.52</ele><time>2026-07-19T08:38:02.000Z</time></trkpt>
        <trkpt lat="29.5228176" lon="103.3347614"><ele>3006.77</ele><time>2026-07-19T08:38:18.000Z</time></trkpt>
        <trkpt lat="29.5229169" lon="103.3347409"><ele>3005.54</ele><time>2026-07-19T08:38:38.000Z</time></trkpt>
        <trkpt lat="29.5230126" lon="103.3347357"><ele>3004.52</ele><time>2026-07-19T08:38:50.000Z</time></trkpt>
        <trkpt lat="29.5231095" lon="103.3347574"><ele>3003.8</ele><time>2026-07-19T08:39:06.000Z</time></trkpt>
        <trkpt lat="29.5231974" lon="103.334813"><ele>3002.23</ele><time>2026-07-19T08:39:52.000Z</time></trkpt>
        <trkpt lat="29.5232933" lon="103.334851"><ele>3000.32</ele><time>2026-07-19T08:40:06.000Z</time></trkpt>
        <trkpt lat="29.5233925" lon="103.3348925"><ele>2999.37</ele><time>2026-07-19T08:40:22.000Z</time></trkpt>
        <trkpt lat="29.523492" lon="103.3349188"><ele>2999.19</ele><time>2026-07-19T08:40:34.000Z</time></trkpt>
        <trkpt lat="29.5235879" lon="103.3349346"><ele>2998.86</ele><time>2026-07-19T08:40:56.000Z</time></trkpt>
        <trkpt lat="29.5236649" lon="103.3348866"><ele>2998.87</ele><time>2026-07-19T08:41:22.000Z</time></trkpt>
        <trkpt lat="29.5236649" lon="103.3348866"><ele>2998.87</ele><time>2026-07-19T08:45:05.000Z</time></trkpt>
      </trkseg>
  </trk>
</gpx>